<?xml version="1.0" encoding="UTF-8" standalone="no" ?>
<gpx xmlns="http://www.topografix.com/GPX/1/1" xmlns:xsi="http://www.w3.org/2001/XMLSchema-instance" xsi:schemaLocation="http://www.topografix.com/GPX/1/1 http://www.topografix.com/GPX/1/1/gpx.xsd" version="1.1" creator="VisuGPX - https://www.visugpx.com">
  <metadata>
    <name>Ray-Pic N4 revu et corrige</name>
  </metadata>
  <trk>
    <name><![CDATA[2022-10-04 09:04]]></name>
    <extensions>
      <line xmlns="http://www.topografix.com/GPX/gpx_style/0/2">
        <color>0000FF</color>
        <opacity>0.59</opacity>
        <width>6</width>
      </line>
    </extensions>
    <trkseg>
      <trkpt lat="44.8097" lon="4.29073">
        <ele>1323.62</ele>
        <time>2022-10-04T07:04:05.999Z</time>
      </trkpt>
      <trkpt lat="44.80978" lon="4.29066">
        <ele>1324.01</ele>
        <time>2022-10-04T07:04:51.999Z</time>
      </trkpt>
      <trkpt lat="44.80985" lon="4.2905">
        <ele>1324.58</ele>
        <time>2022-10-04T07:05:01.999Z</time>
      </trkpt>
      <trkpt lat="44.8099" lon="4.29037">
        <ele>1325.06</ele>
        <time>2022-10-04T07:05:11.999Z</time>
      </trkpt>
      <trkpt lat="44.80996" lon="4.29026">
        <ele>1325.49</ele>
        <time>2022-10-04T07:05:28.999Z</time>
      </trkpt>
      <trkpt lat="44.81004" lon="4.29022">
        <ele>1325.89</ele>
        <time>2022-10-04T07:06:03.790Z</time>
      </trkpt>
      <trkpt lat="44.81015" lon="4.29013">
        <ele>1326.37</ele>
        <time>2022-10-04T07:06:13.249Z</time>
      </trkpt>
      <trkpt lat="44.81022" lon="4.29002">
        <ele>1326.67</ele>
        <time>2022-10-04T07:06:22.999Z</time>
      </trkpt>
      <trkpt lat="44.81028" lon="4.28992">
        <ele>1326.91</ele>
        <time>2022-10-04T07:06:32.453Z</time>
      </trkpt>
      <trkpt lat="44.81035" lon="4.28981">
        <ele>1327.15</ele>
        <time>2022-10-04T07:06:41.729Z</time>
      </trkpt>
      <trkpt lat="44.81047" lon="4.28967">
        <ele>1327.47</ele>
        <time>2022-10-04T07:06:51.147Z</time>
      </trkpt>
      <trkpt lat="44.81056" lon="4.28957">
        <ele>1327.71</ele>
        <time>2022-10-04T07:07:00.386Z</time>
      </trkpt>
      <trkpt lat="44.81065" lon="4.28948">
        <ele>1327.92</ele>
        <time>2022-10-04T07:07:09.664Z</time>
      </trkpt>
      <trkpt lat="44.81074" lon="4.28939">
        <ele>1328.08</ele>
        <time>2022-10-04T07:07:19.706Z</time>
      </trkpt>
      <trkpt lat="44.81083" lon="4.2893">
        <ele>1328.26</ele>
        <time>2022-10-04T07:07:28.907Z</time>
      </trkpt>
      <trkpt lat="44.81093" lon="4.2892">
        <ele>1328.35</ele>
        <time>2022-10-04T07:07:37.932Z</time>
      </trkpt>
      <trkpt lat="44.81101" lon="4.28909">
        <ele>1328.31</ele>
        <time>2022-10-04T07:07:47.999Z</time>
      </trkpt>
      <trkpt lat="44.81112" lon="4.28895">
        <ele>1328.08</ele>
        <time>2022-10-04T07:07:57.573Z</time>
      </trkpt>
      <trkpt lat="44.81121" lon="4.28882">
        <ele>1327.7</ele>
        <time>2022-10-04T07:08:06.580Z</time>
      </trkpt>
      <trkpt lat="44.81132" lon="4.28873">
        <ele>1327.33</ele>
        <time>2022-10-04T07:08:15.592Z</time>
      </trkpt>
      <trkpt lat="44.81142" lon="4.28863">
        <ele>1326.78</ele>
        <time>2022-10-04T07:08:25.090Z</time>
      </trkpt>
      <trkpt lat="44.81153" lon="4.28859">
        <ele>1326.62</ele>
        <time>2022-10-04T07:08:34.286Z</time>
      </trkpt>
      <trkpt lat="44.81163" lon="4.28856">
        <ele>1326.53</ele>
        <time>2022-10-04T07:08:44.999Z</time>
      </trkpt>
      <trkpt lat="44.81174" lon="4.28851">
        <ele>1326.34</ele>
        <time>2022-10-04T07:08:54.264Z</time>
      </trkpt>
      <trkpt lat="44.81187" lon="4.28847">
        <ele>1326.27</ele>
        <time>2022-10-04T07:09:03.666Z</time>
      </trkpt>
      <trkpt lat="44.81198" lon="4.28842">
        <ele>1326.14</ele>
        <time>2022-10-04T07:09:12.742Z</time>
      </trkpt>
      <trkpt lat="44.81208" lon="4.28843">
        <ele>1326.42</ele>
        <time>2022-10-04T07:09:21.999Z</time>
      </trkpt>
      <trkpt lat="44.81219" lon="4.28833">
        <ele>1326.08</ele>
        <time>2022-10-04T07:09:31.724Z</time>
      </trkpt>
      <trkpt lat="44.81231" lon="4.28826">
        <ele>1325.98</ele>
        <time>2022-10-04T07:09:41.251Z</time>
      </trkpt>
      <trkpt lat="44.81241" lon="4.28816">
        <ele>1325.7</ele>
        <time>2022-10-04T07:09:50.733Z</time>
      </trkpt>
      <trkpt lat="44.8125" lon="4.28808">
        <ele>1325.6</ele>
        <time>2022-10-04T07:09:59.999Z</time>
      </trkpt>
      <trkpt lat="44.81262" lon="4.28795">
        <ele>1325.42</ele>
        <time>2022-10-04T07:10:09.210Z</time>
      </trkpt>
      <trkpt lat="44.81271" lon="4.28787">
        <ele>1325.53</ele>
        <time>2022-10-04T07:10:18.999Z</time>
      </trkpt>
      <trkpt lat="44.81282" lon="4.28776">
        <ele>1325.71</ele>
        <time>2022-10-04T07:10:28.205Z</time>
      </trkpt>
      <trkpt lat="44.81291" lon="4.28765">
        <ele>1325.92</ele>
        <time>2022-10-04T07:10:37.208Z</time>
      </trkpt>
      <trkpt lat="44.813" lon="4.28755">
        <ele>1326.3</ele>
        <time>2022-10-04T07:10:46.625Z</time>
      </trkpt>
      <trkpt lat="44.8131" lon="4.28742">
        <ele>1326.76</ele>
        <time>2022-10-04T07:10:56.091Z</time>
      </trkpt>
      <trkpt lat="44.81318" lon="4.28731">
        <ele>1327.3</ele>
        <time>2022-10-04T07:11:05.112Z</time>
      </trkpt>
      <trkpt lat="44.81325" lon="4.28718">
        <ele>1327.77</ele>
        <time>2022-10-04T07:11:14.228Z</time>
      </trkpt>
      <trkpt lat="44.81331" lon="4.28702">
        <ele>1328.16</ele>
        <time>2022-10-04T07:11:23.669Z</time>
      </trkpt>
      <trkpt lat="44.81337" lon="4.28687">
        <ele>1328.62</ele>
        <time>2022-10-04T07:11:33.227Z</time>
      </trkpt>
      <trkpt lat="44.81341" lon="4.28672">
        <ele>1328.99</ele>
        <time>2022-10-04T07:11:42.506Z</time>
      </trkpt>
      <trkpt lat="44.81346" lon="4.28656">
        <ele>1329.38</ele>
        <time>2022-10-04T07:11:51.646Z</time>
      </trkpt>
      <trkpt lat="44.8135" lon="4.28638">
        <ele>1329.81</ele>
        <time>2022-10-04T07:12:01.665Z</time>
      </trkpt>
      <trkpt lat="44.81354" lon="4.28623">
        <ele>1330.24</ele>
        <time>2022-10-04T07:12:10.704Z</time>
      </trkpt>
      <trkpt lat="44.81355" lon="4.28604">
        <ele>1330.32</ele>
        <time>2022-10-04T07:12:20.203Z</time>
      </trkpt>
      <trkpt lat="44.81356" lon="4.28586">
        <ele>1330.39</ele>
        <time>2022-10-04T07:12:29.811Z</time>
      </trkpt>
      <trkpt lat="44.81361" lon="4.28572">
        <ele>1331.14</ele>
        <time>2022-10-04T07:12:39.000Z</time>
      </trkpt>
      <trkpt lat="44.81364" lon="4.28555">
        <ele>1331.54</ele>
        <time>2022-10-04T07:12:48.770Z</time>
      </trkpt>
      <trkpt lat="44.81365" lon="4.28541">
        <ele>1331.66</ele>
        <time>2022-10-04T07:12:58.106Z</time>
      </trkpt>
      <trkpt lat="44.81367" lon="4.28529">
        <ele>1332.13</ele>
        <time>2022-10-04T07:13:07.406Z</time>
      </trkpt>
      <trkpt lat="44.81368" lon="4.28515">
        <ele>1332.36</ele>
        <time>2022-10-04T07:13:16.507Z</time>
      </trkpt>
      <trkpt lat="44.81371" lon="4.28501">
        <ele>1333.02</ele>
        <time>2022-10-04T07:13:26.000Z</time>
      </trkpt>
      <trkpt lat="44.81374" lon="4.28483">
        <ele>1333.63</ele>
        <time>2022-10-04T07:13:35.142Z</time>
      </trkpt>
      <trkpt lat="44.81374" lon="4.28468">
        <ele>1333.95</ele>
        <time>2022-10-04T07:13:44.432Z</time>
      </trkpt>
      <trkpt lat="44.81381" lon="4.28456">
        <ele>1335.39</ele>
        <time>2022-10-04T07:13:53.491Z</time>
      </trkpt>
      <trkpt lat="44.81381" lon="4.28442">
        <ele>1335.55</ele>
        <time>2022-10-04T07:14:02.889Z</time>
      </trkpt>
      <trkpt lat="44.81383" lon="4.28424">
        <ele>1336.08</ele>
        <time>2022-10-04T07:14:12.229Z</time>
      </trkpt>
      <trkpt lat="44.8138" lon="4.28408">
        <ele>1335.81</ele>
        <time>2022-10-04T07:14:23.000Z</time>
      </trkpt>
      <trkpt lat="44.8138" lon="4.2839">
        <ele>1335.88</ele>
        <time>2022-10-04T07:14:32.004Z</time>
      </trkpt>
      <trkpt lat="44.81383" lon="4.28373">
        <ele>1336.52</ele>
        <time>2022-10-04T07:14:41.064Z</time>
      </trkpt>
      <trkpt lat="44.81383" lon="4.28357">
        <ele>1336.6</ele>
        <time>2022-10-04T07:14:50.466Z</time>
      </trkpt>
      <trkpt lat="44.81381" lon="4.2834">
        <ele>1336.36</ele>
        <time>2022-10-04T07:14:59.938Z</time>
      </trkpt>
      <trkpt lat="44.81379" lon="4.28322">
        <ele>1336.27</ele>
        <time>2022-10-04T07:15:09.511Z</time>
      </trkpt>
      <trkpt lat="44.81377" lon="4.28309">
        <ele>1336.05</ele>
        <time>2022-10-04T07:15:18.770Z</time>
      </trkpt>
      <trkpt lat="44.81374" lon="4.28293">
        <ele>1335.92</ele>
        <time>2022-10-04T07:15:28.069Z</time>
      </trkpt>
      <trkpt lat="44.81369" lon="4.28277">
        <ele>1335.76</ele>
        <time>2022-10-04T07:15:37.729Z</time>
      </trkpt>
      <trkpt lat="44.81368" lon="4.28259">
        <ele>1336.38</ele>
        <time>2022-10-04T07:15:46.816Z</time>
      </trkpt>
      <trkpt lat="44.81367" lon="4.28241">
        <ele>1337.3</ele>
        <time>2022-10-04T07:15:56.107Z</time>
      </trkpt>
      <trkpt lat="44.81371" lon="4.28224">
        <ele>1338.64</ele>
        <time>2022-10-04T07:16:05.344Z</time>
      </trkpt>
      <trkpt lat="44.81378" lon="4.2821">
        <ele>1340.02</ele>
        <time>2022-10-04T07:16:14.704Z</time>
      </trkpt>
      <trkpt lat="44.81387" lon="4.28199">
        <ele>1341.21</ele>
        <time>2022-10-04T07:16:24.042Z</time>
      </trkpt>
      <trkpt lat="44.81397" lon="4.28189">
        <ele>1341.91</ele>
        <time>2022-10-04T07:16:33.712Z</time>
      </trkpt>
      <trkpt lat="44.81405" lon="4.28176">
        <ele>1342.7</ele>
        <time>2022-10-04T07:16:44.000Z</time>
      </trkpt>
      <trkpt lat="44.8141" lon="4.28159">
        <ele>1343.97</ele>
        <time>2022-10-04T07:16:53.392Z</time>
      </trkpt>
      <trkpt lat="44.81417" lon="4.28145">
        <ele>1344.59</ele>
        <time>2022-10-04T07:17:02.847Z</time>
      </trkpt>
      <trkpt lat="44.81427" lon="4.28136">
        <ele>1343.44</ele>
        <time>2022-10-04T07:17:13.000Z</time>
      </trkpt>
      <trkpt lat="44.81436" lon="4.28126">
        <ele>1342.08</ele>
        <time>2022-10-04T07:17:22.204Z</time>
      </trkpt>
      <trkpt lat="44.81443" lon="4.28117">
        <ele>1340.95</ele>
        <time>2022-10-04T07:17:31.385Z</time>
      </trkpt>
      <trkpt lat="44.81445" lon="4.281">
        <ele>1343.12</ele>
        <time>2022-10-04T07:17:40.922Z</time>
      </trkpt>
      <trkpt lat="44.81442" lon="4.28084">
        <ele>1346.19</ele>
        <time>2022-10-04T07:17:52.000Z</time>
      </trkpt>
      <trkpt lat="44.81438" lon="4.28072">
        <ele>1349.3</ele>
        <time>2022-10-04T07:18:03.000Z</time>
      </trkpt>
      <trkpt lat="44.81441" lon="4.28059">
        <ele>1350.1</ele>
        <time>2022-10-04T07:18:12.349Z</time>
      </trkpt>
      <trkpt lat="44.81438" lon="4.28047">
        <ele>1352.72</ele>
        <time>2022-10-04T07:18:21.810Z</time>
      </trkpt>
      <trkpt lat="44.81435" lon="4.28035">
        <ele>1355.29</ele>
        <time>2022-10-04T07:18:32.848Z</time>
      </trkpt>
      <trkpt lat="44.81432" lon="4.28023">
        <ele>1357.49</ele>
        <time>2022-10-04T07:18:42.307Z</time>
      </trkpt>
      <trkpt lat="44.81428" lon="4.28011">
        <ele>1359.88</ele>
        <time>2022-10-04T07:18:52.944Z</time>
      </trkpt>
      <trkpt lat="44.81426" lon="4.27998">
        <ele>1361.64</ele>
        <time>2022-10-04T07:19:02.666Z</time>
      </trkpt>
      <trkpt lat="44.81421" lon="4.27987">
        <ele>1363.59</ele>
        <time>2022-10-04T07:19:11.835Z</time>
      </trkpt>
      <trkpt lat="44.81417" lon="4.27975">
        <ele>1365.08</ele>
        <time>2022-10-04T07:19:22.000Z</time>
      </trkpt>
      <trkpt lat="44.81417" lon="4.27961">
        <ele>1365.94</ele>
        <time>2022-10-04T07:19:57.768Z</time>
      </trkpt>
      <trkpt lat="44.8142" lon="4.27947">
        <ele>1366.44</ele>
        <time>2022-10-04T07:20:07.785Z</time>
      </trkpt>
      <trkpt lat="44.81426" lon="4.27934">
        <ele>1366.4</ele>
        <time>2022-10-04T07:20:18.999Z</time>
      </trkpt>
      <trkpt lat="44.81422" lon="4.27919">
        <ele>1368.11</ele>
        <time>2022-10-04T07:20:29.999Z</time>
      </trkpt>
      <trkpt lat="44.8142" lon="4.27904">
        <ele>1369.56</ele>
        <time>2022-10-04T07:20:39.463Z</time>
      </trkpt>
      <trkpt lat="44.81427" lon="4.27888">
        <ele>1369.8</ele>
        <time>2022-10-04T07:20:48.823Z</time>
      </trkpt>
      <trkpt lat="44.8143" lon="4.27872">
        <ele>1370.45</ele>
        <time>2022-10-04T07:20:57.950Z</time>
      </trkpt>
      <trkpt lat="44.81436" lon="4.27858">
        <ele>1370.65</ele>
        <time>2022-10-04T07:21:07.531Z</time>
      </trkpt>
      <trkpt lat="44.81437" lon="4.2784">
        <ele>1372.07</ele>
        <time>2022-10-04T07:21:17.999Z</time>
      </trkpt>
      <trkpt lat="44.81445" lon="4.27827">
        <ele>1372.07</ele>
        <time>2022-10-04T07:21:27.050Z</time>
      </trkpt>
      <trkpt lat="44.81455" lon="4.27814">
        <ele>1371.77</ele>
        <time>2022-10-04T07:21:36.808Z</time>
      </trkpt>
      <trkpt lat="44.81457" lon="4.278">
        <ele>1373.26</ele>
        <time>2022-10-04T07:21:46.029Z</time>
      </trkpt>
      <trkpt lat="44.81452" lon="4.27812">
        <ele>1372.74</ele>
        <time>2022-10-04T07:22:15.524Z</time>
      </trkpt>
      <trkpt lat="44.81443" lon="4.27825">
        <ele>1372.64</ele>
        <time>2022-10-04T07:22:24.573Z</time>
      </trkpt>
      <trkpt lat="44.81431" lon="4.27823">
        <ele>1374.87</ele>
        <time>2022-10-04T07:22:34.432Z</time>
      </trkpt>
      <trkpt lat="44.81419" lon="4.27814">
        <ele>1377.79</ele>
        <time>2022-10-04T07:22:43.932Z</time>
      </trkpt>
      <trkpt lat="44.81407" lon="4.27812">
        <ele>1379.5</ele>
        <time>2022-10-04T07:22:53.447Z</time>
      </trkpt>
      <trkpt lat="44.81397" lon="4.27812">
        <ele>1380.62</ele>
        <time>2022-10-04T07:23:02.999Z</time>
      </trkpt>
      <trkpt lat="44.81389" lon="4.27806">
        <ele>1381.99</ele>
        <time>2022-10-04T07:23:15.999Z</time>
      </trkpt>
      <trkpt lat="44.81381" lon="4.278">
        <ele>1383.25</ele>
        <time>2022-10-04T07:23:48.999Z</time>
      </trkpt>
      <trkpt lat="44.81364" lon="4.27799">
        <ele>1384.42</ele>
        <time>2022-10-04T07:23:58.612Z</time>
      </trkpt>
      <trkpt lat="44.81354" lon="4.27792">
        <ele>1385.37</ele>
        <time>2022-10-04T07:24:07.689Z</time>
      </trkpt>
      <trkpt lat="44.81346" lon="4.27778">
        <ele>1386.35</ele>
        <time>2022-10-04T07:24:17.650Z</time>
      </trkpt>
      <trkpt lat="44.81349" lon="4.27758">
        <ele>1386.94</ele>
        <time>2022-10-04T07:24:26.794Z</time>
      </trkpt>
      <trkpt lat="44.8135" lon="4.27737">
        <ele>1387.07</ele>
        <time>2022-10-04T07:24:36.999Z</time>
      </trkpt>
      <trkpt lat="44.81352" lon="4.27716">
        <ele>1386.53</ele>
        <time>2022-10-04T07:24:46.546Z</time>
      </trkpt>
      <trkpt lat="44.81355" lon="4.27696">
        <ele>1385.85</ele>
        <time>2022-10-04T07:24:56.085Z</time>
      </trkpt>
      <trkpt lat="44.81357" lon="4.27676">
        <ele>1385.29</ele>
        <time>2022-10-04T07:25:05.606Z</time>
      </trkpt>
      <trkpt lat="44.81358" lon="4.27664">
        <ele>1385.02</ele>
        <time>2022-10-04T07:25:16.623Z</time>
      </trkpt>
      <trkpt lat="44.81362" lon="4.27646">
        <ele>1385.18</ele>
        <time>2022-10-04T07:25:25.825Z</time>
      </trkpt>
      <trkpt lat="44.81363" lon="4.27629">
        <ele>1385.01</ele>
        <time>2022-10-04T07:25:34.991Z</time>
      </trkpt>
      <trkpt lat="44.8136" lon="4.27613">
        <ele>1384.47</ele>
        <time>2022-10-04T07:25:44.471Z</time>
      </trkpt>
      <trkpt lat="44.81361" lon="4.27596">
        <ele>1384.39</ele>
        <time>2022-10-04T07:25:53.773Z</time>
      </trkpt>
      <trkpt lat="44.81363" lon="4.27578">
        <ele>1384.66</ele>
        <time>2022-10-04T07:26:02.830Z</time>
      </trkpt>
      <trkpt lat="44.81363" lon="4.27559">
        <ele>1384.78</ele>
        <time>2022-10-04T07:26:12.448Z</time>
      </trkpt>
      <trkpt lat="44.81363" lon="4.27541">
        <ele>1384.88</ele>
        <time>2022-10-04T07:26:22.999Z</time>
      </trkpt>
      <trkpt lat="44.8136" lon="4.27521">
        <ele>1384.86</ele>
        <time>2022-10-04T07:26:32.467Z</time>
      </trkpt>
      <trkpt lat="44.8136" lon="4.27504">
        <ele>1385.11</ele>
        <time>2022-10-04T07:26:41.487Z</time>
      </trkpt>
      <trkpt lat="44.81359" lon="4.27486">
        <ele>1385.23</ele>
        <time>2022-10-04T07:26:50.666Z</time>
      </trkpt>
      <trkpt lat="44.81361" lon="4.27468">
        <ele>1385.63</ele>
        <time>2022-10-04T07:27:00.124Z</time>
      </trkpt>
      <trkpt lat="44.8136" lon="4.2745">
        <ele>1385.84</ele>
        <time>2022-10-04T07:27:10.999Z</time>
      </trkpt>
      <trkpt lat="44.81358" lon="4.27431">
        <ele>1386.02</ele>
        <time>2022-10-04T07:27:20.139Z</time>
      </trkpt>
      <trkpt lat="44.81358" lon="4.27413">
        <ele>1386.34</ele>
        <time>2022-10-04T07:27:29.772Z</time>
      </trkpt>
      <trkpt lat="44.81356" lon="4.27394">
        <ele>1386.58</ele>
        <time>2022-10-04T07:27:39.229Z</time>
      </trkpt>
      <trkpt lat="44.81354" lon="4.27377">
        <ele>1386.78</ele>
        <time>2022-10-04T07:27:48.308Z</time>
      </trkpt>
      <trkpt lat="44.81354" lon="4.27358">
        <ele>1387.21</ele>
        <time>2022-10-04T07:27:57.428Z</time>
      </trkpt>
      <trkpt lat="44.81352" lon="4.2734">
        <ele>1387.45</ele>
        <time>2022-10-04T07:28:06.566Z</time>
      </trkpt>
      <trkpt lat="44.81351" lon="4.27323">
        <ele>1387.83</ele>
        <time>2022-10-04T07:28:15.648Z</time>
      </trkpt>
      <trkpt lat="44.8135" lon="4.27306">
        <ele>1388.14</ele>
        <time>2022-10-04T07:28:24.949Z</time>
      </trkpt>
      <trkpt lat="44.81347" lon="4.27288">
        <ele>1388.4</ele>
        <time>2022-10-04T07:28:34.091Z</time>
      </trkpt>
      <trkpt lat="44.81342" lon="4.27271">
        <ele>1388.43</ele>
        <time>2022-10-04T07:28:45.000Z</time>
      </trkpt>
      <trkpt lat="44.81338" lon="4.27251">
        <ele>1388.45</ele>
        <time>2022-10-04T07:28:54.530Z</time>
      </trkpt>
      <trkpt lat="44.81338" lon="4.27233">
        <ele>1388.89</ele>
        <time>2022-10-04T07:29:03.777Z</time>
      </trkpt>
      <trkpt lat="44.81341" lon="4.27216">
        <ele>1389.54</ele>
        <time>2022-10-04T07:29:12.889Z</time>
      </trkpt>
      <trkpt lat="44.81344" lon="4.27198">
        <ele>1390.26</ele>
        <time>2022-10-04T07:29:23.000Z</time>
      </trkpt>
      <trkpt lat="44.81348" lon="4.27179">
        <ele>1390.96</ele>
        <time>2022-10-04T07:29:32.384Z</time>
      </trkpt>
      <trkpt lat="44.81354" lon="4.27163">
        <ele>1391.48</ele>
        <time>2022-10-04T07:29:43.000Z</time>
      </trkpt>
      <trkpt lat="44.81361" lon="4.27143">
        <ele>1391.86</ele>
        <time>2022-10-04T07:29:52.713Z</time>
      </trkpt>
      <trkpt lat="44.81368" lon="4.27126">
        <ele>1392.04</ele>
        <time>2022-10-04T07:30:02.231Z</time>
      </trkpt>
      <trkpt lat="44.81375" lon="4.27108">
        <ele>1391.81</ele>
        <time>2022-10-04T07:30:11.691Z</time>
      </trkpt>
      <trkpt lat="44.81379" lon="4.27093">
        <ele>1391.28</ele>
        <time>2022-10-04T07:30:21.000Z</time>
      </trkpt>
      <trkpt lat="44.81384" lon="4.27082">
        <ele>1390.98</ele>
        <time>2022-10-04T07:32:00.000Z</time>
      </trkpt>
      <trkpt lat="44.81385" lon="4.27068">
        <ele>1390.18</ele>
        <time>2022-10-04T07:32:09.104Z</time>
      </trkpt>
      <trkpt lat="44.81389" lon="4.27056">
        <ele>1389.72</ele>
        <time>2022-10-04T07:32:35.530Z</time>
      </trkpt>
      <trkpt lat="44.81391" lon="4.27037">
        <ele>1388.37</ele>
        <time>2022-10-04T07:32:45.473Z</time>
      </trkpt>
      <trkpt lat="44.81392" lon="4.2702">
        <ele>1386.86</ele>
        <time>2022-10-04T07:32:55.449Z</time>
      </trkpt>
      <trkpt lat="44.81397" lon="4.27007">
        <ele>1386.27</ele>
        <time>2022-10-04T07:33:04.626Z</time>
      </trkpt>
      <trkpt lat="44.81403" lon="4.2699">
        <ele>1385.03</ele>
        <time>2022-10-04T07:33:13.726Z</time>
      </trkpt>
      <trkpt lat="44.81409" lon="4.26975">
        <ele>1383.42</ele>
        <time>2022-10-04T07:33:22.825Z</time>
      </trkpt>
      <trkpt lat="44.81415" lon="4.2696">
        <ele>1381.38</ele>
        <time>2022-10-04T07:33:32.196Z</time>
      </trkpt>
      <trkpt lat="44.81423" lon="4.26946">
        <ele>1379.42</ele>
        <time>2022-10-04T07:33:42.000Z</time>
      </trkpt>
      <trkpt lat="44.81438" lon="4.26936">
        <ele>1378.68</ele>
        <time>2022-10-04T07:33:51.709Z</time>
      </trkpt>
      <trkpt lat="44.81448" lon="4.26927">
        <ele>1377.71</ele>
        <time>2022-10-04T07:34:00.829Z</time>
      </trkpt>
      <trkpt lat="44.81461" lon="4.26922">
        <ele>1377.51</ele>
        <time>2022-10-04T07:34:09.970Z</time>
      </trkpt>
      <trkpt lat="44.81474" lon="4.2692">
        <ele>1377.88</ele>
        <time>2022-10-04T07:34:19.591Z</time>
      </trkpt>
      <trkpt lat="44.81485" lon="4.26915">
        <ele>1377.51</ele>
        <time>2022-10-04T07:34:28.773Z</time>
      </trkpt>
      <trkpt lat="44.81497" lon="4.26912">
        <ele>1377.43</ele>
        <time>2022-10-04T07:34:39.000Z</time>
      </trkpt>
      <trkpt lat="44.81511" lon="4.2691">
        <ele>1377.29</ele>
        <time>2022-10-04T07:34:48.569Z</time>
      </trkpt>
      <trkpt lat="44.81525" lon="4.26906">
        <ele>1376.86</ele>
        <time>2022-10-04T07:34:58.288Z</time>
      </trkpt>
      <trkpt lat="44.81536" lon="4.26897">
        <ele>1376.14</ele>
        <time>2022-10-04T07:35:07.724Z</time>
      </trkpt>
      <trkpt lat="44.81546" lon="4.2689">
        <ele>1375.68</ele>
        <time>2022-10-04T07:35:17.000Z</time>
      </trkpt>
      <trkpt lat="44.8156" lon="4.2688">
        <ele>1375.31</ele>
        <time>2022-10-04T07:35:26.684Z</time>
      </trkpt>
      <trkpt lat="44.81569" lon="4.26867">
        <ele>1375.09</ele>
        <time>2022-10-04T07:35:36.154Z</time>
      </trkpt>
      <trkpt lat="44.81577" lon="4.26852">
        <ele>1375.02</ele>
        <time>2022-10-04T07:35:45.613Z</time>
      </trkpt>
      <trkpt lat="44.81584" lon="4.26835">
        <ele>1375.02</ele>
        <time>2022-10-04T07:35:54.968Z</time>
      </trkpt>
      <trkpt lat="44.81588" lon="4.26817">
        <ele>1375</ele>
        <time>2022-10-04T07:36:04.529Z</time>
      </trkpt>
      <trkpt lat="44.8159" lon="4.268">
        <ele>1374.94</ele>
        <time>2022-10-04T07:36:15.000Z</time>
      </trkpt>
      <trkpt lat="44.81592" lon="4.26782">
        <ele>1374.88</ele>
        <time>2022-10-04T07:36:24.025Z</time>
      </trkpt>
      <trkpt lat="44.81593" lon="4.26765">
        <ele>1374.64</ele>
        <time>2022-10-04T07:36:33.367Z</time>
      </trkpt>
      <trkpt lat="44.81591" lon="4.26744">
        <ele>1373.85</ele>
        <time>2022-10-04T07:36:43.244Z</time>
      </trkpt>
      <trkpt lat="44.81591" lon="4.26726">
        <ele>1373.15</ele>
        <time>2022-10-04T07:36:52.685Z</time>
      </trkpt>
      <trkpt lat="44.81589" lon="4.26709">
        <ele>1371.99</ele>
        <time>2022-10-04T07:37:01.999Z</time>
      </trkpt>
      <trkpt lat="44.8159" lon="4.2669">
        <ele>1370.96</ele>
        <time>2022-10-04T07:37:11.315Z</time>
      </trkpt>
      <trkpt lat="44.8159" lon="4.26672">
        <ele>1370.09</ele>
        <time>2022-10-04T07:37:20.730Z</time>
      </trkpt>
      <trkpt lat="44.8159" lon="4.26658">
        <ele>1369.33</ele>
        <time>2022-10-04T07:37:29.999Z</time>
      </trkpt>
      <trkpt lat="44.81589" lon="4.26638">
        <ele>1368.08</ele>
        <time>2022-10-04T07:37:39.812Z</time>
      </trkpt>
      <trkpt lat="44.81586" lon="4.26626">
        <ele>1367.11</ele>
        <time>2022-10-04T07:37:49.215Z</time>
      </trkpt>
      <trkpt lat="44.81587" lon="4.26609">
        <ele>1366.25</ele>
        <time>2022-10-04T07:37:58.505Z</time>
      </trkpt>
      <trkpt lat="44.81585" lon="4.2659">
        <ele>1365.31</ele>
        <time>2022-10-04T07:38:07.882Z</time>
      </trkpt>
      <trkpt lat="44.81586" lon="4.26575">
        <ele>1364.84</ele>
        <time>2022-10-04T07:38:16.999Z</time>
      </trkpt>
      <trkpt lat="44.8158" lon="4.26557">
        <ele>1364.18</ele>
        <time>2022-10-04T07:38:26.651Z</time>
      </trkpt>
      <trkpt lat="44.8157" lon="4.26546">
        <ele>1363.62</ele>
        <time>2022-10-04T07:38:36.999Z</time>
      </trkpt>
      <trkpt lat="44.81567" lon="4.26525">
        <ele>1363.48</ele>
        <time>2022-10-04T07:38:46.489Z</time>
      </trkpt>
      <trkpt lat="44.81565" lon="4.26507">
        <ele>1363.72</ele>
        <time>2022-10-04T07:38:55.689Z</time>
      </trkpt>
      <trkpt lat="44.81557" lon="4.26494">
        <ele>1363.83</ele>
        <time>2022-10-04T07:39:04.826Z</time>
      </trkpt>
      <trkpt lat="44.81551" lon="4.2648">
        <ele>1364.33</ele>
        <time>2022-10-04T07:39:14.205Z</time>
      </trkpt>
      <trkpt lat="44.81539" lon="4.26474">
        <ele>1364.08</ele>
        <time>2022-10-04T07:39:23.364Z</time>
      </trkpt>
      <trkpt lat="44.81529" lon="4.26463">
        <ele>1364.38</ele>
        <time>2022-10-04T07:39:32.593Z</time>
      </trkpt>
      <trkpt lat="44.81518" lon="4.26453">
        <ele>1364.47</ele>
        <time>2022-10-04T07:39:42.071Z</time>
      </trkpt>
      <trkpt lat="44.8151" lon="4.26443">
        <ele>1364.82</ele>
        <time>2022-10-04T07:39:51.454Z</time>
      </trkpt>
      <trkpt lat="44.81501" lon="4.26432">
        <ele>1365.26</ele>
        <time>2022-10-04T07:40:00.829Z</time>
      </trkpt>
      <trkpt lat="44.81494" lon="4.26418">
        <ele>1366.2</ele>
        <time>2022-10-04T07:40:10.289Z</time>
      </trkpt>
      <trkpt lat="44.81488" lon="4.26406">
        <ele>1366.87</ele>
        <time>2022-10-04T07:40:19.667Z</time>
      </trkpt>
      <trkpt lat="44.81481" lon="4.26397">
        <ele>1366.95</ele>
        <time>2022-10-04T07:40:29.209Z</time>
      </trkpt>
      <trkpt lat="44.81475" lon="4.26384">
        <ele>1367.73</ele>
        <time>2022-10-04T07:40:38.224Z</time>
      </trkpt>
      <trkpt lat="44.8147" lon="4.26372">
        <ele>1368.6</ele>
        <time>2022-10-04T07:40:47.663Z</time>
      </trkpt>
      <trkpt lat="44.81462" lon="4.26356">
        <ele>1369.42</ele>
        <time>2022-10-04T07:40:56.967Z</time>
      </trkpt>
      <trkpt lat="44.81454" lon="4.26342">
        <ele>1369.79</ele>
        <time>2022-10-04T07:41:06.999Z</time>
      </trkpt>
      <trkpt lat="44.81453" lon="4.26321">
        <ele>1370.99</ele>
        <time>2022-10-04T07:41:16.191Z</time>
      </trkpt>
      <trkpt lat="44.81453" lon="4.26302">
        <ele>1371.69</ele>
        <time>2022-10-04T07:41:25.331Z</time>
      </trkpt>
      <trkpt lat="44.81457" lon="4.26285">
        <ele>1372.36</ele>
        <time>2022-10-04T07:41:34.508Z</time>
      </trkpt>
      <trkpt lat="44.81466" lon="4.26271">
        <ele>1373.64</ele>
        <time>2022-10-04T07:41:43.800Z</time>
      </trkpt>
      <trkpt lat="44.81473" lon="4.26256">
        <ele>1374.38</ele>
        <time>2022-10-04T07:41:53.506Z</time>
      </trkpt>
      <trkpt lat="44.81481" lon="4.26241">
        <ele>1375.03</ele>
        <time>2022-10-04T07:42:02.625Z</time>
      </trkpt>
      <trkpt lat="44.81486" lon="4.26224">
        <ele>1374.71</ele>
        <time>2022-10-04T07:42:11.704Z</time>
      </trkpt>
      <trkpt lat="44.81492" lon="4.26209">
        <ele>1374.26</ele>
        <time>2022-10-04T07:42:21.053Z</time>
      </trkpt>
      <trkpt lat="44.81498" lon="4.26191">
        <ele>1373.39</ele>
        <time>2022-10-04T07:42:30.570Z</time>
      </trkpt>
      <trkpt lat="44.81505" lon="4.2618">
        <ele>1373.5</ele>
        <time>2022-10-04T07:42:39.999Z</time>
      </trkpt>
      <trkpt lat="44.81515" lon="4.26164">
        <ele>1373.98</ele>
        <time>2022-10-04T07:42:49.222Z</time>
      </trkpt>
      <trkpt lat="44.81524" lon="4.26152">
        <ele>1374.93</ele>
        <time>2022-10-04T07:42:58.588Z</time>
      </trkpt>
      <trkpt lat="44.81533" lon="4.26139">
        <ele>1375.92</ele>
        <time>2022-10-04T07:43:08.028Z</time>
      </trkpt>
      <trkpt lat="44.81541" lon="4.26125">
        <ele>1376.72</ele>
        <time>2022-10-04T07:43:17.385Z</time>
      </trkpt>
      <trkpt lat="44.8155" lon="4.26117">
        <ele>1378.01</ele>
        <time>2022-10-04T07:43:26.865Z</time>
      </trkpt>
      <trkpt lat="44.8156" lon="4.2612">
        <ele>1379.59</ele>
        <time>2022-10-04T07:43:36.084Z</time>
      </trkpt>
      <trkpt lat="44.81569" lon="4.26119">
        <ele>1381</ele>
        <time>2022-10-04T07:43:45.111Z</time>
      </trkpt>
      <trkpt lat="44.81578" lon="4.26123">
        <ele>1382.57</ele>
        <time>2022-10-04T07:43:54.783Z</time>
      </trkpt>
      <trkpt lat="44.8158" lon="4.2611">
        <ele>1382.59</ele>
        <time>2022-10-04T07:44:05.901Z</time>
      </trkpt>
      <trkpt lat="44.81585" lon="4.26093">
        <ele>1383.3</ele>
        <time>2022-10-04T07:44:15.209Z</time>
      </trkpt>
      <trkpt lat="44.81591" lon="4.26078">
        <ele>1384.6</ele>
        <time>2022-10-04T07:44:24.469Z</time>
      </trkpt>
      <trkpt lat="44.81597" lon="4.26062">
        <ele>1385.88</ele>
        <time>2022-10-04T07:44:33.787Z</time>
      </trkpt>
      <trkpt lat="44.81603" lon="4.26049">
        <ele>1387.61</ele>
        <time>2022-10-04T07:44:43.201Z</time>
      </trkpt>
      <trkpt lat="44.8161" lon="4.26035">
        <ele>1389.45</ele>
        <time>2022-10-04T07:44:53.999Z</time>
      </trkpt>
      <trkpt lat="44.81616" lon="4.26017">
        <ele>1391.05</ele>
        <time>2022-10-04T07:45:03.211Z</time>
      </trkpt>
      <trkpt lat="44.81621" lon="4.26006">
        <ele>1392.1</ele>
        <time>2022-10-04T07:46:08.590Z</time>
      </trkpt>
      <trkpt lat="44.81626" lon="4.25987">
        <ele>1392.94</ele>
        <time>2022-10-04T07:46:17.809Z</time>
      </trkpt>
      <trkpt lat="44.81627" lon="4.25969">
        <ele>1392.97</ele>
        <time>2022-10-04T07:46:28.000Z</time>
      </trkpt>
      <trkpt lat="44.81628" lon="4.25948">
        <ele>1392.73</ele>
        <time>2022-10-04T07:46:37.246Z</time>
      </trkpt>
      <trkpt lat="44.81632" lon="4.25931">
        <ele>1393.09</ele>
        <time>2022-10-04T07:46:46.524Z</time>
      </trkpt>
      <trkpt lat="44.81638" lon="4.25917">
        <ele>1393.68</ele>
        <time>2022-10-04T07:46:57.000Z</time>
      </trkpt>
      <trkpt lat="44.81644" lon="4.259">
        <ele>1393.93</ele>
        <time>2022-10-04T07:47:06.108Z</time>
      </trkpt>
      <trkpt lat="44.8165" lon="4.25885">
        <ele>1394.09</ele>
        <time>2022-10-04T07:47:15.153Z</time>
      </trkpt>
      <trkpt lat="44.81656" lon="4.2587">
        <ele>1394.09</ele>
        <time>2022-10-04T07:47:25.000Z</time>
      </trkpt>
      <trkpt lat="44.8166" lon="4.25857">
        <ele>1393.75</ele>
        <time>2022-10-04T07:47:54.555Z</time>
      </trkpt>
      <trkpt lat="44.81666" lon="4.25847">
        <ele>1394.03</ele>
        <time>2022-10-04T07:48:04.189Z</time>
      </trkpt>
      <trkpt lat="44.81672" lon="4.25836">
        <ele>1394.16</ele>
        <time>2022-10-04T07:48:13.750Z</time>
      </trkpt>
      <trkpt lat="44.81678" lon="4.2582">
        <ele>1393.89</ele>
        <time>2022-10-04T07:48:23.207Z</time>
      </trkpt>
      <trkpt lat="44.81683" lon="4.25802">
        <ele>1393.34</ele>
        <time>2022-10-04T07:48:32.608Z</time>
      </trkpt>
      <trkpt lat="44.81688" lon="4.25787">
        <ele>1392.85</ele>
        <time>2022-10-04T07:48:42.000Z</time>
      </trkpt>
      <trkpt lat="44.81695" lon="4.25771">
        <ele>1392.61</ele>
        <time>2022-10-04T07:48:51.204Z</time>
      </trkpt>
      <trkpt lat="44.81699" lon="4.25755">
        <ele>1391.91</ele>
        <time>2022-10-04T07:49:00.624Z</time>
      </trkpt>
      <trkpt lat="44.81707" lon="4.25738">
        <ele>1391.73</ele>
        <time>2022-10-04T07:49:10.542Z</time>
      </trkpt>
      <trkpt lat="44.81714" lon="4.25723">
        <ele>1391.51</ele>
        <time>2022-10-04T07:49:19.612Z</time>
      </trkpt>
      <trkpt lat="44.81721" lon="4.2571">
        <ele>1391.67</ele>
        <time>2022-10-04T07:49:28.869Z</time>
      </trkpt>
      <trkpt lat="44.8173" lon="4.25696">
        <ele>1392.19</ele>
        <time>2022-10-04T07:49:37.969Z</time>
      </trkpt>
      <trkpt lat="44.81736" lon="4.25685">
        <ele>1392.4</ele>
        <time>2022-10-04T07:49:47.000Z</time>
      </trkpt>
      <trkpt lat="44.81738" lon="4.25664">
        <ele>1391.37</ele>
        <time>2022-10-04T07:49:56.787Z</time>
      </trkpt>
      <trkpt lat="44.81741" lon="4.25648">
        <ele>1391.2</ele>
        <time>2022-10-04T07:50:06.000Z</time>
      </trkpt>
      <trkpt lat="44.81747" lon="4.25629">
        <ele>1391.63</ele>
        <time>2022-10-04T07:50:15.667Z</time>
      </trkpt>
      <trkpt lat="44.81753" lon="4.25613">
        <ele>1392.42</ele>
        <time>2022-10-04T07:50:26.000Z</time>
      </trkpt>
      <trkpt lat="44.81755" lon="4.25594">
        <ele>1392.49</ele>
        <time>2022-10-04T07:50:35.323Z</time>
      </trkpt>
      <trkpt lat="44.81759" lon="4.25577">
        <ele>1393.04</ele>
        <time>2022-10-04T07:50:44.622Z</time>
      </trkpt>
      <trkpt lat="44.81761" lon="4.25559">
        <ele>1393.55</ele>
        <time>2022-10-04T07:50:53.736Z</time>
      </trkpt>
      <trkpt lat="44.81763" lon="4.25544">
        <ele>1393.95</ele>
        <time>2022-10-04T07:51:02.752Z</time>
      </trkpt>
      <trkpt lat="44.81766" lon="4.25531">
        <ele>1394.91</ele>
        <time>2022-10-04T07:51:12.000Z</time>
      </trkpt>
      <trkpt lat="44.81768" lon="4.25512">
        <ele>1395.46</ele>
        <time>2022-10-04T07:51:21.212Z</time>
      </trkpt>
      <trkpt lat="44.81771" lon="4.25495">
        <ele>1396.75</ele>
        <time>2022-10-04T07:51:30.648Z</time>
      </trkpt>
      <trkpt lat="44.81773" lon="4.25481">
        <ele>1397.65</ele>
        <time>2022-10-04T07:51:39.704Z</time>
      </trkpt>
      <trkpt lat="44.81774" lon="4.25465">
        <ele>1398.26</ele>
        <time>2022-10-04T07:51:49.485Z</time>
      </trkpt>
      <trkpt lat="44.81772" lon="4.25445">
        <ele>1398.59</ele>
        <time>2022-10-04T07:51:58.825Z</time>
      </trkpt>
      <trkpt lat="44.8177" lon="4.25427">
        <ele>1398.77</ele>
        <time>2022-10-04T07:52:08.344Z</time>
      </trkpt>
      <trkpt lat="44.81773" lon="4.2541">
        <ele>1399.83</ele>
        <time>2022-10-04T07:52:17.592Z</time>
      </trkpt>
      <trkpt lat="44.81772" lon="4.25392">
        <ele>1399.86</ele>
        <time>2022-10-04T07:52:27.272Z</time>
      </trkpt>
      <trkpt lat="44.8177" lon="4.25376">
        <ele>1399.79</ele>
        <time>2022-10-04T07:52:36.390Z</time>
      </trkpt>
      <trkpt lat="44.81775" lon="4.25363">
        <ele>1401.02</ele>
        <time>2022-10-04T07:52:45.468Z</time>
      </trkpt>
      <trkpt lat="44.81774" lon="4.25349">
        <ele>1401.1</ele>
        <time>2022-10-04T07:52:55.727Z</time>
      </trkpt>
      <trkpt lat="44.81771" lon="4.25333">
        <ele>1400.74</ele>
        <time>2022-10-04T07:53:04.824Z</time>
      </trkpt>
      <trkpt lat="44.81774" lon="4.25313">
        <ele>1402.09</ele>
        <time>2022-10-04T07:53:13.890Z</time>
      </trkpt>
      <trkpt lat="44.81771" lon="4.25295">
        <ele>1402.08</ele>
        <time>2022-10-04T07:53:23.488Z</time>
      </trkpt>
      <trkpt lat="44.81769" lon="4.25275">
        <ele>1402.69</ele>
        <time>2022-10-04T07:53:32.813Z</time>
      </trkpt>
      <trkpt lat="44.81766" lon="4.25258">
        <ele>1403.02</ele>
        <time>2022-10-04T07:53:42.250Z</time>
      </trkpt>
      <trkpt lat="44.81766" lon="4.2524">
        <ele>1403.92</ele>
        <time>2022-10-04T07:53:51.591Z</time>
      </trkpt>
      <trkpt lat="44.81767" lon="4.25223">
        <ele>1405.38</ele>
        <time>2022-10-04T07:54:01.091Z</time>
      </trkpt>
      <trkpt lat="44.81767" lon="4.25205">
        <ele>1406.68</ele>
        <time>2022-10-04T07:54:10.489Z</time>
      </trkpt>
      <trkpt lat="44.8176" lon="4.25192">
        <ele>1406.28</ele>
        <time>2022-10-04T07:54:20.487Z</time>
      </trkpt>
      <trkpt lat="44.81748" lon="4.25186">
        <ele>1404.13</ele>
        <time>2022-10-04T07:54:29.947Z</time>
      </trkpt>
      <trkpt lat="44.81742" lon="4.25173">
        <ele>1403.71</ele>
        <time>2022-10-04T07:54:39.185Z</time>
      </trkpt>
      <trkpt lat="44.81738" lon="4.25159">
        <ele>1403.85</ele>
        <time>2022-10-04T07:54:48.604Z</time>
      </trkpt>
      <trkpt lat="44.8173" lon="4.25149">
        <ele>1402.8</ele>
        <time>2022-10-04T07:54:57.912Z</time>
      </trkpt>
      <trkpt lat="44.81721" lon="4.25139">
        <ele>1401.58</ele>
        <time>2022-10-04T07:55:07.268Z</time>
      </trkpt>
      <trkpt lat="44.81713" lon="4.25125">
        <ele>1400.95</ele>
        <time>2022-10-04T07:55:16.999Z</time>
      </trkpt>
      <trkpt lat="44.81707" lon="4.25103">
        <ele>1401.35</ele>
        <time>2022-10-04T07:55:26.889Z</time>
      </trkpt>
      <trkpt lat="44.81711" lon="4.25088">
        <ele>1403.27</ele>
        <time>2022-10-04T07:55:35.999Z</time>
      </trkpt>
      <trkpt lat="44.81717" lon="4.2507">
        <ele>1405.48</ele>
        <time>2022-10-04T07:55:45.264Z</time>
      </trkpt>
      <trkpt lat="44.81721" lon="4.25053">
        <ele>1406.83</ele>
        <time>2022-10-04T07:55:54.687Z</time>
      </trkpt>
      <trkpt lat="44.81723" lon="4.25036">
        <ele>1407.74</ele>
        <time>2022-10-04T07:56:03.943Z</time>
      </trkpt>
      <trkpt lat="44.81726" lon="4.25018">
        <ele>1408.97</ele>
        <time>2022-10-04T07:56:13.189Z</time>
      </trkpt>
      <trkpt lat="44.81731" lon="4.25003">
        <ele>1410.77</ele>
        <time>2022-10-04T07:56:22.413Z</time>
      </trkpt>
      <trkpt lat="44.81734" lon="4.24991">
        <ele>1412.26</ele>
        <time>2022-10-04T07:56:32.831Z</time>
      </trkpt>
      <trkpt lat="44.81742" lon="4.24976">
        <ele>1415.21</ele>
        <time>2022-10-04T07:56:42.652Z</time>
      </trkpt>
      <trkpt lat="44.81744" lon="4.24963">
        <ele>1416.83</ele>
        <time>2022-10-04T07:56:55.889Z</time>
      </trkpt>
      <trkpt lat="44.81739" lon="4.24952">
        <ele>1417.2</ele>
        <time>2022-10-04T07:58:06.030Z</time>
      </trkpt>
      <trkpt lat="44.8173" lon="4.24937">
        <ele>1417.77</ele>
        <time>2022-10-04T07:58:15.588Z</time>
      </trkpt>
      <trkpt lat="44.81725" lon="4.24924">
        <ele>1418.78</ele>
        <time>2022-10-04T07:58:24.649Z</time>
      </trkpt>
      <trkpt lat="44.81721" lon="4.24908">
        <ele>1420.22</ele>
        <time>2022-10-04T07:58:34.267Z</time>
      </trkpt>
      <trkpt lat="44.81712" lon="4.24902">
        <ele>1420.25</ele>
        <time>2022-10-04T07:58:43.999Z</time>
      </trkpt>
      <trkpt lat="44.81701" lon="4.24893">
        <ele>1420.3</ele>
        <time>2022-10-04T07:58:53.344Z</time>
      </trkpt>
      <trkpt lat="44.81691" lon="4.24886">
        <ele>1420.02</ele>
        <time>2022-10-04T07:59:02.443Z</time>
      </trkpt>
      <trkpt lat="44.81684" lon="4.24873">
        <ele>1420.3</ele>
        <time>2022-10-04T07:59:12.999Z</time>
      </trkpt>
      <trkpt lat="44.8168" lon="4.24851">
        <ele>1421.34</ele>
        <time>2022-10-04T07:59:22.572Z</time>
      </trkpt>
      <trkpt lat="44.81676" lon="4.24833">
        <ele>1421.4</ele>
        <time>2022-10-04T07:59:32.999Z</time>
      </trkpt>
      <trkpt lat="44.81671" lon="4.24814">
        <ele>1420.97</ele>
        <time>2022-10-04T07:59:42.507Z</time>
      </trkpt>
      <trkpt lat="44.81668" lon="4.24795">
        <ele>1420.04</ele>
        <time>2022-10-04T07:59:51.927Z</time>
      </trkpt>
      <trkpt lat="44.81663" lon="4.24778">
        <ele>1418.72</ele>
        <time>2022-10-04T08:00:01.225Z</time>
      </trkpt>
      <trkpt lat="44.81659" lon="4.2476">
        <ele>1417.47</ele>
        <time>2022-10-04T08:00:10.704Z</time>
      </trkpt>
      <trkpt lat="44.81657" lon="4.24742">
        <ele>1416.37</ele>
        <time>2022-10-04T08:00:20.042Z</time>
      </trkpt>
      <trkpt lat="44.81652" lon="4.24725">
        <ele>1415.05</ele>
        <time>2022-10-04T08:00:29.363Z</time>
      </trkpt>
      <trkpt lat="44.81645" lon="4.24711">
        <ele>1413.69</ele>
        <time>2022-10-04T08:00:38.744Z</time>
      </trkpt>
      <trkpt lat="44.81638" lon="4.24697">
        <ele>1412.63</ele>
        <time>2022-10-04T08:00:47.784Z</time>
      </trkpt>
      <trkpt lat="44.81629" lon="4.24685">
        <ele>1411.91</ele>
        <time>2022-10-04T08:00:57.152Z</time>
      </trkpt>
      <trkpt lat="44.81618" lon="4.24685">
        <ele>1411.37</ele>
        <time>2022-10-04T08:01:06.371Z</time>
      </trkpt>
      <trkpt lat="44.81611" lon="4.24672">
        <ele>1411.24</ele>
        <time>2022-10-04T08:01:15.489Z</time>
      </trkpt>
      <trkpt lat="44.81605" lon="4.24662">
        <ele>1411.25</ele>
        <time>2022-10-04T08:01:24.789Z</time>
      </trkpt>
      <trkpt lat="44.81597" lon="4.24655">
        <ele>1411.34</ele>
        <time>2022-10-04T08:01:34.728Z</time>
      </trkpt>
      <trkpt lat="44.8159" lon="4.24646">
        <ele>1411.6</ele>
        <time>2022-10-04T08:01:43.999Z</time>
      </trkpt>
      <trkpt lat="44.81581" lon="4.24633">
        <ele>1412.1</ele>
        <time>2022-10-04T08:01:53.066Z</time>
      </trkpt>
      <trkpt lat="44.8157" lon="4.24624">
        <ele>1412.34</ele>
        <time>2022-10-04T08:02:02.412Z</time>
      </trkpt>
      <trkpt lat="44.81565" lon="4.24608">
        <ele>1413.18</ele>
        <time>2022-10-04T08:02:11.886Z</time>
      </trkpt>
      <trkpt lat="44.81555" lon="4.24598">
        <ele>1413.29</ele>
        <time>2022-10-04T08:02:21.304Z</time>
      </trkpt>
      <trkpt lat="44.81545" lon="4.24589">
        <ele>1413.18</ele>
        <time>2022-10-04T08:02:30.884Z</time>
      </trkpt>
      <trkpt lat="44.81536" lon="4.24587">
        <ele>1412.69</ele>
        <time>2022-10-04T08:02:40.464Z</time>
      </trkpt>
      <trkpt lat="44.81526" lon="4.24584">
        <ele>1412.16</ele>
        <time>2022-10-04T08:02:49.812Z</time>
      </trkpt>
      <trkpt lat="44.81517" lon="4.24579">
        <ele>1411.69</ele>
        <time>2022-10-04T08:02:59.000Z</time>
      </trkpt>
      <trkpt lat="44.81505" lon="4.24566">
        <ele>1411.34</ele>
        <time>2022-10-04T08:03:08.533Z</time>
      </trkpt>
      <trkpt lat="44.81497" lon="4.2455">
        <ele>1411.38</ele>
        <time>2022-10-04T08:03:19.000Z</time>
      </trkpt>
      <trkpt lat="44.81486" lon="4.24539">
        <ele>1411.06</ele>
        <time>2022-10-04T08:03:28.429Z</time>
      </trkpt>
      <trkpt lat="44.81478" lon="4.24528">
        <ele>1410.9</ele>
        <time>2022-10-04T08:03:37.902Z</time>
      </trkpt>
      <trkpt lat="44.81468" lon="4.24521">
        <ele>1410.61</ele>
        <time>2022-10-04T08:03:47.000Z</time>
      </trkpt>
      <trkpt lat="44.81455" lon="4.24511">
        <ele>1410.17</ele>
        <time>2022-10-04T08:03:56.547Z</time>
      </trkpt>
      <trkpt lat="44.81444" lon="4.24505">
        <ele>1409.72</ele>
        <time>2022-10-04T08:04:05.568Z</time>
      </trkpt>
      <trkpt lat="44.81432" lon="4.24495">
        <ele>1409.17</ele>
        <time>2022-10-04T08:04:14.886Z</time>
      </trkpt>
      <trkpt lat="44.8142" lon="4.24491">
        <ele>1408.41</ele>
        <time>2022-10-04T08:04:24.444Z</time>
      </trkpt>
      <trkpt lat="44.81409" lon="4.24487">
        <ele>1407.64</ele>
        <time>2022-10-04T08:04:34.000Z</time>
      </trkpt>
      <trkpt lat="44.81394" lon="4.2448">
        <ele>1406.38</ele>
        <time>2022-10-04T08:04:43.491Z</time>
      </trkpt>
      <trkpt lat="44.81385" lon="4.24472">
        <ele>1405.62</ele>
        <time>2022-10-04T08:04:52.910Z</time>
      </trkpt>
      <trkpt lat="44.81375" lon="4.24464">
        <ele>1404.77</ele>
        <time>2022-10-04T08:05:03.000Z</time>
      </trkpt>
      <trkpt lat="44.81363" lon="4.24457">
        <ele>1403.8</ele>
        <time>2022-10-04T08:05:13.000Z</time>
      </trkpt>
      <trkpt lat="44.81351" lon="4.24451">
        <ele>1402.96</ele>
        <time>2022-10-04T08:05:23.000Z</time>
      </trkpt>
      <trkpt lat="44.81342" lon="4.24438">
        <ele>1402.54</ele>
        <time>2022-10-04T08:05:32.124Z</time>
      </trkpt>
      <trkpt lat="44.8134" lon="4.24424">
        <ele>1402.38</ele>
        <time>2022-10-04T08:05:42.443Z</time>
      </trkpt>
      <trkpt lat="44.81346" lon="4.24411">
        <ele>1402.1</ele>
        <time>2022-10-04T08:05:52.000Z</time>
      </trkpt>
      <trkpt lat="44.81358" lon="4.24397">
        <ele>1401.17</ele>
        <time>2022-10-04T08:06:02.000Z</time>
      </trkpt>
      <trkpt lat="44.8137" lon="4.24387">
        <ele>1400.05</ele>
        <time>2022-10-04T08:06:11.771Z</time>
      </trkpt>
      <trkpt lat="44.81384" lon="4.24385">
        <ele>1399.79</ele>
        <time>2022-10-04T08:06:21.212Z</time>
      </trkpt>
      <trkpt lat="44.81395" lon="4.24381">
        <ele>1399.1</ele>
        <time>2022-10-04T08:06:30.430Z</time>
      </trkpt>
      <trkpt lat="44.81408" lon="4.2438">
        <ele>1398.66</ele>
        <time>2022-10-04T08:06:39.749Z</time>
      </trkpt>
      <trkpt lat="44.8142" lon="4.24377">
        <ele>1397.81</ele>
        <time>2022-10-04T08:06:48.964Z</time>
      </trkpt>
      <trkpt lat="44.81431" lon="4.24375">
        <ele>1397.21</ele>
        <time>2022-10-04T08:06:58.000Z</time>
      </trkpt>
      <trkpt lat="44.81446" lon="4.24381">
        <ele>1397.72</ele>
        <time>2022-10-04T08:07:07.442Z</time>
      </trkpt>
      <trkpt lat="44.81458" lon="4.24385">
        <ele>1397.96</ele>
        <time>2022-10-04T08:07:16.761Z</time>
      </trkpt>
      <trkpt lat="44.81468" lon="4.24385">
        <ele>1397.53</ele>
        <time>2022-10-04T08:07:26.000Z</time>
      </trkpt>
      <trkpt lat="44.81481" lon="4.24377">
        <ele>1395.3</ele>
        <time>2022-10-04T08:07:35.249Z</time>
      </trkpt>
      <trkpt lat="44.81493" lon="4.24375">
        <ele>1394.47</ele>
        <time>2022-10-04T08:07:44.689Z</time>
      </trkpt>
      <trkpt lat="44.81506" lon="4.2437">
        <ele>1392.79</ele>
        <time>2022-10-04T08:07:53.867Z</time>
      </trkpt>
      <trkpt lat="44.81518" lon="4.2437">
        <ele>1392.46</ele>
        <time>2022-10-04T08:08:03.000Z</time>
      </trkpt>
      <trkpt lat="44.81535" lon="4.24375">
        <ele>1392.98</ele>
        <time>2022-10-04T08:08:12.405Z</time>
      </trkpt>
      <trkpt lat="44.81549" lon="4.2438">
        <ele>1393.47</ele>
        <time>2022-10-04T08:08:21.564Z</time>
      </trkpt>
      <trkpt lat="44.81561" lon="4.24381">
        <ele>1393.11</ele>
        <time>2022-10-04T08:08:30.603Z</time>
      </trkpt>
      <trkpt lat="44.81574" lon="4.24381">
        <ele>1392.41</ele>
        <time>2022-10-04T08:08:39.791Z</time>
      </trkpt>
      <trkpt lat="44.81586" lon="4.24383">
        <ele>1392.12</ele>
        <time>2022-10-04T08:08:49.000Z</time>
      </trkpt>
      <trkpt lat="44.81601" lon="4.24382">
        <ele>1390.99</ele>
        <time>2022-10-04T08:08:58.830Z</time>
      </trkpt>
      <trkpt lat="44.81611" lon="4.24382">
        <ele>1390.16</ele>
        <time>2022-10-04T08:09:08.000Z</time>
      </trkpt>
      <trkpt lat="44.81625" lon="4.24383">
        <ele>1389.2</ele>
        <time>2022-10-04T08:09:17.728Z</time>
      </trkpt>
      <trkpt lat="44.81637" lon="4.24383">
        <ele>1388.19</ele>
        <time>2022-10-04T08:09:28.000Z</time>
      </trkpt>
      <trkpt lat="44.81651" lon="4.24382">
        <ele>1386.86</ele>
        <time>2022-10-04T08:09:37.743Z</time>
      </trkpt>
      <trkpt lat="44.81663" lon="4.24381">
        <ele>1385.82</ele>
        <time>2022-10-04T08:09:47.063Z</time>
      </trkpt>
      <trkpt lat="44.81675" lon="4.24378">
        <ele>1384.58</ele>
        <time>2022-10-04T08:09:56.206Z</time>
      </trkpt>
      <trkpt lat="44.81689" lon="4.24378">
        <ele>1383.6</ele>
        <time>2022-10-04T08:10:07.000Z</time>
      </trkpt>
      <trkpt lat="44.81702" lon="4.24379">
        <ele>1382.69</ele>
        <time>2022-10-04T08:10:16.552Z</time>
      </trkpt>
      <trkpt lat="44.81715" lon="4.24379">
        <ele>1381.8</ele>
        <time>2022-10-04T08:10:25.828Z</time>
      </trkpt>
      <trkpt lat="44.81727" lon="4.24378">
        <ele>1380.94</ele>
        <time>2022-10-04T08:10:35.189Z</time>
      </trkpt>
      <trkpt lat="44.81736" lon="4.24381">
        <ele>1380.53</ele>
        <time>2022-10-04T08:10:54.728Z</time>
      </trkpt>
      <trkpt lat="44.81745" lon="4.24379">
        <ele>1379.86</ele>
        <time>2022-10-04T08:11:03.907Z</time>
      </trkpt>
      <trkpt lat="44.81758" lon="4.24378">
        <ele>1379.16</ele>
        <time>2022-10-04T08:11:13.085Z</time>
      </trkpt>
      <trkpt lat="44.81771" lon="4.24376">
        <ele>1378.5</ele>
        <time>2022-10-04T08:11:22.567Z</time>
      </trkpt>
      <trkpt lat="44.81782" lon="4.24372">
        <ele>1377.89</ele>
        <time>2022-10-04T08:11:32.493Z</time>
      </trkpt>
      <trkpt lat="44.81794" lon="4.24369">
        <ele>1377.41</ele>
        <time>2022-10-04T08:11:41.626Z</time>
      </trkpt>
      <trkpt lat="44.81805" lon="4.24372">
        <ele>1377.17</ele>
        <time>2022-10-04T08:11:50.684Z</time>
      </trkpt>
      <trkpt lat="44.81816" lon="4.24364">
        <ele>1376.59</ele>
        <time>2022-10-04T08:12:00.206Z</time>
      </trkpt>
      <trkpt lat="44.81827" lon="4.24354">
        <ele>1375.91</ele>
        <time>2022-10-04T08:12:09.753Z</time>
      </trkpt>
      <trkpt lat="44.81838" lon="4.24345">
        <ele>1375.21</ele>
        <time>2022-10-04T08:12:19.652Z</time>
      </trkpt>
      <trkpt lat="44.81847" lon="4.24333">
        <ele>1374.46</ele>
        <time>2022-10-04T08:12:29.110Z</time>
      </trkpt>
      <trkpt lat="44.81856" lon="4.24322">
        <ele>1373.66</ele>
        <time>2022-10-04T08:12:38.129Z</time>
      </trkpt>
      <trkpt lat="44.81866" lon="4.24312">
        <ele>1372.74</ele>
        <time>2022-10-04T08:12:47.488Z</time>
      </trkpt>
      <trkpt lat="44.81876" lon="4.243">
        <ele>1371.75</ele>
        <time>2022-10-04T08:12:56.768Z</time>
      </trkpt>
      <trkpt lat="44.81883" lon="4.24286">
        <ele>1370.82</ele>
        <time>2022-10-04T08:13:06.999Z</time>
      </trkpt>
      <trkpt lat="44.81891" lon="4.24268">
        <ele>1369.73</ele>
        <time>2022-10-04T08:13:16.464Z</time>
      </trkpt>
      <trkpt lat="44.81899" lon="4.24253">
        <ele>1368.92</ele>
        <time>2022-10-04T08:13:26.999Z</time>
      </trkpt>
      <trkpt lat="44.81902" lon="4.24235">
        <ele>1368.71</ele>
        <time>2022-10-04T08:13:36.471Z</time>
      </trkpt>
      <trkpt lat="44.81895" lon="4.24219">
        <ele>1369.17</ele>
        <time>2022-10-04T08:13:45.948Z</time>
      </trkpt>
      <trkpt lat="44.81904" lon="4.24204">
        <ele>1369.3</ele>
        <time>2022-10-04T08:13:55.368Z</time>
      </trkpt>
      <trkpt lat="44.81911" lon="4.2419">
        <ele>1369.6</ele>
        <time>2022-10-04T08:14:04.828Z</time>
      </trkpt>
      <trkpt lat="44.81918" lon="4.24174">
        <ele>1369.96</ele>
        <time>2022-10-04T08:14:14.127Z</time>
      </trkpt>
      <trkpt lat="44.81927" lon="4.2416">
        <ele>1370.14</ele>
        <time>2022-10-04T08:14:23.463Z</time>
      </trkpt>
      <trkpt lat="44.81935" lon="4.24146">
        <ele>1370.21</ele>
        <time>2022-10-04T08:14:33.999Z</time>
      </trkpt>
      <trkpt lat="44.81946" lon="4.24133">
        <ele>1370.3</ele>
        <time>2022-10-04T08:14:43.387Z</time>
      </trkpt>
      <trkpt lat="44.81956" lon="4.24123">
        <ele>1370.4</ele>
        <time>2022-10-04T08:14:53.999Z</time>
      </trkpt>
      <trkpt lat="44.81967" lon="4.24112">
        <ele>1370.53</ele>
        <time>2022-10-04T08:15:03.571Z</time>
      </trkpt>
      <trkpt lat="44.81978" lon="4.24101">
        <ele>1370.64</ele>
        <time>2022-10-04T08:15:13.450Z</time>
      </trkpt>
      <trkpt lat="44.81989" lon="4.2409">
        <ele>1370.79</ele>
        <time>2022-10-04T08:15:22.851Z</time>
      </trkpt>
      <trkpt lat="44.82" lon="4.24079">
        <ele>1371</ele>
        <time>2022-10-04T08:15:32.288Z</time>
      </trkpt>
      <trkpt lat="44.82009" lon="4.24069">
        <ele>1371.19</ele>
        <time>2022-10-04T08:15:41.999Z</time>
      </trkpt>
      <trkpt lat="44.8202" lon="4.24056">
        <ele>1371.45</ele>
        <time>2022-10-04T08:15:51.202Z</time>
      </trkpt>
      <trkpt lat="44.8203" lon="4.24044">
        <ele>1371.7</ele>
        <time>2022-10-04T08:16:00.630Z</time>
      </trkpt>
      <trkpt lat="44.82039" lon="4.24033">
        <ele>1371.96</ele>
        <time>2022-10-04T08:16:09.668Z</time>
      </trkpt>
      <trkpt lat="44.82047" lon="4.24022">
        <ele>1372.2</ele>
        <time>2022-10-04T08:16:18.999Z</time>
      </trkpt>
      <trkpt lat="44.82058" lon="4.24009">
        <ele>1372.52</ele>
        <time>2022-10-04T08:16:28.068Z</time>
      </trkpt>
      <trkpt lat="44.82066" lon="4.23997">
        <ele>1372.8</ele>
        <time>2022-10-04T08:16:37.523Z</time>
      </trkpt>
      <trkpt lat="44.82075" lon="4.23985">
        <ele>1373.11</ele>
        <time>2022-10-04T08:16:47.565Z</time>
      </trkpt>
      <trkpt lat="44.82083" lon="4.2397">
        <ele>1373.47</ele>
        <time>2022-10-04T08:16:57.999Z</time>
      </trkpt>
      <trkpt lat="44.82093" lon="4.23958">
        <ele>1373.85</ele>
        <time>2022-10-04T08:17:07.091Z</time>
      </trkpt>
      <trkpt lat="44.821" lon="4.23946">
        <ele>1374.18</ele>
        <time>2022-10-04T08:17:24.711Z</time>
      </trkpt>
      <trkpt lat="44.8211" lon="4.2393">
        <ele>1374.66</ele>
        <time>2022-10-04T08:17:34.789Z</time>
      </trkpt>
      <trkpt lat="44.82118" lon="4.23915">
        <ele>1375.09</ele>
        <time>2022-10-04T08:17:44.609Z</time>
      </trkpt>
      <trkpt lat="44.82126" lon="4.23899">
        <ele>1375.53</ele>
        <time>2022-10-04T08:17:54.547Z</time>
      </trkpt>
      <trkpt lat="44.82133" lon="4.23885">
        <ele>1375.96</ele>
        <time>2022-10-04T08:18:03.906Z</time>
      </trkpt>
      <trkpt lat="44.82141" lon="4.2387">
        <ele>1376.44</ele>
        <time>2022-10-04T08:18:13.447Z</time>
      </trkpt>
      <trkpt lat="44.82147" lon="4.23854">
        <ele>1376.9</ele>
        <time>2022-10-04T08:18:23.999Z</time>
      </trkpt>
      <trkpt lat="44.82154" lon="4.23841">
        <ele>1377.36</ele>
        <time>2022-10-04T08:18:33.000Z</time>
      </trkpt>
      <trkpt lat="44.82162" lon="4.23825">
        <ele>1377.94</ele>
        <time>2022-10-04T08:18:42.294Z</time>
      </trkpt>
      <trkpt lat="44.82168" lon="4.2381">
        <ele>1378.4</ele>
        <time>2022-10-04T08:18:51.712Z</time>
      </trkpt>
      <trkpt lat="44.82175" lon="4.23795">
        <ele>1378.83</ele>
        <time>2022-10-04T08:19:02.000Z</time>
      </trkpt>
      <trkpt lat="44.82182" lon="4.23778">
        <ele>1379.29</ele>
        <time>2022-10-04T08:19:12.000Z</time>
      </trkpt>
      <trkpt lat="44.82188" lon="4.23761">
        <ele>1379.8</ele>
        <time>2022-10-04T08:19:22.000Z</time>
      </trkpt>
      <trkpt lat="44.82194" lon="4.23743">
        <ele>1380.49</ele>
        <time>2022-10-04T08:19:31.311Z</time>
      </trkpt>
      <trkpt lat="44.822" lon="4.23728">
        <ele>1381.11</ele>
        <time>2022-10-04T08:19:40.489Z</time>
      </trkpt>
      <trkpt lat="44.82204" lon="4.23713">
        <ele>1381.73</ele>
        <time>2022-10-04T08:19:49.727Z</time>
      </trkpt>
      <trkpt lat="44.82209" lon="4.237">
        <ele>1382.34</ele>
        <time>2022-10-04T08:20:18.865Z</time>
      </trkpt>
      <trkpt lat="44.82211" lon="4.23688">
        <ele>1382.8</ele>
        <time>2022-10-04T08:20:28.000Z</time>
      </trkpt>
      <trkpt lat="44.82207" lon="4.23701">
        <ele>1382.22</ele>
        <time>2022-10-04T08:20:59.868Z</time>
      </trkpt>
      <trkpt lat="44.8221" lon="4.23685">
        <ele>1382.85</ele>
        <time>2022-10-04T08:21:33.587Z</time>
      </trkpt>
      <trkpt lat="44.82216" lon="4.23667">
        <ele>1383.7</ele>
        <time>2022-10-04T08:21:42.863Z</time>
      </trkpt>
      <trkpt lat="44.82221" lon="4.23651">
        <ele>1384.57</ele>
        <time>2022-10-04T08:21:52.061Z</time>
      </trkpt>
      <trkpt lat="44.82226" lon="4.23636">
        <ele>1385.42</ele>
        <time>2022-10-04T08:22:01.150Z</time>
      </trkpt>
      <trkpt lat="44.82224" lon="4.23622">
        <ele>1385.83</ele>
        <time>2022-10-04T08:22:11.534Z</time>
      </trkpt>
      <trkpt lat="44.82227" lon="4.23609">
        <ele>1386.62</ele>
        <time>2022-10-04T08:22:29.234Z</time>
      </trkpt>
      <trkpt lat="44.82232" lon="4.2359">
        <ele>1387.9</ele>
        <time>2022-10-04T08:22:38.329Z</time>
      </trkpt>
      <trkpt lat="44.82237" lon="4.23572">
        <ele>1389.11</ele>
        <time>2022-10-04T08:22:47.386Z</time>
      </trkpt>
      <trkpt lat="44.82242" lon="4.23556">
        <ele>1390.38</ele>
        <time>2022-10-04T08:22:56.487Z</time>
      </trkpt>
      <trkpt lat="44.82248" lon="4.23542">
        <ele>1391.79</ele>
        <time>2022-10-04T08:23:05.543Z</time>
      </trkpt>
      <trkpt lat="44.82254" lon="4.23525">
        <ele>1393.34</ele>
        <time>2022-10-04T08:23:15.743Z</time>
      </trkpt>
      <trkpt lat="44.82258" lon="4.23509">
        <ele>1394.59</ele>
        <time>2022-10-04T08:23:24.822Z</time>
      </trkpt>
      <trkpt lat="44.82265" lon="4.23493">
        <ele>1396.13</ele>
        <time>2022-10-04T08:23:33.981Z</time>
      </trkpt>
      <trkpt lat="44.82272" lon="4.23478">
        <ele>1397.57</ele>
        <time>2022-10-04T08:23:43.671Z</time>
      </trkpt>
      <trkpt lat="44.82279" lon="4.23464">
        <ele>1398.97</ele>
        <time>2022-10-04T08:23:52.813Z</time>
      </trkpt>
      <trkpt lat="44.82285" lon="4.23451">
        <ele>1400.23</ele>
        <time>2022-10-04T08:24:01.909Z</time>
      </trkpt>
      <trkpt lat="44.82291" lon="4.23433">
        <ele>1401.57</ele>
        <time>2022-10-04T08:24:11.569Z</time>
      </trkpt>
      <trkpt lat="44.82295" lon="4.2342">
        <ele>1402.53</ele>
        <time>2022-10-04T08:24:21.000Z</time>
      </trkpt>
      <trkpt lat="44.82299" lon="4.23401">
        <ele>1403.78</ele>
        <time>2022-10-04T08:24:30.106Z</time>
      </trkpt>
      <trkpt lat="44.82302" lon="4.23385">
        <ele>1404.69</ele>
        <time>2022-10-04T08:24:40.000Z</time>
      </trkpt>
      <trkpt lat="44.82303" lon="4.23365">
        <ele>1405.54</ele>
        <time>2022-10-04T08:24:49.285Z</time>
      </trkpt>
      <trkpt lat="44.82305" lon="4.23347">
        <ele>1406.29</ele>
        <time>2022-10-04T08:24:58.729Z</time>
      </trkpt>
      <trkpt lat="44.82305" lon="4.23331">
        <ele>1406.88</ele>
        <time>2022-10-04T08:25:07.912Z</time>
      </trkpt>
      <trkpt lat="44.82307" lon="4.23314">
        <ele>1407.51</ele>
        <time>2022-10-04T08:25:17.215Z</time>
      </trkpt>
      <trkpt lat="44.82309" lon="4.23297">
        <ele>1408.2</ele>
        <time>2022-10-04T08:25:26.529Z</time>
      </trkpt>
      <trkpt lat="44.82313" lon="4.2328">
        <ele>1409.12</ele>
        <time>2022-10-04T08:25:35.728Z</time>
      </trkpt>
      <trkpt lat="44.82315" lon="4.23262">
        <ele>1409.78</ele>
        <time>2022-10-04T08:25:44.927Z</time>
      </trkpt>
      <trkpt lat="44.82319" lon="4.23249">
        <ele>1410.48</ele>
        <time>2022-10-04T08:25:54.000Z</time>
      </trkpt>
      <trkpt lat="44.82322" lon="4.23229">
        <ele>1411.37</ele>
        <time>2022-10-04T08:26:03.686Z</time>
      </trkpt>
      <trkpt lat="44.82325" lon="4.23212">
        <ele>1411.98</ele>
        <time>2022-10-04T08:26:12.705Z</time>
      </trkpt>
      <trkpt lat="44.82329" lon="4.23193">
        <ele>1412.82</ele>
        <time>2022-10-04T08:26:21.843Z</time>
      </trkpt>
      <trkpt lat="44.82332" lon="4.23176">
        <ele>1413.59</ele>
        <time>2022-10-04T08:26:31.530Z</time>
      </trkpt>
      <trkpt lat="44.82335" lon="4.23159">
        <ele>1414.39</ele>
        <time>2022-10-04T08:26:40.592Z</time>
      </trkpt>
      <trkpt lat="44.82338" lon="4.23141">
        <ele>1415.16</ele>
        <time>2022-10-04T08:26:49.611Z</time>
      </trkpt>
      <trkpt lat="44.82342" lon="4.23126">
        <ele>1416.02</ele>
        <time>2022-10-04T08:26:58.999Z</time>
      </trkpt>
      <trkpt lat="44.82344" lon="4.23107">
        <ele>1416.93</ele>
        <time>2022-10-04T08:27:08.347Z</time>
      </trkpt>
      <trkpt lat="44.82347" lon="4.2309">
        <ele>1417.83</ele>
        <time>2022-10-04T08:27:17.507Z</time>
      </trkpt>
      <trkpt lat="44.82351" lon="4.23074">
        <ele>1418.86</ele>
        <time>2022-10-04T08:27:26.666Z</time>
      </trkpt>
      <trkpt lat="44.82354" lon="4.23058">
        <ele>1419.89</ele>
        <time>2022-10-04T08:27:35.824Z</time>
      </trkpt>
      <trkpt lat="44.82358" lon="4.23041">
        <ele>1421.05</ele>
        <time>2022-10-04T08:27:44.945Z</time>
      </trkpt>
      <trkpt lat="44.82362" lon="4.23026">
        <ele>1422.08</ele>
        <time>2022-10-04T08:27:54.301Z</time>
      </trkpt>
      <trkpt lat="44.82369" lon="4.23013">
        <ele>1423.11</ele>
        <time>2022-10-04T08:28:03.811Z</time>
      </trkpt>
      <trkpt lat="44.82375" lon="4.23002">
        <ele>1423.92</ele>
        <time>2022-10-04T08:28:12.999Z</time>
      </trkpt>
      <trkpt lat="44.82386" lon="4.22989">
        <ele>1424.9</ele>
        <time>2022-10-04T08:28:22.128Z</time>
      </trkpt>
      <trkpt lat="44.82395" lon="4.22977">
        <ele>1425.69</ele>
        <time>2022-10-04T08:28:31.347Z</time>
      </trkpt>
      <trkpt lat="44.82405" lon="4.22967">
        <ele>1426.35</ele>
        <time>2022-10-04T08:28:40.487Z</time>
      </trkpt>
      <trkpt lat="44.82414" lon="4.22958">
        <ele>1426.92</ele>
        <time>2022-10-04T08:28:49.686Z</time>
      </trkpt>
      <trkpt lat="44.82426" lon="4.22951">
        <ele>1427.46</ele>
        <time>2022-10-04T08:28:58.727Z</time>
      </trkpt>
      <trkpt lat="44.82434" lon="4.22942">
        <ele>1427.88</ele>
        <time>2022-10-04T08:29:08.004Z</time>
      </trkpt>
      <trkpt lat="44.82429" lon="4.22928">
        <ele>1428.04</ele>
        <time>2022-10-04T08:29:17.364Z</time>
      </trkpt>
      <trkpt lat="44.82422" lon="4.22915">
        <ele>1428.15</ele>
        <time>2022-10-04T08:29:26.565Z</time>
      </trkpt>
      <trkpt lat="44.82417" lon="4.22899">
        <ele>1428.44</ele>
        <time>2022-10-04T08:29:35.705Z</time>
      </trkpt>
      <trkpt lat="44.82419" lon="4.22881">
        <ele>1428.9</ele>
        <time>2022-10-04T08:29:44.888Z</time>
      </trkpt>
      <trkpt lat="44.82413" lon="4.22866">
        <ele>1429.15</ele>
        <time>2022-10-04T08:29:54.671Z</time>
      </trkpt>
      <trkpt lat="44.82401" lon="4.22861">
        <ele>1429.04</ele>
        <time>2022-10-04T08:30:03.803Z</time>
      </trkpt>
      <trkpt lat="44.82389" lon="4.22857">
        <ele>1428.86</ele>
        <time>2022-10-04T08:30:12.852Z</time>
      </trkpt>
      <trkpt lat="44.82378" lon="4.2285">
        <ele>1428.72</ele>
        <time>2022-10-04T08:30:22.412Z</time>
      </trkpt>
      <trkpt lat="44.82367" lon="4.22849">
        <ele>1428.45</ele>
        <time>2022-10-04T08:30:31.999Z</time>
      </trkpt>
      <trkpt lat="44.82355" lon="4.22839">
        <ele>1428.34</ele>
        <time>2022-10-04T08:30:41.249Z</time>
      </trkpt>
      <trkpt lat="44.82344" lon="4.22833">
        <ele>1428.22</ele>
        <time>2022-10-04T08:30:50.427Z</time>
      </trkpt>
      <trkpt lat="44.82333" lon="4.22827">
        <ele>1428.2</ele>
        <time>2022-10-04T08:30:59.486Z</time>
      </trkpt>
      <trkpt lat="44.82322" lon="4.2282">
        <ele>1428.22</ele>
        <time>2022-10-04T08:31:08.567Z</time>
      </trkpt>
      <trkpt lat="44.82309" lon="4.22812">
        <ele>1428.34</ele>
        <time>2022-10-04T08:31:18.045Z</time>
      </trkpt>
      <trkpt lat="44.82298" lon="4.2281">
        <ele>1428.31</ele>
        <time>2022-10-04T08:31:27.324Z</time>
      </trkpt>
      <trkpt lat="44.82289" lon="4.228">
        <ele>1428.56</ele>
        <time>2022-10-04T08:31:36.801Z</time>
      </trkpt>
      <trkpt lat="44.82278" lon="4.22795">
        <ele>1428.71</ele>
        <time>2022-10-04T08:31:45.914Z</time>
      </trkpt>
      <trkpt lat="44.82265" lon="4.22789">
        <ele>1428.87</ele>
        <time>2022-10-04T08:31:55.551Z</time>
      </trkpt>
      <trkpt lat="44.82251" lon="4.22785">
        <ele>1429.04</ele>
        <time>2022-10-04T08:32:05.632Z</time>
      </trkpt>
      <trkpt lat="44.8224" lon="4.22782">
        <ele>1429.25</ele>
        <time>2022-10-04T08:32:15.071Z</time>
      </trkpt>
      <trkpt lat="44.82231" lon="4.22772">
        <ele>1429.9</ele>
        <time>2022-10-04T08:32:24.349Z</time>
      </trkpt>
      <trkpt lat="44.82219" lon="4.22768">
        <ele>1430.36</ele>
        <time>2022-10-04T08:32:33.407Z</time>
      </trkpt>
      <trkpt lat="44.82207" lon="4.22764">
        <ele>1430.92</ele>
        <time>2022-10-04T08:32:42.728Z</time>
      </trkpt>
      <trkpt lat="44.82196" lon="4.22758">
        <ele>1431.61</ele>
        <time>2022-10-04T08:32:52.205Z</time>
      </trkpt>
      <trkpt lat="44.82183" lon="4.22755">
        <ele>1432.21</ele>
        <time>2022-10-04T08:33:01.685Z</time>
      </trkpt>
      <trkpt lat="44.82172" lon="4.22751">
        <ele>1432.8</ele>
        <time>2022-10-04T08:33:11.009Z</time>
      </trkpt>
      <trkpt lat="44.82163" lon="4.22746">
        <ele>1433.48</ele>
        <time>2022-10-04T08:33:20.352Z</time>
      </trkpt>
      <trkpt lat="44.82153" lon="4.2274">
        <ele>1434.17</ele>
        <time>2022-10-04T08:33:30.511Z</time>
      </trkpt>
      <trkpt lat="44.82141" lon="4.22737">
        <ele>1434.66</ele>
        <time>2022-10-04T08:33:39.791Z</time>
      </trkpt>
      <trkpt lat="44.82131" lon="4.22736">
        <ele>1434.89</ele>
        <time>2022-10-04T08:33:48.889Z</time>
        <extensions>
          <visugpx:TrkExtension xmlns:visugpx="https://www.visugpx.com/editgpx/">
            <visugpx:node>1</visugpx:node>
            </visugpx:TrkExtension>
        </extensions>
      </trkpt>
      <trkpt lat="44.82125" lon="4.22727">
        <ele>1435.6</ele>
      </trkpt>
      <trkpt lat="44.82116" lon="4.22724">
        <ele>1436.5</ele>
      </trkpt>
      <trkpt lat="44.82108" lon="4.22723">
        <ele>1436.9</ele>
      </trkpt>
      <trkpt lat="44.82103" lon="4.2272">
        <ele>1437.2</ele>
      </trkpt>
      <trkpt lat="44.82096" lon="4.22718">
        <ele>1437.5</ele>
      </trkpt>
      <trkpt lat="44.82085" lon="4.22715">
        <ele>1437.8</ele>
      </trkpt>
      <trkpt lat="44.82077" lon="4.22713">
        <ele>1438</ele>
      </trkpt>
      <trkpt lat="44.82064" lon="4.2271">
        <ele>1438.3</ele>
      </trkpt>
      <trkpt lat="44.82058" lon="4.22707">
        <ele>1438.6</ele>
      </trkpt>
      <trkpt lat="44.82052" lon="4.22705">
        <ele>1438.9</ele>
      </trkpt>
      <trkpt lat="44.82045" lon="4.22703">
        <ele>1439.1</ele>
      </trkpt>
      <trkpt lat="44.82035" lon="4.22699">
        <ele>1439.5</ele>
      </trkpt>
      <trkpt lat="44.82024" lon="4.22697">
        <ele>1439.7</ele>
      </trkpt>
      <trkpt lat="44.82005" lon="4.22693">
        <ele>1440.2</ele>
        <extensions>
          <visugpx:TrkExtension xmlns:visugpx="https://www.visugpx.com/editgpx/">
            <visugpx:node>2</visugpx:node>
            </visugpx:TrkExtension>
        </extensions>
      </trkpt>
      <trkpt lat="44.82" lon="4.22691">
        <ele>1440.4</ele>
      </trkpt>
      <trkpt lat="44.81974" lon="4.22684">
        <ele>1440.8</ele>
      </trkpt>
      <trkpt lat="44.81948" lon="4.22678">
        <ele>1440.8</ele>
      </trkpt>
      <trkpt lat="44.8193" lon="4.22673">
        <ele>1441.3</ele>
      </trkpt>
      <trkpt lat="44.81913" lon="4.22665">
        <ele>1442</ele>
      </trkpt>
      <trkpt lat="44.81872" lon="4.22645">
        <ele>1442</ele>
      </trkpt>
      <trkpt lat="44.81847" lon="4.2263">
        <ele>1441.8</ele>
      </trkpt>
      <trkpt lat="44.81827" lon="4.22615">
        <ele>1441.3</ele>
      </trkpt>
      <trkpt lat="44.81816" lon="4.22612">
        <ele>1440.7</ele>
      </trkpt>
      <trkpt lat="44.81808" lon="4.22609">
        <ele>1440.4</ele>
      </trkpt>
      <trkpt lat="44.818" lon="4.22607">
        <ele>1440</ele>
      </trkpt>
      <trkpt lat="44.8179" lon="4.22605">
        <ele>1439.5</ele>
      </trkpt>
      <trkpt lat="44.81783" lon="4.22604">
        <ele>1439.1</ele>
      </trkpt>
      <trkpt lat="44.8177" lon="4.22602">
        <ele>1438.5</ele>
      </trkpt>
      <trkpt lat="44.81764" lon="4.226">
        <ele>1438.4</ele>
        <extensions>
          <visugpx:TrkExtension xmlns:visugpx="https://www.visugpx.com/editgpx/">
            <visugpx:node>3</visugpx:node>
            </visugpx:TrkExtension>
        </extensions>
      </trkpt>
      <trkpt lat="44.8177" lon="4.22585">
        <ele>1440.6</ele>
      </trkpt>
      <trkpt lat="44.81771" lon="4.22537">
        <ele>1445.3</ele>
      </trkpt>
      <trkpt lat="44.81754" lon="4.22514">
        <ele>1447.6</ele>
      </trkpt>
      <trkpt lat="44.81727" lon="4.22472">
        <ele>1452.5</ele>
      </trkpt>
      <trkpt lat="44.81716" lon="4.22426">
        <ele>1460.4</ele>
      </trkpt>
      <trkpt lat="44.81714" lon="4.22372">
        <ele>1471.9</ele>
      </trkpt>
      <trkpt lat="44.81734" lon="4.22311">
        <ele>1495.3</ele>
      </trkpt>
      <trkpt lat="44.81752" lon="4.2231">
        <ele>1499.6</ele>
      </trkpt>
      <trkpt lat="44.81779" lon="4.22297">
        <ele>1508.6</ele>
      </trkpt>
      <trkpt lat="44.81788" lon="4.22247">
        <ele>1520.5</ele>
      </trkpt>
      <trkpt lat="44.81826" lon="4.22239">
        <ele>1529.6</ele>
      </trkpt>
      <trkpt lat="44.8185" lon="4.22234">
        <ele>1530.9</ele>
      </trkpt>
      <trkpt lat="44.81854" lon="4.22203">
        <ele>1532.9</ele>
      </trkpt>
      <trkpt lat="44.81849" lon="4.22163">
        <ele>1532.8</ele>
      </trkpt>
      <trkpt lat="44.81858" lon="4.22124">
        <ele>1529.4</ele>
      </trkpt>
      <trkpt lat="44.81894" lon="4.22108">
        <ele>1521.9</ele>
        <extensions>
          <visugpx:TrkExtension xmlns:visugpx="https://www.visugpx.com/editgpx/">
            <visugpx:node>4</visugpx:node>
            </visugpx:TrkExtension>
        </extensions>
      </trkpt>
      <trkpt lat="44.81904" lon="4.22097">
        <ele>1519.7</ele>
      </trkpt>
      <trkpt lat="44.81943" lon="4.22054">
        <ele>1510.1</ele>
      </trkpt>
      <trkpt lat="44.81955" lon="4.22016">
        <ele>1505.9</ele>
      </trkpt>
      <trkpt lat="44.81979" lon="4.21965">
        <ele>1498.2</ele>
      </trkpt>
      <trkpt lat="44.81963" lon="4.21883">
        <ele>1489.2</ele>
      </trkpt>
      <trkpt lat="44.81979" lon="4.21872">
        <ele>1486.6</ele>
      </trkpt>
      <trkpt lat="44.81986" lon="4.21846">
        <ele>1481</ele>
      </trkpt>
      <trkpt lat="44.82005" lon="4.21813">
        <ele>1473.3</ele>
      </trkpt>
      <trkpt lat="44.82029" lon="4.21767">
        <ele>1465.8</ele>
      </trkpt>
      <trkpt lat="44.82064" lon="4.21679">
        <ele>1456.4</ele>
        <extensions>
          <visugpx:TrkExtension xmlns:visugpx="https://www.visugpx.com/editgpx/">
            <visugpx:node>5</visugpx:node>
            </visugpx:TrkExtension>
        </extensions>
      </trkpt>
      <trkpt lat="44.82102" lon="4.21581">
        <ele>1447.8</ele>
        <extensions>
          <visugpx:TrkExtension xmlns:visugpx="https://www.visugpx.com/editgpx/">
            <visugpx:node>6</visugpx:node>
            </visugpx:TrkExtension>
        </extensions>
      </trkpt>
      <trkpt lat="44.82103" lon="4.21579">
        <ele>1447.7</ele>
      </trkpt>
      <trkpt lat="44.82094" lon="4.21572">
        <ele>1447.2</ele>
      </trkpt>
      <trkpt lat="44.82048" lon="4.21546">
        <ele>1445.3</ele>
      </trkpt>
      <trkpt lat="44.82022" lon="4.21533">
        <ele>1444.2</ele>
      </trkpt>
      <trkpt lat="44.81992" lon="4.21528">
        <ele>1442.7</ele>
      </trkpt>
      <trkpt lat="44.81979" lon="4.21522">
        <ele>1441.8</ele>
      </trkpt>
      <trkpt lat="44.81963" lon="4.21519">
        <ele>1441</ele>
      </trkpt>
      <trkpt lat="44.81925" lon="4.21515">
        <ele>1439.1</ele>
      </trkpt>
      <trkpt lat="44.81912" lon="4.21516">
        <ele>1438.3</ele>
      </trkpt>
      <trkpt lat="44.8189" lon="4.21526">
        <ele>1437</ele>
      </trkpt>
      <trkpt lat="44.81874" lon="4.21525">
        <ele>1435.7</ele>
      </trkpt>
      <trkpt lat="44.81856" lon="4.21526">
        <ele>1434.2</ele>
      </trkpt>
      <trkpt lat="44.81841" lon="4.21533">
        <ele>1433.4</ele>
      </trkpt>
      <trkpt lat="44.81829" lon="4.21542">
        <ele>1433.2</ele>
      </trkpt>
      <trkpt lat="44.81815" lon="4.21547">
        <ele>1432.8</ele>
      </trkpt>
      <trkpt lat="44.81791" lon="4.2155">
        <ele>1431.2</ele>
      </trkpt>
      <trkpt lat="44.81781" lon="4.21557">
        <ele>1431.4</ele>
      </trkpt>
      <trkpt lat="44.81718" lon="4.21587">
        <ele>1429.4</ele>
      </trkpt>
      <trkpt lat="44.81705" lon="4.21596">
        <ele>1429.9</ele>
      </trkpt>
      <trkpt lat="44.81674" lon="4.21608">
        <ele>1429.9</ele>
      </trkpt>
      <trkpt lat="44.8166" lon="4.21611">
        <ele>1429.7</ele>
      </trkpt>
      <trkpt lat="44.81651" lon="4.21619">
        <ele>1430.1</ele>
      </trkpt>
      <trkpt lat="44.8161" lon="4.21622">
        <ele>1427.7</ele>
      </trkpt>
      <trkpt lat="44.81599" lon="4.21626">
        <ele>1427.2</ele>
      </trkpt>
      <trkpt lat="44.81572" lon="4.2164">
        <ele>1425.9</ele>
      </trkpt>
      <trkpt lat="44.81564" lon="4.21653">
        <ele>1426.4</ele>
      </trkpt>
      <trkpt lat="44.81559" lon="4.21667">
        <ele>1427.4</ele>
      </trkpt>
      <trkpt lat="44.81552" lon="4.21675">
        <ele>1427.3</ele>
      </trkpt>
      <trkpt lat="44.81537" lon="4.21697">
        <ele>1427.9</ele>
      </trkpt>
      <trkpt lat="44.81531" lon="4.21703">
        <ele>1427.9</ele>
      </trkpt>
      <trkpt lat="44.81522" lon="4.21703">
        <ele>1427.2</ele>
      </trkpt>
      <trkpt lat="44.81509" lon="4.21698">
        <ele>1425.9</ele>
      </trkpt>
      <trkpt lat="44.81498" lon="4.217">
        <ele>1425.2</ele>
      </trkpt>
      <trkpt lat="44.8149" lon="4.21709">
        <ele>1425.2</ele>
      </trkpt>
      <trkpt lat="44.81485" lon="4.21728">
        <ele>1426.4</ele>
      </trkpt>
      <trkpt lat="44.81483" lon="4.21742">
        <ele>1427.5</ele>
        <extensions>
          <visugpx:TrkExtension xmlns:visugpx="https://www.visugpx.com/editgpx/">
            <visugpx:node>7</visugpx:node>
            </visugpx:TrkExtension>
        </extensions>
      </trkpt>
      <trkpt lat="44.81479" lon="4.21752">
        <ele>1426.05</ele>
        <time>2022-10-04T09:24:20.969Z</time>
        <extensions>
          <visugpx:TrkExtension xmlns:visugpx="https://www.visugpx.com/editgpx/">
            <visugpx:node>8</visugpx:node>
            </visugpx:TrkExtension>
        </extensions>
      </trkpt>
      <trkpt lat="44.81471" lon="4.21763">
        <ele>1426</ele>
        <time>2022-10-04T09:24:29.991Z</time>
      </trkpt>
      <trkpt lat="44.81462" lon="4.21765">
        <ele>1425.36</ele>
        <time>2022-10-04T09:24:59.000Z</time>
      </trkpt>
      <trkpt lat="44.81452" lon="4.21776">
        <ele>1425.16</ele>
        <time>2022-10-04T09:25:09.000Z</time>
      </trkpt>
      <trkpt lat="44.81442" lon="4.2178">
        <ele>1424.62</ele>
        <time>2022-10-04T09:25:19.000Z</time>
      </trkpt>
      <trkpt lat="44.8143" lon="4.21775">
        <ele>1423.46</ele>
        <time>2022-10-04T09:25:28.567Z</time>
      </trkpt>
      <trkpt lat="44.81421" lon="4.21767">
        <ele>1422.33</ele>
        <time>2022-10-04T09:25:38.602Z</time>
      </trkpt>
      <trkpt lat="44.81415" lon="4.21754">
        <ele>1421.06</ele>
        <time>2022-10-04T09:25:47.643Z</time>
      </trkpt>
      <trkpt lat="44.81405" lon="4.21749">
        <ele>1419.87</ele>
        <time>2022-10-04T09:25:56.812Z</time>
      </trkpt>
      <trkpt lat="44.81396" lon="4.21743">
        <ele>1418.69</ele>
        <time>2022-10-04T09:26:06.211Z</time>
      </trkpt>
      <trkpt lat="44.81387" lon="4.2174">
        <ele>1417.67</ele>
        <time>2022-10-04T09:26:15.329Z</time>
      </trkpt>
      <trkpt lat="44.81384" lon="4.21728">
        <ele>1416.61</ele>
        <time>2022-10-04T09:26:25.947Z</time>
      </trkpt>
      <trkpt lat="44.81376" lon="4.21719">
        <ele>1415.26</ele>
        <time>2022-10-04T09:26:35.308Z</time>
      </trkpt>
      <trkpt lat="44.81366" lon="4.21712">
        <ele>1413.82</ele>
        <time>2022-10-04T09:26:46.000Z</time>
      </trkpt>
      <trkpt lat="44.81356" lon="4.21708">
        <ele>1412.52</ele>
        <time>2022-10-04T09:26:55.428Z</time>
      </trkpt>
      <trkpt lat="44.81356" lon="4.21692">
        <ele>1411.41</ele>
        <time>2022-10-04T09:27:08.000Z</time>
      </trkpt>
      <trkpt lat="44.81346" lon="4.2168">
        <ele>1409.53</ele>
        <time>2022-10-04T09:27:17.505Z</time>
      </trkpt>
      <trkpt lat="44.81338" lon="4.21672">
        <ele>1408</ele>
        <time>2022-10-04T09:27:26.844Z</time>
      </trkpt>
      <trkpt lat="44.81329" lon="4.21664">
        <ele>1406.33</ele>
        <time>2022-10-04T09:27:36.231Z</time>
      </trkpt>
      <trkpt lat="44.8132" lon="4.21654">
        <ele>1404.29</ele>
        <time>2022-10-04T09:27:45.718Z</time>
      </trkpt>
      <trkpt lat="44.81311" lon="4.21651">
        <ele>1402.87</ele>
        <time>2022-10-04T09:27:56.000Z</time>
      </trkpt>
      <trkpt lat="44.81303" lon="4.21641">
        <ele>1400.92</ele>
        <time>2022-10-04T09:28:05.493Z</time>
      </trkpt>
      <trkpt lat="44.81302" lon="4.21624">
        <ele>1399.22</ele>
        <time>2022-10-04T09:28:16.000Z</time>
      </trkpt>
      <trkpt lat="44.81292" lon="4.21612">
        <ele>1396.97</ele>
        <time>2022-10-04T09:28:25.687Z</time>
      </trkpt>
      <trkpt lat="44.81283" lon="4.21612">
        <ele>1395.85</ele>
        <time>2022-10-04T09:28:42.562Z</time>
      </trkpt>
      <trkpt lat="44.81272" lon="4.21616">
        <ele>1394.67</ele>
        <time>2022-10-04T09:28:52.000Z</time>
      </trkpt>
      <trkpt lat="44.81262" lon="4.21609">
        <ele>1392.9</ele>
        <time>2022-10-04T09:29:02.471Z</time>
      </trkpt>
      <trkpt lat="44.81258" lon="4.21597">
        <ele>1391.36</ele>
        <time>2022-10-04T09:29:11.511Z</time>
      </trkpt>
      <trkpt lat="44.81247" lon="4.21594">
        <ele>1389.51</ele>
        <time>2022-10-04T09:29:21.489Z</time>
      </trkpt>
      <trkpt lat="44.81238" lon="4.21598">
        <ele>1388.63</ele>
        <time>2022-10-04T09:29:32.000Z</time>
      </trkpt>
      <trkpt lat="44.81229" lon="4.21604">
        <ele>1387.79</ele>
        <time>2022-10-04T09:29:42.000Z</time>
      </trkpt>
      <trkpt lat="44.81216" lon="4.21599">
        <ele>1385.43</ele>
        <time>2022-10-04T09:29:51.545Z</time>
      </trkpt>
      <trkpt lat="44.81205" lon="4.21599">
        <ele>1383.74</ele>
        <time>2022-10-04T09:30:02.000Z</time>
      </trkpt>
      <trkpt lat="44.81199" lon="4.21587">
        <ele>1381.54</ele>
        <time>2022-10-04T09:30:11.344Z</time>
      </trkpt>
      <trkpt lat="44.81188" lon="4.2159">
        <ele>1380.02</ele>
        <time>2022-10-04T09:30:20.692Z</time>
      </trkpt>
      <trkpt lat="44.81179" lon="4.21587">
        <ele>1378.28</ele>
        <time>2022-10-04T09:30:30.000Z</time>
      </trkpt>
      <trkpt lat="44.81169" lon="4.2159">
        <ele>1376.91</ele>
        <time>2022-10-04T09:30:39.419Z</time>
      </trkpt>
      <trkpt lat="44.81159" lon="4.21588">
        <ele>1375.35</ele>
        <time>2022-10-04T09:30:49.670Z</time>
      </trkpt>
      <trkpt lat="44.81152" lon="4.2158">
        <ele>1373.51</ele>
        <time>2022-10-04T09:30:58.706Z</time>
      </trkpt>
      <trkpt lat="44.81147" lon="4.21568">
        <ele>1371.65</ele>
        <time>2022-10-04T09:31:16.087Z</time>
      </trkpt>
      <trkpt lat="44.81137" lon="4.21561">
        <ele>1369.52</ele>
        <time>2022-10-04T09:31:25.999Z</time>
      </trkpt>
      <trkpt lat="44.81128" lon="4.21553">
        <ele>1367.56</ele>
        <time>2022-10-04T09:31:35.999Z</time>
      </trkpt>
      <trkpt lat="44.81121" lon="4.21543">
        <ele>1365.83</ele>
        <time>2022-10-04T09:31:47.064Z</time>
      </trkpt>
      <trkpt lat="44.8111" lon="4.21545">
        <ele>1364.51</ele>
        <time>2022-10-04T09:31:56.473Z</time>
      </trkpt>
      <trkpt lat="44.81101" lon="4.2154">
        <ele>1362.86</ele>
        <time>2022-10-04T09:32:06.741Z</time>
      </trkpt>
      <trkpt lat="44.81092" lon="4.21536">
        <ele>1361.22</ele>
        <time>2022-10-04T09:32:16.208Z</time>
      </trkpt>
      <trkpt lat="44.81084" lon="4.21529">
        <ele>1359.51</ele>
        <time>2022-10-04T09:32:52.587Z</time>
      </trkpt>
      <trkpt lat="44.81074" lon="4.21527">
        <ele>1358.14</ele>
        <time>2022-10-04T09:33:03.383Z</time>
      </trkpt>
      <trkpt lat="44.81068" lon="4.21517">
        <ele>1356.38</ele>
        <time>2022-10-04T09:33:12.443Z</time>
      </trkpt>
      <trkpt lat="44.81063" lon="4.21506">
        <ele>1354.79</ele>
        <time>2022-10-04T09:33:21.672Z</time>
      </trkpt>
      <trkpt lat="44.8106" lon="4.21491">
        <ele>1353.2</ele>
        <time>2022-10-04T09:33:31.149Z</time>
      </trkpt>
      <trkpt lat="44.81055" lon="4.2148">
        <ele>1351.73</ele>
        <time>2022-10-04T09:33:41.112Z</time>
      </trkpt>
      <trkpt lat="44.81049" lon="4.21472">
        <ele>1350.24</ele>
        <time>2022-10-04T09:34:10.547Z</time>
      </trkpt>
      <trkpt lat="44.81036" lon="4.21463">
        <ele>1348.2</ele>
        <time>2022-10-04T09:34:20.547Z</time>
      </trkpt>
      <trkpt lat="44.81026" lon="4.21461">
        <ele>1346.96</ele>
        <time>2022-10-04T09:34:29.625Z</time>
      </trkpt>
      <trkpt lat="44.81017" lon="4.21452">
        <ele>1345.35</ele>
        <time>2022-10-04T09:34:39.585Z</time>
      </trkpt>
      <trkpt lat="44.81006" lon="4.21445">
        <ele>1343.59</ele>
        <time>2022-10-04T09:34:49.154Z</time>
      </trkpt>
      <trkpt lat="44.80998" lon="4.21435">
        <ele>1341.95</ele>
        <time>2022-10-04T09:34:58.392Z</time>
      </trkpt>
      <trkpt lat="44.80991" lon="4.21427">
        <ele>1340.38</ele>
        <time>2022-10-04T09:35:10.310Z</time>
      </trkpt>
      <trkpt lat="44.80981" lon="4.21421">
        <ele>1338.51</ele>
        <time>2022-10-04T09:35:19.907Z</time>
      </trkpt>
      <trkpt lat="44.80972" lon="4.21414">
        <ele>1336.44</ele>
        <time>2022-10-04T09:35:29.999Z</time>
      </trkpt>
      <trkpt lat="44.8096" lon="4.21415">
        <ele>1334.44</ele>
        <time>2022-10-04T09:35:39.766Z</time>
      </trkpt>
      <trkpt lat="44.8095" lon="4.2142">
        <ele>1333.08</ele>
        <time>2022-10-04T09:35:49.999Z</time>
      </trkpt>
      <trkpt lat="44.80943" lon="4.21411">
        <ele>1330.93</ele>
        <time>2022-10-04T09:35:59.342Z</time>
      </trkpt>
      <trkpt lat="44.80944" lon="4.21394">
        <ele>1329.6</ele>
        <time>2022-10-04T09:36:17.999Z</time>
      </trkpt>
      <trkpt lat="44.80942" lon="4.21381">
        <ele>1328.09</ele>
        <time>2022-10-04T09:36:27.470Z</time>
      </trkpt>
      <trkpt lat="44.80939" lon="4.21367">
        <ele>1326.37</ele>
        <time>2022-10-04T09:36:56.810Z</time>
      </trkpt>
      <trkpt lat="44.8094" lon="4.21354">
        <ele>1325.26</ele>
        <time>2022-10-04T09:37:08.304Z</time>
      </trkpt>
      <trkpt lat="44.80929" lon="4.2135">
        <ele>1323.17</ele>
        <time>2022-10-04T09:37:17.305Z</time>
      </trkpt>
      <trkpt lat="44.8092" lon="4.21359">
        <ele>1322.58</ele>
        <time>2022-10-04T09:37:26.566Z</time>
      </trkpt>
      <trkpt lat="44.80909" lon="4.21362">
        <ele>1321.25</ele>
        <time>2022-10-04T09:37:35.914Z</time>
      </trkpt>
      <trkpt lat="44.80897" lon="4.21351">
        <ele>1318.97</ele>
        <time>2022-10-04T09:37:45.664Z</time>
      </trkpt>
      <trkpt lat="44.80889" lon="4.21338">
        <ele>1317.11</ele>
        <time>2022-10-04T09:37:55.999Z</time>
      </trkpt>
      <trkpt lat="44.80877" lon="4.21323">
        <ele>1314.87</ele>
        <time>2022-10-04T09:38:05.534Z</time>
      </trkpt>
      <trkpt lat="44.80869" lon="4.21311">
        <ele>1313.35</ele>
        <time>2022-10-04T09:38:14.999Z</time>
      </trkpt>
      <trkpt lat="44.80859" lon="4.21298">
        <ele>1311.57</ele>
        <time>2022-10-04T09:38:24.334Z</time>
      </trkpt>
      <trkpt lat="44.80848" lon="4.21291">
        <ele>1310.03</ele>
        <time>2022-10-04T09:38:33.610Z</time>
      </trkpt>
      <trkpt lat="44.80837" lon="4.21282">
        <ele>1308.25</ele>
        <time>2022-10-04T09:38:42.690Z</time>
      </trkpt>
      <trkpt lat="44.80823" lon="4.21272">
        <ele>1306.15</ele>
        <time>2022-10-04T09:38:52.628Z</time>
      </trkpt>
      <trkpt lat="44.80811" lon="4.21263">
        <ele>1304.33</ele>
        <time>2022-10-04T09:39:01.688Z</time>
      </trkpt>
      <trkpt lat="44.808" lon="4.21253">
        <ele>1302.66</ele>
        <time>2022-10-04T09:39:10.826Z</time>
      </trkpt>
      <trkpt lat="44.80789" lon="4.21246">
        <ele>1301.15</ele>
        <time>2022-10-04T09:39:20.000Z</time>
      </trkpt>
      <trkpt lat="44.80776" lon="4.21238">
        <ele>1299.36</ele>
        <time>2022-10-04T09:39:29.344Z</time>
      </trkpt>
      <trkpt lat="44.80769" lon="4.21225">
        <ele>1298.24</ele>
        <time>2022-10-04T09:39:38.893Z</time>
      </trkpt>
      <trkpt lat="44.80773" lon="4.21203">
        <ele>1298.02</ele>
        <time>2022-10-04T09:39:48.053Z</time>
      </trkpt>
      <trkpt lat="44.80777" lon="4.21185">
        <ele>1297.92</ele>
        <time>2022-10-04T09:39:57.391Z</time>
      </trkpt>
      <trkpt lat="44.80782" lon="4.21169">
        <ele>1297.8</ele>
        <time>2022-10-04T09:40:06.729Z</time>
      </trkpt>
      <trkpt lat="44.80786" lon="4.21153">
        <ele>1297.55</ele>
        <time>2022-10-04T09:40:16.288Z</time>
      </trkpt>
      <trkpt lat="44.80789" lon="4.21136">
        <ele>1297.29</ele>
        <time>2022-10-04T09:40:25.467Z</time>
      </trkpt>
      <trkpt lat="44.80794" lon="4.2112">
        <ele>1297.21</ele>
        <time>2022-10-04T09:40:34.863Z</time>
      </trkpt>
      <trkpt lat="44.80799" lon="4.21104">
        <ele>1297.02</ele>
        <time>2022-10-04T09:40:44.344Z</time>
      </trkpt>
      <trkpt lat="44.80805" lon="4.21088">
        <ele>1296.86</ele>
        <time>2022-10-04T09:40:53.703Z</time>
      </trkpt>
      <trkpt lat="44.80811" lon="4.21076">
        <ele>1296.81</ele>
        <time>2022-10-04T09:41:03.000Z</time>
      </trkpt>
      <trkpt lat="44.80819" lon="4.21059">
        <ele>1296.76</ele>
        <time>2022-10-04T09:41:12.351Z</time>
      </trkpt>
      <trkpt lat="44.80827" lon="4.21044">
        <ele>1296.71</ele>
        <time>2022-10-04T09:41:21.946Z</time>
      </trkpt>
      <trkpt lat="44.80835" lon="4.21029">
        <ele>1296.69</ele>
        <time>2022-10-04T09:41:31.529Z</time>
      </trkpt>
      <trkpt lat="44.80827" lon="4.21025">
        <ele>1295.7</ele>
        <time>2022-10-04T09:41:41.007Z</time>
      </trkpt>
      <trkpt lat="44.80816" lon="4.21033">
        <ele>1295.07</ele>
        <time>2022-10-04T09:41:50.146Z</time>
      </trkpt>
      <trkpt lat="44.80803" lon="4.21038">
        <ele>1294.05</ele>
        <time>2022-10-04T09:41:59.465Z</time>
      </trkpt>
      <trkpt lat="44.80792" lon="4.21044">
        <ele>1293.26</ele>
        <time>2022-10-04T09:42:08.785Z</time>
      </trkpt>
      <trkpt lat="44.80782" lon="4.21048">
        <ele>1292.5</ele>
        <time>2022-10-04T09:42:18.000Z</time>
      </trkpt>
      <trkpt lat="44.80768" lon="4.21054">
        <ele>1291.65</ele>
        <time>2022-10-04T09:42:27.565Z</time>
      </trkpt>
      <trkpt lat="44.80759" lon="4.21054">
        <ele>1290.81</ele>
        <time>2022-10-04T09:42:37.000Z</time>
      </trkpt>
      <trkpt lat="44.80746" lon="4.21057">
        <ele>1289.94</ele>
        <time>2022-10-04T09:42:46.752Z</time>
      </trkpt>
      <trkpt lat="44.80755" lon="4.21044">
        <ele>1289.71</ele>
        <time>2022-10-04T09:42:57.000Z</time>
      </trkpt>
      <trkpt lat="44.80766" lon="4.21032">
        <ele>1289.74</ele>
        <time>2022-10-04T09:43:07.000Z</time>
      </trkpt>
      <trkpt lat="44.80772" lon="4.21015">
        <ele>1289.1</ele>
        <time>2022-10-04T09:43:16.152Z</time>
      </trkpt>
      <trkpt lat="44.80779" lon="4.20998">
        <ele>1288.86</ele>
        <time>2022-10-04T09:43:26.000Z</time>
      </trkpt>
      <trkpt lat="44.80787" lon="4.20982">
        <ele>1288.76</ele>
        <time>2022-10-04T09:43:35.224Z</time>
      </trkpt>
      <trkpt lat="44.80792" lon="4.20966">
        <ele>1288.32</ele>
        <time>2022-10-04T09:43:44.444Z</time>
      </trkpt>
      <trkpt lat="44.80795" lon="4.2095">
        <ele>1287.85</ele>
        <time>2022-10-04T09:43:53.684Z</time>
      </trkpt>
      <trkpt lat="44.80798" lon="4.20937">
        <ele>1287.45</ele>
        <time>2022-10-04T09:44:03.000Z</time>
      </trkpt>
      <trkpt lat="44.80804" lon="4.20917">
        <ele>1287.14</ele>
        <time>2022-10-04T09:44:12.231Z</time>
      </trkpt>
      <trkpt lat="44.80808" lon="4.20901">
        <ele>1287.11</ele>
        <time>2022-10-04T09:44:21.592Z</time>
      </trkpt>
      <trkpt lat="44.80808" lon="4.20883">
        <ele>1286.74</ele>
        <time>2022-10-04T09:44:30.794Z</time>
      </trkpt>
      <trkpt lat="44.80807" lon="4.20868">
        <ele>1286.5</ele>
        <time>2022-10-04T09:44:40.000Z</time>
      </trkpt>
      <trkpt lat="44.80808" lon="4.20845">
        <ele>1286.15</ele>
        <time>2022-10-04T09:44:49.389Z</time>
      </trkpt>
      <trkpt lat="44.80808" lon="4.20826">
        <ele>1285.61</ele>
        <time>2022-10-04T09:44:58.890Z</time>
      </trkpt>
      <trkpt lat="44.80812" lon="4.2081">
        <ele>1285.12</ele>
        <time>2022-10-04T09:45:08.548Z</time>
      </trkpt>
      <trkpt lat="44.80815" lon="4.20798">
        <ele>1284.67</ele>
        <time>2022-10-04T09:45:18.592Z</time>
      </trkpt>
      <trkpt lat="44.80818" lon="4.20783">
        <ele>1283.98</ele>
        <time>2022-10-04T09:45:28.000Z</time>
      </trkpt>
      <trkpt lat="44.80828" lon="4.20768">
        <ele>1283.14</ele>
        <time>2022-10-04T09:45:37.109Z</time>
      </trkpt>
      <trkpt lat="44.80833" lon="4.20754">
        <ele>1282.28</ele>
        <time>2022-10-04T09:45:47.000Z</time>
      </trkpt>
      <trkpt lat="44.80843" lon="4.20738">
        <ele>1281.16</ele>
        <time>2022-10-04T09:45:56.487Z</time>
      </trkpt>
      <trkpt lat="44.80849" lon="4.20724">
        <ele>1280.14</ele>
        <time>2022-10-04T09:46:05.785Z</time>
      </trkpt>
      <trkpt lat="44.80855" lon="4.20708">
        <ele>1279</ele>
        <time>2022-10-04T09:46:16.000Z</time>
      </trkpt>
      <trkpt lat="44.80863" lon="4.20693">
        <ele>1278</ele>
        <time>2022-10-04T09:46:25.391Z</time>
      </trkpt>
      <trkpt lat="44.80868" lon="4.20682">
        <ele>1277.39</ele>
        <time>2022-10-04T09:46:36.889Z</time>
      </trkpt>
      <trkpt lat="44.80875" lon="4.20668">
        <ele>1276.66</ele>
        <time>2022-10-04T09:46:46.270Z</time>
      </trkpt>
      <trkpt lat="44.80882" lon="4.20655">
        <ele>1276.08</ele>
        <time>2022-10-04T09:46:56.999Z</time>
      </trkpt>
      <trkpt lat="44.80888" lon="4.20637">
        <ele>1275.22</ele>
        <time>2022-10-04T09:47:06.469Z</time>
      </trkpt>
      <trkpt lat="44.80895" lon="4.20621">
        <ele>1274.54</ele>
        <time>2022-10-04T09:47:15.806Z</time>
      </trkpt>
      <trkpt lat="44.80901" lon="4.2061">
        <ele>1274.11</ele>
        <time>2022-10-04T09:47:25.999Z</time>
      </trkpt>
      <trkpt lat="44.8091" lon="4.20592">
        <ele>1273.34</ele>
        <time>2022-10-04T09:47:35.587Z</time>
      </trkpt>
      <trkpt lat="44.80918" lon="4.20576">
        <ele>1272.61</ele>
        <time>2022-10-04T09:47:44.868Z</time>
      </trkpt>
      <trkpt lat="44.80927" lon="4.20563">
        <ele>1272.14</ele>
        <time>2022-10-04T09:47:54.241Z</time>
      </trkpt>
      <trkpt lat="44.80933" lon="4.20547">
        <ele>1271.46</ele>
        <time>2022-10-04T09:48:03.391Z</time>
      </trkpt>
      <trkpt lat="44.80939" lon="4.20531">
        <ele>1270.77</ele>
        <time>2022-10-04T09:48:12.772Z</time>
      </trkpt>
      <trkpt lat="44.80947" lon="4.20516">
        <ele>1270.29</ele>
        <time>2022-10-04T09:48:22.451Z</time>
      </trkpt>
      <trkpt lat="44.80953" lon="4.205">
        <ele>1269.68</ele>
        <time>2022-10-04T09:48:32.999Z</time>
      </trkpt>
      <trkpt lat="44.80958" lon="4.20479">
        <ele>1268.7</ele>
        <time>2022-10-04T09:48:42.809Z</time>
      </trkpt>
      <trkpt lat="44.80961" lon="4.20462">
        <ele>1267.69</ele>
        <time>2022-10-04T09:48:52.145Z</time>
      </trkpt>
      <trkpt lat="44.8096" lon="4.20444">
        <ele>1266.53</ele>
        <time>2022-10-04T09:49:01.586Z</time>
      </trkpt>
      <trkpt lat="44.80959" lon="4.20429">
        <ele>1265.59</ele>
        <time>2022-10-04T09:49:11.999Z</time>
      </trkpt>
      <trkpt lat="44.80955" lon="4.2041">
        <ele>1264.37</ele>
        <time>2022-10-04T09:49:21.403Z</time>
      </trkpt>
      <trkpt lat="44.80952" lon="4.20393">
        <ele>1263.44</ele>
        <time>2022-10-04T09:49:30.830Z</time>
      </trkpt>
      <trkpt lat="44.80952" lon="4.20376">
        <ele>1262.71</ele>
        <time>2022-10-04T09:49:40.269Z</time>
      </trkpt>
      <trkpt lat="44.80952" lon="4.2036">
        <ele>1262.08</ele>
        <time>2022-10-04T09:49:49.677Z</time>
      </trkpt>
      <trkpt lat="44.80953" lon="4.20342">
        <ele>1261.41</ele>
        <time>2022-10-04T09:49:59.057Z</time>
      </trkpt>
      <trkpt lat="44.80951" lon="4.20325">
        <ele>1260.7</ele>
        <time>2022-10-04T09:50:08.666Z</time>
      </trkpt>
      <trkpt lat="44.80951" lon="4.20306">
        <ele>1259.94</ele>
        <time>2022-10-04T09:50:18.066Z</time>
      </trkpt>
      <trkpt lat="44.80951" lon="4.20288">
        <ele>1259.26</ele>
        <time>2022-10-04T09:50:27.523Z</time>
      </trkpt>
      <trkpt lat="44.80953" lon="4.20275">
        <ele>1258.92</ele>
        <time>2022-10-04T09:51:02.999Z</time>
      </trkpt>
      <trkpt lat="44.8095" lon="4.20261">
        <ele>1258.31</ele>
        <time>2022-10-04T09:55:27.000Z</time>
      </trkpt>
      <trkpt lat="44.80948" lon="4.20245">
        <ele>1257.74</ele>
        <time>2022-10-04T09:55:36.648Z</time>
      </trkpt>
      <trkpt lat="44.80944" lon="4.20227">
        <ele>1257.07</ele>
        <time>2022-10-04T09:55:45.985Z</time>
      </trkpt>
      <trkpt lat="44.80938" lon="4.20211">
        <ele>1256.37</ele>
        <time>2022-10-04T09:55:55.267Z</time>
      </trkpt>
      <trkpt lat="44.80932" lon="4.20196">
        <ele>1255.64</ele>
        <time>2022-10-04T09:56:04.465Z</time>
      </trkpt>
      <trkpt lat="44.80927" lon="4.20182">
        <ele>1255.02</ele>
        <time>2022-10-04T09:56:13.785Z</time>
      </trkpt>
      <trkpt lat="44.80921" lon="4.20166">
        <ele>1254.29</ele>
        <time>2022-10-04T09:56:22.914Z</time>
      </trkpt>
      <trkpt lat="44.80916" lon="4.20153">
        <ele>1253.79</ele>
        <time>2022-10-04T09:56:32.000Z</time>
      </trkpt>
      <trkpt lat="44.8091" lon="4.20134">
        <ele>1253.23</ele>
        <time>2022-10-04T09:56:41.218Z</time>
      </trkpt>
      <trkpt lat="44.80904" lon="4.20119">
        <ele>1252.78</ele>
        <time>2022-10-04T09:56:50.471Z</time>
      </trkpt>
      <trkpt lat="44.80899" lon="4.20103">
        <ele>1252.34</ele>
        <time>2022-10-04T09:56:59.727Z</time>
      </trkpt>
      <trkpt lat="44.80895" lon="4.20089">
        <ele>1251.85</ele>
        <time>2022-10-04T09:57:09.000Z</time>
      </trkpt>
      <trkpt lat="44.80889" lon="4.20072">
        <ele>1251.09</ele>
        <time>2022-10-04T09:57:19.000Z</time>
      </trkpt>
      <trkpt lat="44.80883" lon="4.20054">
        <ele>1250.17</ele>
        <time>2022-10-04T09:57:28.224Z</time>
      </trkpt>
      <trkpt lat="44.80875" lon="4.20039">
        <ele>1249.35</ele>
        <time>2022-10-04T09:57:38.000Z</time>
      </trkpt>
      <trkpt lat="44.80867" lon="4.20022">
        <ele>1248.56</ele>
        <time>2022-10-04T09:57:47.485Z</time>
      </trkpt>
      <trkpt lat="44.80861" lon="4.20006">
        <ele>1247.91</ele>
        <time>2022-10-04T09:57:56.592Z</time>
      </trkpt>
      <trkpt lat="44.80854" lon="4.19991">
        <ele>1247.27</ele>
        <time>2022-10-04T09:58:05.732Z</time>
      </trkpt>
      <trkpt lat="44.80848" lon="4.19976">
        <ele>1246.57</ele>
        <time>2022-10-04T09:58:15.000Z</time>
      </trkpt>
      <trkpt lat="44.80843" lon="4.19955">
        <ele>1245.55</ele>
        <time>2022-10-04T09:58:25.000Z</time>
      </trkpt>
      <trkpt lat="44.80838" lon="4.19936">
        <ele>1244.66</ele>
        <time>2022-10-04T09:58:35.000Z</time>
      </trkpt>
      <trkpt lat="44.80828" lon="4.1992">
        <ele>1244.07</ele>
        <time>2022-10-04T09:58:44.228Z</time>
      </trkpt>
      <trkpt lat="44.80821" lon="4.19901">
        <ele>1243.83</ele>
        <time>2022-10-04T09:58:53.807Z</time>
      </trkpt>
      <trkpt lat="44.80814" lon="4.19884">
        <ele>1243.95</ele>
        <time>2022-10-04T09:59:03.217Z</time>
      </trkpt>
      <trkpt lat="44.80807" lon="4.1987">
        <ele>1244.41</ele>
        <time>2022-10-04T09:59:14.000Z</time>
      </trkpt>
      <trkpt lat="44.80798" lon="4.19854">
        <ele>1245.31</ele>
        <time>2022-10-04T09:59:23.806Z</time>
      </trkpt>
      <trkpt lat="44.80787" lon="4.19844">
        <ele>1246.48</ele>
        <time>2022-10-04T09:59:33.229Z</time>
      </trkpt>
      <trkpt lat="44.80778" lon="4.19834">
        <ele>1247.46</ele>
        <time>2022-10-04T09:59:42.429Z</time>
      </trkpt>
      <trkpt lat="44.80767" lon="4.19828">
        <ele>1248.46</ele>
        <time>2022-10-04T09:59:51.582Z</time>
      </trkpt>
      <trkpt lat="44.80757" lon="4.19817">
        <ele>1249.24</ele>
        <time>2022-10-04T10:00:00.798Z</time>
      </trkpt>
      <trkpt lat="44.80751" lon="4.19804">
        <ele>1249.66</ele>
        <time>2022-10-04T10:00:10.000Z</time>
      </trkpt>
      <trkpt lat="44.80747" lon="4.19785">
        <ele>1249.98</ele>
        <time>2022-10-04T10:00:19.229Z</time>
      </trkpt>
      <trkpt lat="44.80747" lon="4.19768">
        <ele>1250.07</ele>
        <time>2022-10-04T10:00:28.331Z</time>
      </trkpt>
      <trkpt lat="44.80749" lon="4.19751">
        <ele>1250.02</ele>
        <time>2022-10-04T10:00:37.830Z</time>
      </trkpt>
      <trkpt lat="44.80748" lon="4.19736">
        <ele>1249.87</ele>
        <time>2022-10-04T10:00:46.851Z</time>
      </trkpt>
      <trkpt lat="44.80747" lon="4.19723">
        <ele>1249.66</ele>
        <time>2022-10-04T10:00:56.068Z</time>
      </trkpt>
      <trkpt lat="44.80746" lon="4.19707">
        <ele>1249.29</ele>
        <time>2022-10-04T10:01:06.000Z</time>
      </trkpt>
      <trkpt lat="44.80739" lon="4.19689">
        <ele>1248.7</ele>
        <time>2022-10-04T10:01:15.705Z</time>
      </trkpt>
      <trkpt lat="44.8073" lon="4.19678">
        <ele>1248.11</ele>
        <time>2022-10-04T10:01:26.000Z</time>
      </trkpt>
      <trkpt lat="44.80725" lon="4.19665">
        <ele>1247.41</ele>
        <time>2022-10-04T10:01:35.392Z</time>
      </trkpt>
      <trkpt lat="44.80729" lon="4.19647">
        <ele>1246.84</ele>
        <time>2022-10-04T10:01:44.850Z</time>
      </trkpt>
      <trkpt lat="44.80732" lon="4.19629">
        <ele>1246.2</ele>
        <time>2022-10-04T10:01:54.328Z</time>
      </trkpt>
      <trkpt lat="44.80739" lon="4.19613">
        <ele>1245.64</ele>
        <time>2022-10-04T10:02:03.768Z</time>
      </trkpt>
      <trkpt lat="44.80746" lon="4.19599">
        <ele>1244.97</ele>
        <time>2022-10-04T10:02:13.647Z</time>
      </trkpt>
      <trkpt lat="44.80754" lon="4.19589">
        <ele>1244.38</ele>
        <time>2022-10-04T10:02:22.985Z</time>
      </trkpt>
      <trkpt lat="44.80761" lon="4.19577">
        <ele>1243.44</ele>
        <time>2022-10-04T10:02:32.724Z</time>
      </trkpt>
      <trkpt lat="44.80767" lon="4.19566">
        <ele>1242.43</ele>
        <time>2022-10-04T10:02:41.999Z</time>
      </trkpt>
      <trkpt lat="44.80774" lon="4.19549">
        <ele>1240.85</ele>
        <time>2022-10-04T10:02:51.673Z</time>
      </trkpt>
      <trkpt lat="44.80775" lon="4.19535">
        <ele>1239.73</ele>
        <time>2022-10-04T10:03:01.129Z</time>
      </trkpt>
      <trkpt lat="44.80773" lon="4.1952">
        <ele>1238.48</ele>
        <time>2022-10-04T10:03:10.999Z</time>
      </trkpt>
      <trkpt lat="44.80773" lon="4.19505">
        <ele>1236.98</ele>
        <time>2022-10-04T10:03:20.999Z</time>
      </trkpt>
      <trkpt lat="44.80772" lon="4.19486">
        <ele>1235.1</ele>
        <time>2022-10-04T10:03:30.347Z</time>
      </trkpt>
      <trkpt lat="44.80771" lon="4.1947">
        <ele>1233.28</ele>
        <time>2022-10-04T10:03:39.865Z</time>
      </trkpt>
      <trkpt lat="44.80771" lon="4.19457">
        <ele>1231.77</ele>
        <time>2022-10-04T10:04:00.812Z</time>
      </trkpt>
      <trkpt lat="44.80764" lon="4.19449">
        <ele>1230.59</ele>
        <time>2022-10-04T10:04:10.391Z</time>
      </trkpt>
      <trkpt lat="44.80752" lon="4.1945">
        <ele>1230.22</ele>
        <time>2022-10-04T10:04:19.889Z</time>
      </trkpt>
      <trkpt lat="44.80741" lon="4.19451">
        <ele>1229.81</ele>
        <time>2022-10-04T10:04:28.999Z</time>
      </trkpt>
      <trkpt lat="44.80726" lon="4.19456">
        <ele>1229.3</ele>
        <time>2022-10-04T10:04:38.471Z</time>
      </trkpt>
      <trkpt lat="44.80713" lon="4.19459">
        <ele>1228.52</ele>
        <time>2022-10-04T10:04:47.771Z</time>
      </trkpt>
      <trkpt lat="44.80702" lon="4.19463">
        <ele>1227.92</ele>
        <time>2022-10-04T10:04:57.999Z</time>
      </trkpt>
      <trkpt lat="44.8069" lon="4.19465">
        <ele>1226.82</ele>
        <time>2022-10-04T10:05:07.999Z</time>
      </trkpt>
      <trkpt lat="44.80677" lon="4.19468">
        <ele>1225.78</ele>
        <time>2022-10-04T10:05:17.526Z</time>
      </trkpt>
      <trkpt lat="44.80665" lon="4.19471">
        <ele>1224.71</ele>
        <time>2022-10-04T10:05:26.842Z</time>
      </trkpt>
      <trkpt lat="44.80653" lon="4.19476">
        <ele>1223.67</ele>
        <time>2022-10-04T10:05:36.999Z</time>
      </trkpt>
      <trkpt lat="44.80639" lon="4.19472">
        <ele>1221.35</ele>
        <time>2022-10-04T10:05:46.412Z</time>
      </trkpt>
      <trkpt lat="44.80628" lon="4.1947">
        <ele>1219.33</ele>
        <time>2022-10-04T10:05:55.591Z</time>
      </trkpt>
      <trkpt lat="44.80615" lon="4.19466">
        <ele>1217.13</ele>
        <time>2022-10-04T10:06:04.889Z</time>
      </trkpt>
      <trkpt lat="44.80604" lon="4.19464">
        <ele>1215.47</ele>
        <time>2022-10-04T10:06:14.670Z</time>
      </trkpt>
      <trkpt lat="44.80591" lon="4.19465">
        <ele>1214.27</ele>
        <time>2022-10-04T10:06:23.926Z</time>
      </trkpt>
      <trkpt lat="44.80579" lon="4.19465">
        <ele>1213.51</ele>
        <time>2022-10-04T10:06:33.467Z</time>
      </trkpt>
      <trkpt lat="44.80567" lon="4.19465">
        <ele>1213.14</ele>
        <time>2022-10-04T10:06:42.999Z</time>
      </trkpt>
      <trkpt lat="44.80552" lon="4.19465">
        <ele>1213.05</ele>
        <time>2022-10-04T10:06:52.725Z</time>
      </trkpt>
      <trkpt lat="44.80542" lon="4.19465">
        <ele>1213.2</ele>
        <time>2022-10-04T10:07:01.999Z</time>
      </trkpt>
      <trkpt lat="44.80527" lon="4.19465">
        <ele>1213.63</ele>
        <time>2022-10-04T10:07:11.296Z</time>
      </trkpt>
      <trkpt lat="44.80518" lon="4.19473">
        <ele>1214.4</ele>
        <time>2022-10-04T10:07:23.472Z</time>
      </trkpt>
      <trkpt lat="44.80501" lon="4.19471">
        <ele>1214.67</ele>
        <time>2022-10-04T10:07:33.513Z</time>
      </trkpt>
      <trkpt lat="44.80489" lon="4.19472">
        <ele>1215</ele>
        <time>2022-10-04T10:07:43.999Z</time>
      </trkpt>
      <trkpt lat="44.80475" lon="4.19475">
        <ele>1215.57</ele>
        <time>2022-10-04T10:07:53.369Z</time>
      </trkpt>
      <trkpt lat="44.80462" lon="4.19481">
        <ele>1216.11</ele>
        <time>2022-10-04T10:08:02.909Z</time>
      </trkpt>
      <trkpt lat="44.8045" lon="4.19488">
        <ele>1216.57</ele>
        <time>2022-10-04T10:08:12.467Z</time>
      </trkpt>
      <trkpt lat="44.80441" lon="4.19501">
        <ele>1216.88</ele>
        <time>2022-10-04T10:08:22.484Z</time>
      </trkpt>
      <trkpt lat="44.80433" lon="4.19514">
        <ele>1217.04</ele>
        <time>2022-10-04T10:08:31.605Z</time>
      </trkpt>
      <trkpt lat="44.80424" lon="4.19528">
        <ele>1217.07</ele>
        <time>2022-10-04T10:08:41.219Z</time>
      </trkpt>
      <trkpt lat="44.80415" lon="4.19541">
        <ele>1216.88</ele>
        <time>2022-10-04T10:08:50.714Z</time>
      </trkpt>
      <trkpt lat="44.80404" lon="4.19547">
        <ele>1216.35</ele>
        <time>2022-10-04T10:09:00.181Z</time>
      </trkpt>
      <trkpt lat="44.80392" lon="4.19536">
        <ele>1215.92</ele>
        <time>2022-10-04T10:09:09.809Z</time>
      </trkpt>
      <trkpt lat="44.80384" lon="4.19523">
        <ele>1216.01</ele>
        <time>2022-10-04T10:09:19.999Z</time>
      </trkpt>
      <trkpt lat="44.80379" lon="4.19507">
        <ele>1216.48</ele>
        <time>2022-10-04T10:12:12.686Z</time>
      </trkpt>
      <trkpt lat="44.80369" lon="4.19489">
        <ele>1217.05</ele>
        <time>2022-10-04T10:12:21.890Z</time>
      </trkpt>
      <trkpt lat="44.8036" lon="4.19473">
        <ele>1217.7</ele>
        <time>2022-10-04T10:12:31.624Z</time>
      </trkpt>
      <trkpt lat="44.80352" lon="4.19459">
        <ele>1218.16</ele>
        <time>2022-10-04T10:12:40.724Z</time>
      </trkpt>
      <trkpt lat="44.80344" lon="4.19446">
        <ele>1218.47</ele>
        <time>2022-10-04T10:12:49.809Z</time>
      </trkpt>
      <trkpt lat="44.80337" lon="4.19432">
        <ele>1218.75</ele>
        <time>2022-10-04T10:12:59.290Z</time>
      </trkpt>
      <trkpt lat="44.80329" lon="4.19418">
        <ele>1218.74</ele>
        <time>2022-10-04T10:13:08.828Z</time>
      </trkpt>
      <trkpt lat="44.80323" lon="4.19406">
        <ele>1218.61</ele>
        <time>2022-10-04T10:13:18.000Z</time>
      </trkpt>
      <trkpt lat="44.80315" lon="4.19391">
        <ele>1218.39</ele>
        <time>2022-10-04T10:13:27.548Z</time>
      </trkpt>
      <trkpt lat="44.80307" lon="4.19375">
        <ele>1218.07</ele>
        <time>2022-10-04T10:13:37.445Z</time>
      </trkpt>
      <trkpt lat="44.80301" lon="4.19359">
        <ele>1217.98</ele>
        <time>2022-10-04T10:13:47.446Z</time>
      </trkpt>
      <trkpt lat="44.80297" lon="4.19343">
        <ele>1217.85</ele>
        <time>2022-10-04T10:13:56.825Z</time>
      </trkpt>
      <trkpt lat="44.80293" lon="4.19329">
        <ele>1217.62</ele>
        <time>2022-10-04T10:14:06.403Z</time>
      </trkpt>
      <trkpt lat="44.80289" lon="4.19313">
        <ele>1217.1</ele>
        <time>2022-10-04T10:14:15.813Z</time>
      </trkpt>
      <trkpt lat="44.80286" lon="4.193">
        <ele>1216.43</ele>
        <time>2022-10-04T10:14:25.000Z</time>
      </trkpt>
      <trkpt lat="44.80279" lon="4.19282">
        <ele>1215.31</ele>
        <time>2022-10-04T10:14:34.309Z</time>
      </trkpt>
      <trkpt lat="44.80274" lon="4.19266">
        <ele>1214.32</ele>
        <time>2022-10-04T10:14:43.609Z</time>
      </trkpt>
      <trkpt lat="44.8027" lon="4.19248">
        <ele>1213.35</ele>
        <time>2022-10-04T10:14:52.906Z</time>
      </trkpt>
      <trkpt lat="44.80266" lon="4.19235">
        <ele>1212.66</ele>
        <time>2022-10-04T10:15:02.000Z</time>
      </trkpt>
      <trkpt lat="44.80261" lon="4.19216">
        <ele>1211.69</ele>
        <time>2022-10-04T10:15:11.525Z</time>
      </trkpt>
      <trkpt lat="44.80256" lon="4.192">
        <ele>1210.98</ele>
        <time>2022-10-04T10:15:20.806Z</time>
      </trkpt>
      <trkpt lat="44.80252" lon="4.19185">
        <ele>1210.38</ele>
        <time>2022-10-04T10:15:31.000Z</time>
      </trkpt>
      <trkpt lat="44.80248" lon="4.19167">
        <ele>1209.93</ele>
        <time>2022-10-04T10:15:40.545Z</time>
      </trkpt>
      <trkpt lat="44.80244" lon="4.19153">
        <ele>1209.64</ele>
        <time>2022-10-04T10:15:50.000Z</time>
      </trkpt>
      <trkpt lat="44.80239" lon="4.19135">
        <ele>1209.32</ele>
        <time>2022-10-04T10:15:59.244Z</time>
      </trkpt>
      <trkpt lat="44.80233" lon="4.19119">
        <ele>1209.1</ele>
        <time>2022-10-04T10:16:08.691Z</time>
      </trkpt>
      <trkpt lat="44.80227" lon="4.19103">
        <ele>1208.99</ele>
        <time>2022-10-04T10:16:18.312Z</time>
      </trkpt>
      <trkpt lat="44.80224" lon="4.19086">
        <ele>1209.21</ele>
        <time>2022-10-04T10:16:27.791Z</time>
      </trkpt>
      <trkpt lat="44.80217" lon="4.19073">
        <ele>1209.3</ele>
        <time>2022-10-04T10:16:38.000Z</time>
      </trkpt>
      <trkpt lat="44.80207" lon="4.19058">
        <ele>1209.4</ele>
        <time>2022-10-04T10:16:47.217Z</time>
      </trkpt>
      <trkpt lat="44.80197" lon="4.1905">
        <ele>1209.1</ele>
        <time>2022-10-04T10:16:56.408Z</time>
      </trkpt>
      <trkpt lat="44.80185" lon="4.19042">
        <ele>1208.48</ele>
        <time>2022-10-04T10:17:05.787Z</time>
      </trkpt>
      <trkpt lat="44.80174" lon="4.19034">
        <ele>1207.94</ele>
        <time>2022-10-04T10:17:16.000Z</time>
      </trkpt>
      <trkpt lat="44.80161" lon="4.19026">
        <ele>1207.42</ele>
        <time>2022-10-04T10:17:25.605Z</time>
      </trkpt>
      <trkpt lat="44.80152" lon="4.19017">
        <ele>1207.24</ele>
        <time>2022-10-04T10:17:34.999Z</time>
      </trkpt>
      <trkpt lat="44.8014" lon="4.19006">
        <ele>1207.1</ele>
        <time>2022-10-04T10:17:44.491Z</time>
      </trkpt>
      <trkpt lat="44.80132" lon="4.18998">
        <ele>1206.95</ele>
        <time>2022-10-04T10:17:53.999Z</time>
      </trkpt>
      <trkpt lat="44.80121" lon="4.18983">
        <ele>1206.88</ele>
        <time>2022-10-04T10:18:03.451Z</time>
      </trkpt>
      <trkpt lat="44.80112" lon="4.18972">
        <ele>1206.69</ele>
        <time>2022-10-04T10:18:13.999Z</time>
      </trkpt>
      <trkpt lat="44.80099" lon="4.18962">
        <ele>1206.02</ele>
        <time>2022-10-04T10:18:23.309Z</time>
      </trkpt>
      <trkpt lat="44.8009" lon="4.1895">
        <ele>1205.61</ele>
        <time>2022-10-04T10:18:32.709Z</time>
      </trkpt>
      <trkpt lat="44.80083" lon="4.18941">
        <ele>1205.29</ele>
        <time>2022-10-04T10:18:41.999Z</time>
      </trkpt>
      <trkpt lat="44.80071" lon="4.18927">
        <ele>1204.79</ele>
        <time>2022-10-04T10:18:51.568Z</time>
      </trkpt>
      <trkpt lat="44.80063" lon="4.18917">
        <ele>1204.44</ele>
        <time>2022-10-04T10:19:00.999Z</time>
      </trkpt>
      <trkpt lat="44.80052" lon="4.18903">
        <ele>1204.03</ele>
        <time>2022-10-04T10:19:10.507Z</time>
      </trkpt>
      <trkpt lat="44.80043" lon="4.18893">
        <ele>1203.61</ele>
        <time>2022-10-04T10:19:19.999Z</time>
      </trkpt>
      <trkpt lat="44.80031" lon="4.18881">
        <ele>1202.87</ele>
        <time>2022-10-04T10:19:29.404Z</time>
      </trkpt>
      <trkpt lat="44.80023" lon="4.18869">
        <ele>1202.29</ele>
        <time>2022-10-04T10:19:38.930Z</time>
      </trkpt>
      <trkpt lat="44.80016" lon="4.18858">
        <ele>1201.66</ele>
        <time>2022-10-04T10:19:48.190Z</time>
      </trkpt>
      <trkpt lat="44.80006" lon="4.18859">
        <ele>1200.78</ele>
        <time>2022-10-04T10:20:01.529Z</time>
      </trkpt>
      <trkpt lat="44.79996" lon="4.18863">
        <ele>1199.85</ele>
        <time>2022-10-04T10:20:11.642Z</time>
      </trkpt>
      <trkpt lat="44.79989" lon="4.18871">
        <ele>1199.17</ele>
        <time>2022-10-04T10:20:21.389Z</time>
      </trkpt>
      <trkpt lat="44.79985" lon="4.18885">
        <ele>1198.72</ele>
        <time>2022-10-04T10:20:30.527Z</time>
      </trkpt>
      <trkpt lat="44.79981" lon="4.18902">
        <ele>1197.87</ele>
        <time>2022-10-04T10:20:40.213Z</time>
      </trkpt>
      <trkpt lat="44.79979" lon="4.18918">
        <ele>1196.83</ele>
        <time>2022-10-04T10:20:49.605Z</time>
      </trkpt>
      <trkpt lat="44.7998" lon="4.18936">
        <ele>1195.37</ele>
        <time>2022-10-04T10:20:59.144Z</time>
      </trkpt>
      <trkpt lat="44.79983" lon="4.18951">
        <ele>1194.05</ele>
        <time>2022-10-04T10:21:08.543Z</time>
      </trkpt>
      <trkpt lat="44.79987" lon="4.18968">
        <ele>1192.51</ele>
        <time>2022-10-04T10:21:17.852Z</time>
      </trkpt>
      <trkpt lat="44.79989" lon="4.18985">
        <ele>1190.94</ele>
        <time>2022-10-04T10:21:27.309Z</time>
      </trkpt>
      <trkpt lat="44.79992" lon="4.19002">
        <ele>1189.79</ele>
        <time>2022-10-04T10:21:36.690Z</time>
      </trkpt>
      <trkpt lat="44.79994" lon="4.19019">
        <ele>1188.69</ele>
        <time>2022-10-04T10:21:46.999Z</time>
      </trkpt>
      <trkpt lat="44.79993" lon="4.19038">
        <ele>1187.17</ele>
        <time>2022-10-04T10:21:56.999Z</time>
      </trkpt>
      <trkpt lat="44.79991" lon="4.19058">
        <ele>1185.95</ele>
        <time>2022-10-04T10:22:06.768Z</time>
      </trkpt>
      <trkpt lat="44.79985" lon="4.19075">
        <ele>1185.49</ele>
        <time>2022-10-04T10:22:16.224Z</time>
      </trkpt>
      <trkpt lat="44.79979" lon="4.19086">
        <ele>1185.72</ele>
        <time>2022-10-04T10:22:33.503Z</time>
      </trkpt>
      <trkpt lat="44.79967" lon="4.19097">
        <ele>1186.58</ele>
        <time>2022-10-04T10:22:42.892Z</time>
      </trkpt>
      <trkpt lat="44.79958" lon="4.19108">
        <ele>1187.84</ele>
        <time>2022-10-04T10:22:52.315Z</time>
      </trkpt>
      <trkpt lat="44.79948" lon="4.19115">
        <ele>1189.02</ele>
        <time>2022-10-04T10:23:01.758Z</time>
      </trkpt>
      <trkpt lat="44.79937" lon="4.19124">
        <ele>1190.33</ele>
        <time>2022-10-04T10:23:11.250Z</time>
      </trkpt>
      <trkpt lat="44.79928" lon="4.19133">
        <ele>1191.6</ele>
        <time>2022-10-04T10:23:20.436Z</time>
      </trkpt>
      <trkpt lat="44.79919" lon="4.19143">
        <ele>1192.86</ele>
        <time>2022-10-04T10:23:29.690Z</time>
      </trkpt>
      <trkpt lat="44.79912" lon="4.19154">
        <ele>1194.09</ele>
        <time>2022-10-04T10:23:39.048Z</time>
      </trkpt>
      <trkpt lat="44.79904" lon="4.19164">
        <ele>1195.28</ele>
        <time>2022-10-04T10:23:48.214Z</time>
      </trkpt>
      <trkpt lat="44.79895" lon="4.19176">
        <ele>1196.66</ele>
        <time>2022-10-04T10:23:57.368Z</time>
      </trkpt>
      <trkpt lat="44.79889" lon="4.19189">
        <ele>1198.1</ele>
        <time>2022-10-04T10:24:06.426Z</time>
      </trkpt>
      <trkpt lat="44.79883" lon="4.19203">
        <ele>1199.61</ele>
        <time>2022-10-04T10:24:15.903Z</time>
      </trkpt>
      <trkpt lat="44.79876" lon="4.19218">
        <ele>1201.24</ele>
        <time>2022-10-04T10:24:25.404Z</time>
      </trkpt>
      <trkpt lat="44.7987" lon="4.19231">
        <ele>1202.64</ele>
        <time>2022-10-04T10:24:34.503Z</time>
      </trkpt>
      <trkpt lat="44.79866" lon="4.19245">
        <ele>1203.98</ele>
        <time>2022-10-04T10:24:43.692Z</time>
      </trkpt>
      <trkpt lat="44.79861" lon="4.19258">
        <ele>1205.3</ele>
        <time>2022-10-04T10:24:53.999Z</time>
      </trkpt>
      <trkpt lat="44.79856" lon="4.19274">
        <ele>1206.71</ele>
        <time>2022-10-04T10:25:03.350Z</time>
      </trkpt>
      <trkpt lat="44.79851" lon="4.19288">
        <ele>1207.93</ele>
        <time>2022-10-04T10:25:12.528Z</time>
      </trkpt>
      <trkpt lat="44.7985" lon="4.19301">
        <ele>1208.84</ele>
        <time>2022-10-04T10:25:38.105Z</time>
      </trkpt>
      <trkpt lat="44.79855" lon="4.19315">
        <ele>1209.77</ele>
        <time>2022-10-04T10:25:47.324Z</time>
      </trkpt>
      <trkpt lat="44.79854" lon="4.19331">
        <ele>1210.92</ele>
        <time>2022-10-04T10:25:56.624Z</time>
      </trkpt>
      <trkpt lat="44.79854" lon="4.19348">
        <ele>1212.04</ele>
        <time>2022-10-04T10:26:05.902Z</time>
      </trkpt>
      <trkpt lat="44.79853" lon="4.19361">
        <ele>1212.9</ele>
        <time>2022-10-04T10:26:16.000Z</time>
      </trkpt>
      <trkpt lat="44.79857" lon="4.19375">
        <ele>1214.02</ele>
        <time>2022-10-04T10:26:34.733Z</time>
      </trkpt>
      <trkpt lat="44.79861" lon="4.1939">
        <ele>1215.28</ele>
        <time>2022-10-04T10:26:45.000Z</time>
      </trkpt>
      <trkpt lat="44.79866" lon="4.19401">
        <ele>1216.48</ele>
        <time>2022-10-04T10:26:58.390Z</time>
      </trkpt>
      <trkpt lat="44.79872" lon="4.19417">
        <ele>1218.4</ele>
        <time>2022-10-04T10:27:07.430Z</time>
      </trkpt>
      <trkpt lat="44.79876" lon="4.1943">
        <ele>1220.08</ele>
        <time>2022-10-04T10:27:17.000Z</time>
      </trkpt>
      <trkpt lat="44.79883" lon="4.19444">
        <ele>1222.16</ele>
        <time>2022-10-04T10:27:26.806Z</time>
      </trkpt>
      <trkpt lat="44.79886" lon="4.19456">
        <ele>1223.84</ele>
        <time>2022-10-04T10:27:36.426Z</time>
      </trkpt>
      <trkpt lat="44.79893" lon="4.19467">
        <ele>1225.57</ele>
        <time>2022-10-04T10:27:45.586Z</time>
      </trkpt>
      <trkpt lat="44.799" lon="4.19477">
        <ele>1227.33</ele>
        <time>2022-10-04T10:27:54.644Z</time>
      </trkpt>
      <trkpt lat="44.79904" lon="4.19488">
        <ele>1228.87</ele>
        <time>2022-10-04T10:28:05.000Z</time>
      </trkpt>
      <trkpt lat="44.79909" lon="4.195">
        <ele>1230.47</ele>
        <time>2022-10-04T10:28:14.411Z</time>
      </trkpt>
      <trkpt lat="44.79914" lon="4.19512">
        <ele>1231.94</ele>
        <time>2022-10-04T10:28:23.592Z</time>
      </trkpt>
      <trkpt lat="44.79919" lon="4.19525">
        <ele>1233.44</ele>
        <time>2022-10-04T10:28:32.769Z</time>
      </trkpt>
      <trkpt lat="44.7992" lon="4.1954">
        <ele>1234.76</ele>
        <time>2022-10-04T10:28:41.877Z</time>
      </trkpt>
      <trkpt lat="44.79924" lon="4.19554">
        <ele>1236.03</ele>
        <time>2022-10-04T10:28:50.954Z</time>
      </trkpt>
      <trkpt lat="44.79926" lon="4.19568">
        <ele>1237.14</ele>
        <time>2022-10-04T10:28:59.967Z</time>
      </trkpt>
      <trkpt lat="44.79926" lon="4.19582">
        <ele>1238.13</ele>
        <time>2022-10-04T10:29:12.647Z</time>
      </trkpt>
      <trkpt lat="44.79929" lon="4.19597">
        <ele>1239.07</ele>
        <time>2022-10-04T10:29:21.753Z</time>
      </trkpt>
      <trkpt lat="44.79929" lon="4.19612">
        <ele>1239.98</ele>
        <time>2022-10-04T10:29:31.352Z</time>
      </trkpt>
      <trkpt lat="44.79929" lon="4.19628">
        <ele>1240.87</ele>
        <time>2022-10-04T10:29:40.925Z</time>
      </trkpt>
      <trkpt lat="44.79928" lon="4.19644">
        <ele>1241.73</ele>
        <time>2022-10-04T10:29:50.325Z</time>
      </trkpt>
      <trkpt lat="44.79928" lon="4.19659">
        <ele>1242.54</ele>
        <time>2022-10-04T10:29:59.664Z</time>
      </trkpt>
      <trkpt lat="44.79926" lon="4.19676">
        <ele>1243.58</ele>
        <time>2022-10-04T10:30:10.000Z</time>
      </trkpt>
      <trkpt lat="44.79924" lon="4.19694">
        <ele>1244.57</ele>
        <time>2022-10-04T10:30:19.375Z</time>
      </trkpt>
      <trkpt lat="44.79921" lon="4.19708">
        <ele>1245.38</ele>
        <time>2022-10-04T10:30:28.752Z</time>
      </trkpt>
      <trkpt lat="44.7992" lon="4.19721">
        <ele>1246.11</ele>
        <time>2022-10-04T10:30:46.925Z</time>
      </trkpt>
      <trkpt lat="44.79918" lon="4.19739">
        <ele>1247.23</ele>
        <time>2022-10-04T10:30:56.224Z</time>
      </trkpt>
      <trkpt lat="44.7992" lon="4.19755">
        <ele>1248.37</ele>
        <time>2022-10-04T10:31:05.625Z</time>
      </trkpt>
      <trkpt lat="44.79921" lon="4.19771">
        <ele>1249.69</ele>
        <time>2022-10-04T10:31:15.025Z</time>
      </trkpt>
      <trkpt lat="44.79921" lon="4.19785">
        <ele>1250.98</ele>
        <time>2022-10-04T10:31:25.000Z</time>
      </trkpt>
      <trkpt lat="44.79922" lon="4.198">
        <ele>1252.33</ele>
        <time>2022-10-04T10:31:35.852Z</time>
      </trkpt>
      <trkpt lat="44.79918" lon="4.19812">
        <ele>1253.45</ele>
        <time>2022-10-04T10:32:03.571Z</time>
      </trkpt>
      <trkpt lat="44.79915" lon="4.1983">
        <ele>1254.76</ele>
        <time>2022-10-04T10:32:13.607Z</time>
      </trkpt>
      <trkpt lat="44.79913" lon="4.19846">
        <ele>1255.61</ele>
        <time>2022-10-04T10:32:23.708Z</time>
      </trkpt>
      <trkpt lat="44.79912" lon="4.19858">
        <ele>1256.16</ele>
        <time>2022-10-04T10:32:33.000Z</time>
      </trkpt>
      <trkpt lat="44.79909" lon="4.19875">
        <ele>1256.69</ele>
        <time>2022-10-04T10:32:42.104Z</time>
      </trkpt>
      <trkpt lat="44.79906" lon="4.1989">
        <ele>1257.01</ele>
        <time>2022-10-04T10:32:51.229Z</time>
      </trkpt>
      <trkpt lat="44.79902" lon="4.19905">
        <ele>1257.27</ele>
        <time>2022-10-04T10:33:00.369Z</time>
      </trkpt>
      <trkpt lat="44.79898" lon="4.19921">
        <ele>1257.56</ele>
        <time>2022-10-04T10:33:09.509Z</time>
      </trkpt>
      <trkpt lat="44.79892" lon="4.19935">
        <ele>1257.71</ele>
        <time>2022-10-04T10:33:18.569Z</time>
      </trkpt>
      <trkpt lat="44.79889" lon="4.19946">
        <ele>1257.89</ele>
        <time>2022-10-04T10:34:28.999Z</time>
      </trkpt>
      <trkpt lat="44.79887" lon="4.1996">
        <ele>1258.19</ele>
        <time>2022-10-04T10:34:39.999Z</time>
      </trkpt>
      <trkpt lat="44.79885" lon="4.19973">
        <ele>1258.52</ele>
        <time>2022-10-04T10:34:50.630Z</time>
      </trkpt>
      <trkpt lat="44.79884" lon="4.19988">
        <ele>1258.8</ele>
        <time>2022-10-04T10:34:59.646Z</time>
      </trkpt>
      <trkpt lat="44.79882" lon="4.20004">
        <ele>1259.04</ele>
        <time>2022-10-04T10:35:08.648Z</time>
      </trkpt>
      <trkpt lat="44.79878" lon="4.20021">
        <ele>1258.97</ele>
        <time>2022-10-04T10:35:18.025Z</time>
      </trkpt>
      <trkpt lat="44.79874" lon="4.20038">
        <ele>1258.84</ele>
        <time>2022-10-04T10:35:27.604Z</time>
      </trkpt>
      <trkpt lat="44.79871" lon="4.20054">
        <ele>1258.75</ele>
        <time>2022-10-04T10:35:37.591Z</time>
      </trkpt>
      <trkpt lat="44.79868" lon="4.20069">
        <ele>1258.68</ele>
        <time>2022-10-04T10:35:46.592Z</time>
      </trkpt>
      <trkpt lat="44.79867" lon="4.20085">
        <ele>1258.86</ele>
        <time>2022-10-04T10:35:56.058Z</time>
      </trkpt>
      <trkpt lat="44.79863" lon="4.20102">
        <ele>1259.05</ele>
        <time>2022-10-04T10:36:05.669Z</time>
      </trkpt>
      <trkpt lat="44.79862" lon="4.20119">
        <ele>1259.44</ele>
        <time>2022-10-04T10:36:15.007Z</time>
      </trkpt>
      <trkpt lat="44.7986" lon="4.20136">
        <ele>1259.86</ele>
        <time>2022-10-04T10:36:24.507Z</time>
      </trkpt>
      <trkpt lat="44.79855" lon="4.20152">
        <ele>1260.25</ele>
        <time>2022-10-04T10:36:33.784Z</time>
      </trkpt>
      <trkpt lat="44.79853" lon="4.20166">
        <ele>1260.63</ele>
        <time>2022-10-04T10:36:42.999Z</time>
      </trkpt>
      <trkpt lat="44.79849" lon="4.20186">
        <ele>1261.2</ele>
        <time>2022-10-04T10:36:52.213Z</time>
      </trkpt>
      <trkpt lat="44.79846" lon="4.20202">
        <ele>1261.72</ele>
        <time>2022-10-04T10:37:01.413Z</time>
      </trkpt>
      <trkpt lat="44.7984" lon="4.20219">
        <ele>1262.16</ele>
        <time>2022-10-04T10:37:11.252Z</time>
      </trkpt>
      <trkpt lat="44.79835" lon="4.20233">
        <ele>1262.53</ele>
        <time>2022-10-04T10:37:20.590Z</time>
      </trkpt>
      <trkpt lat="44.79831" lon="4.20249">
        <ele>1262.9</ele>
        <time>2022-10-04T10:37:29.915Z</time>
      </trkpt>
      <trkpt lat="44.79829" lon="4.20266">
        <ele>1263.26</ele>
        <time>2022-10-04T10:37:39.212Z</time>
      </trkpt>
      <trkpt lat="44.79826" lon="4.20283">
        <ele>1263.53</ele>
        <time>2022-10-04T10:37:48.725Z</time>
      </trkpt>
      <trkpt lat="44.79826" lon="4.20301">
        <ele>1263.89</ele>
        <time>2022-10-04T10:37:58.648Z</time>
      </trkpt>
      <trkpt lat="44.79824" lon="4.20317">
        <ele>1264.18</ele>
        <time>2022-10-04T10:38:07.883Z</time>
      </trkpt>
      <trkpt lat="44.79824" lon="4.20331">
        <ele>1264.58</ele>
        <time>2022-10-04T10:38:16.999Z</time>
      </trkpt>
      <trkpt lat="44.79819" lon="4.20349">
        <ele>1264.99</ele>
        <time>2022-10-04T10:38:26.513Z</time>
      </trkpt>
      <trkpt lat="44.79816" lon="4.20365">
        <ele>1265.49</ele>
        <time>2022-10-04T10:38:36.999Z</time>
      </trkpt>
      <trkpt lat="44.79812" lon="4.2038">
        <ele>1265.93</ele>
        <time>2022-10-04T10:38:46.999Z</time>
      </trkpt>
      <trkpt lat="44.79802" lon="4.20391">
        <ele>1265.89</ele>
        <time>2022-10-04T10:38:56.223Z</time>
      </trkpt>
      <trkpt lat="44.79795" lon="4.20403">
        <ele>1266.05</ele>
        <time>2022-10-04T10:39:05.350Z</time>
      </trkpt>
      <trkpt lat="44.79789" lon="4.20412">
        <ele>1266.18</ele>
        <time>2022-10-04T10:39:14.999Z</time>
      </trkpt>
      <trkpt lat="44.7978" lon="4.20426">
        <ele>1266.41</ele>
        <time>2022-10-04T10:39:24.085Z</time>
      </trkpt>
      <trkpt lat="44.79772" lon="4.20438">
        <ele>1266.76</ele>
        <time>2022-10-04T10:39:33.264Z</time>
      </trkpt>
      <trkpt lat="44.79764" lon="4.20449">
        <ele>1267.22</ele>
        <time>2022-10-04T10:39:42.464Z</time>
      </trkpt>
      <trkpt lat="44.79763" lon="4.20464">
        <ele>1268.04</ele>
        <time>2022-10-04T10:39:51.511Z</time>
      </trkpt>
      <trkpt lat="44.79758" lon="4.20477">
        <ele>1268.75</ele>
        <time>2022-10-04T10:40:00.652Z</time>
      </trkpt>
      <trkpt lat="44.79748" lon="4.20488">
        <ele>1269.39</ele>
        <time>2022-10-04T10:40:09.972Z</time>
      </trkpt>
      <trkpt lat="44.7974" lon="4.20502">
        <ele>1270.2</ele>
        <time>2022-10-04T10:40:19.428Z</time>
      </trkpt>
      <trkpt lat="44.79731" lon="4.20509">
        <ele>1270.7</ele>
        <time>2022-10-04T10:40:28.728Z</time>
      </trkpt>
      <trkpt lat="44.79722" lon="4.20515">
        <ele>1271.15</ele>
        <time>2022-10-04T10:40:38.588Z</time>
      </trkpt>
      <trkpt lat="44.79711" lon="4.20521">
        <ele>1271.68</ele>
        <time>2022-10-04T10:40:47.745Z</time>
      </trkpt>
      <trkpt lat="44.79701" lon="4.20528">
        <ele>1272.27</ele>
        <time>2022-10-04T10:40:56.951Z</time>
      </trkpt>
      <trkpt lat="44.79691" lon="4.20537">
        <ele>1272.87</ele>
        <time>2022-10-04T10:41:06.045Z</time>
      </trkpt>
      <trkpt lat="44.79682" lon="4.20547">
        <ele>1273.47</ele>
        <time>2022-10-04T10:41:15.124Z</time>
      </trkpt>
      <trkpt lat="44.79675" lon="4.20559">
        <ele>1274.05</ele>
        <time>2022-10-04T10:41:24.443Z</time>
      </trkpt>
      <trkpt lat="44.7967" lon="4.20571">
        <ele>1274.56</ele>
        <time>2022-10-04T10:41:33.673Z</time>
      </trkpt>
      <trkpt lat="44.79666" lon="4.20587">
        <ele>1275.13</ele>
        <time>2022-10-04T10:41:42.690Z</time>
      </trkpt>
      <trkpt lat="44.79663" lon="4.20601">
        <ele>1275.5</ele>
        <time>2022-10-04T10:41:52.000Z</time>
      </trkpt>
      <trkpt lat="44.79655" lon="4.20612">
        <ele>1275.52</ele>
        <time>2022-10-04T10:42:01.309Z</time>
      </trkpt>
      <trkpt lat="44.79645" lon="4.20616">
        <ele>1275.18</ele>
        <time>2022-10-04T10:42:12.000Z</time>
      </trkpt>
      <trkpt lat="44.79633" lon="4.20624">
        <ele>1274.56</ele>
        <time>2022-10-04T10:42:21.606Z</time>
      </trkpt>
      <trkpt lat="44.79625" lon="4.20632">
        <ele>1274.04</ele>
        <time>2022-10-04T10:42:31.000Z</time>
      </trkpt>
      <trkpt lat="44.79612" lon="4.20638">
        <ele>1273.07</ele>
        <time>2022-10-04T10:42:40.703Z</time>
      </trkpt>
      <trkpt lat="44.79601" lon="4.20643">
        <ele>1272.22</ele>
        <time>2022-10-04T10:42:52.000Z</time>
      </trkpt>
      <trkpt lat="44.79591" lon="4.20641">
        <ele>1271.46</ele>
        <time>2022-10-04T10:43:17.499Z</time>
      </trkpt>
      <trkpt lat="44.79584" lon="4.2063">
        <ele>1271.05</ele>
        <time>2022-10-04T10:43:27.000Z</time>
      </trkpt>
      <trkpt lat="44.79576" lon="4.20625">
        <ele>1270.57</ele>
        <time>2022-10-04T10:43:48.204Z</time>
      </trkpt>
      <trkpt lat="44.79564" lon="4.20627">
        <ele>1269.77</ele>
        <time>2022-10-04T10:43:57.622Z</time>
      </trkpt>
      <trkpt lat="44.79555" lon="4.20633">
        <ele>1269.17</ele>
        <time>2022-10-04T10:44:06.904Z</time>
      </trkpt>
      <trkpt lat="44.7955" lon="4.20644">
        <ele>1268.83</ele>
        <time>2022-10-04T10:44:17.000Z</time>
      </trkpt>
      <trkpt lat="44.79549" lon="4.20657">
        <ele>1268.73</ele>
        <time>2022-10-04T10:44:26.738Z</time>
      </trkpt>
      <trkpt lat="44.79542" lon="4.2067">
        <ele>1268.42</ele>
        <time>2022-10-04T10:44:36.369Z</time>
      </trkpt>
      <trkpt lat="44.79536" lon="4.20682">
        <ele>1268.21</ele>
        <time>2022-10-04T10:44:51.787Z</time>
      </trkpt>
      <trkpt lat="44.7953" lon="4.20701">
        <ele>1268.01</ele>
        <time>2022-10-04T10:45:00.944Z</time>
      </trkpt>
      <trkpt lat="44.79525" lon="4.20717">
        <ele>1267.86</ele>
        <time>2022-10-04T10:45:10.363Z</time>
      </trkpt>
      <trkpt lat="44.7952" lon="4.20732">
        <ele>1267.57</ele>
        <time>2022-10-04T10:45:21.000Z</time>
      </trkpt>
      <trkpt lat="44.79515" lon="4.20748">
        <ele>1267.26</ele>
        <time>2022-10-04T10:45:31.000Z</time>
      </trkpt>
      <trkpt lat="44.79508" lon="4.20764">
        <ele>1266.69</ele>
        <time>2022-10-04T10:45:40.810Z</time>
      </trkpt>
      <trkpt lat="44.79501" lon="4.20776">
        <ele>1266.14</ele>
        <time>2022-10-04T10:45:49.849Z</time>
      </trkpt>
      <trkpt lat="44.79496" lon="4.20789">
        <ele>1265.76</ele>
        <time>2022-10-04T10:45:59.000Z</time>
      </trkpt>
      <trkpt lat="44.79491" lon="4.20806">
        <ele>1265.16</ele>
        <time>2022-10-04T10:46:08.210Z</time>
      </trkpt>
      <trkpt lat="44.79485" lon="4.20819">
        <ele>1264.44</ele>
        <time>2022-10-04T10:46:17.445Z</time>
      </trkpt>
      <trkpt lat="44.79481" lon="4.20834">
        <ele>1263.83</ele>
        <time>2022-10-04T10:46:26.768Z</time>
      </trkpt>
      <trkpt lat="44.79474" lon="4.20846">
        <ele>1262.89</ele>
        <time>2022-10-04T10:46:36.304Z</time>
      </trkpt>
      <trkpt lat="44.7947" lon="4.2086">
        <ele>1262.16</ele>
        <time>2022-10-04T10:46:46.000Z</time>
      </trkpt>
      <trkpt lat="44.79461" lon="4.20874">
        <ele>1260.95</ele>
        <time>2022-10-04T10:46:55.291Z</time>
      </trkpt>
      <trkpt lat="44.79458" lon="4.20887">
        <ele>1260.37</ele>
        <time>2022-10-04T10:47:04.710Z</time>
      </trkpt>
      <trkpt lat="44.79465" lon="4.20895">
        <ele>1261.03</ele>
        <time>2022-10-04T10:47:47.000Z</time>
      </trkpt>
      <trkpt lat="44.79469" lon="4.20908">
        <ele>1261.08</ele>
        <time>2022-10-04T10:51:09.999Z</time>
      </trkpt>
      <trkpt lat="44.7947" lon="4.20895">
        <ele>1261.53</ele>
        <time>2022-10-04T11:17:30.745Z</time>
      </trkpt>
      <trkpt lat="44.79461" lon="4.20897">
        <ele>1260.49</ele>
        <time>2022-10-04T11:17:43.000Z</time>
      </trkpt>
      <trkpt lat="44.79455" lon="4.20907">
        <ele>1259.67</ele>
        <time>2022-10-04T11:19:34.890Z</time>
      </trkpt>
      <trkpt lat="44.79453" lon="4.20924">
        <ele>1258.85</ele>
        <time>2022-10-04T11:19:44.468Z</time>
      </trkpt>
      <trkpt lat="44.7945" lon="4.20938">
        <ele>1257.96</ele>
        <time>2022-10-04T11:19:54.999Z</time>
      </trkpt>
      <trkpt lat="44.7945" lon="4.20956">
        <ele>1257.06</ele>
        <time>2022-10-04T11:20:04.145Z</time>
      </trkpt>
      <trkpt lat="44.79459" lon="4.20966">
        <ele>1257.2</ele>
        <time>2022-10-04T11:20:13.444Z</time>
      </trkpt>
      <trkpt lat="44.79471" lon="4.20974">
        <ele>1257.66</ele>
        <time>2022-10-04T11:20:22.922Z</time>
      </trkpt>
      <trkpt lat="44.79482" lon="4.20984">
        <ele>1257.8</ele>
        <time>2022-10-04T11:20:32.704Z</time>
      </trkpt>
      <trkpt lat="44.79492" lon="4.20995">
        <ele>1257.81</ele>
        <time>2022-10-04T11:20:42.484Z</time>
      </trkpt>
      <trkpt lat="44.795" lon="4.21005">
        <ele>1257.72</ele>
        <time>2022-10-04T11:20:51.999Z</time>
      </trkpt>
      <trkpt lat="44.79507" lon="4.21023">
        <ele>1257.24</ele>
        <time>2022-10-04T11:21:01.783Z</time>
      </trkpt>
      <trkpt lat="44.79511" lon="4.21037">
        <ele>1256.85</ele>
        <time>2022-10-04T11:21:10.865Z</time>
      </trkpt>
      <trkpt lat="44.79514" lon="4.21051">
        <ele>1256.45</ele>
        <time>2022-10-04T11:21:19.999Z</time>
      </trkpt>
      <trkpt lat="44.79512" lon="4.2107">
        <ele>1255.84</ele>
        <time>2022-10-04T11:21:29.757Z</time>
      </trkpt>
      <trkpt lat="44.79513" lon="4.21086">
        <ele>1255.52</ele>
        <time>2022-10-04T11:21:39.530Z</time>
      </trkpt>
      <trkpt lat="44.79512" lon="4.21101">
        <ele>1255.38</ele>
        <time>2022-10-04T11:21:49.107Z</time>
      </trkpt>
      <trkpt lat="44.79513" lon="4.21121">
        <ele>1255.6</ele>
        <time>2022-10-04T11:21:58.776Z</time>
      </trkpt>
      <trkpt lat="44.79512" lon="4.21134">
        <ele>1255.7</ele>
        <time>2022-10-04T11:22:15.885Z</time>
      </trkpt>
      <trkpt lat="44.7951" lon="4.21154">
        <ele>1255.7</ele>
        <time>2022-10-04T11:22:25.664Z</time>
      </trkpt>
      <trkpt lat="44.7951" lon="4.21169">
        <ele>1255.44</ele>
        <time>2022-10-04T11:22:34.999Z</time>
      </trkpt>
      <trkpt lat="44.7951" lon="4.21189">
        <ele>1254.65</ele>
        <time>2022-10-04T11:22:44.999Z</time>
      </trkpt>
      <trkpt lat="44.7951" lon="4.21208">
        <ele>1253.67</ele>
        <time>2022-10-04T11:22:54.564Z</time>
      </trkpt>
      <trkpt lat="44.79514" lon="4.21224">
        <ele>1252.89</ele>
        <time>2022-10-04T11:23:04.073Z</time>
      </trkpt>
      <trkpt lat="44.79515" lon="4.21242">
        <ele>1252.11</ele>
        <time>2022-10-04T11:23:13.510Z</time>
      </trkpt>
      <trkpt lat="44.79517" lon="4.21259">
        <ele>1251.53</ele>
        <time>2022-10-04T11:23:23.999Z</time>
      </trkpt>
      <trkpt lat="44.79517" lon="4.21278">
        <ele>1250.94</ele>
        <time>2022-10-04T11:23:33.409Z</time>
      </trkpt>
      <trkpt lat="44.79517" lon="4.21295">
        <ele>1250.54</ele>
        <time>2022-10-04T11:23:43.999Z</time>
      </trkpt>
      <trkpt lat="44.79514" lon="4.21315">
        <ele>1249.98</ele>
        <time>2022-10-04T11:23:53.373Z</time>
      </trkpt>
      <trkpt lat="44.79509" lon="4.2133">
        <ele>1249.49</ele>
        <time>2022-10-04T11:24:02.709Z</time>
      </trkpt>
      <trkpt lat="44.79505" lon="4.21343">
        <ele>1249.18</ele>
        <time>2022-10-04T11:24:11.999Z</time>
      </trkpt>
      <trkpt lat="44.795" lon="4.2136">
        <ele>1248.9</ele>
        <time>2022-10-04T11:24:21.999Z</time>
      </trkpt>
      <trkpt lat="44.79494" lon="4.21379">
        <ele>1248.63</ele>
        <time>2022-10-04T11:24:31.105Z</time>
      </trkpt>
      <trkpt lat="44.79488" lon="4.21392">
        <ele>1248.3</ele>
        <time>2022-10-04T11:24:40.999Z</time>
      </trkpt>
      <trkpt lat="44.79482" lon="4.2141">
        <ele>1247.95</ele>
        <time>2022-10-04T11:24:50.484Z</time>
      </trkpt>
      <trkpt lat="44.79478" lon="4.21426">
        <ele>1247.61</ele>
        <time>2022-10-04T11:24:59.863Z</time>
      </trkpt>
      <trkpt lat="44.79475" lon="4.21441">
        <ele>1247.35</ele>
        <time>2022-10-04T11:25:08.999Z</time>
      </trkpt>
      <trkpt lat="44.79469" lon="4.2146">
        <ele>1246.9</ele>
        <time>2022-10-04T11:25:18.730Z</time>
      </trkpt>
      <trkpt lat="44.79461" lon="4.21473">
        <ele>1246.54</ele>
        <time>2022-10-04T11:25:28.999Z</time>
      </trkpt>
      <trkpt lat="44.79459" lon="4.21487">
        <ele>1246.46</ele>
        <time>2022-10-04T11:25:45.390Z</time>
      </trkpt>
      <trkpt lat="44.79454" lon="4.21498">
        <ele>1246.28</ele>
        <time>2022-10-04T11:25:55.000Z</time>
      </trkpt>
      <trkpt lat="44.79451" lon="4.21512">
        <ele>1246.24</ele>
        <time>2022-10-04T11:26:04.327Z</time>
      </trkpt>
      <trkpt lat="44.79444" lon="4.21525">
        <ele>1246.15</ele>
        <time>2022-10-04T11:26:14.000Z</time>
      </trkpt>
      <trkpt lat="44.79435" lon="4.21539">
        <ele>1246.06</ele>
        <time>2022-10-04T11:26:23.215Z</time>
      </trkpt>
      <trkpt lat="44.79426" lon="4.21549">
        <ele>1245.96</ele>
        <time>2022-10-04T11:26:32.601Z</time>
      </trkpt>
      <trkpt lat="44.79418" lon="4.21561">
        <ele>1245.86</ele>
        <time>2022-10-04T11:26:42.041Z</time>
      </trkpt>
      <trkpt lat="44.79411" lon="4.21574">
        <ele>1245.75</ele>
        <time>2022-10-04T11:26:51.592Z</time>
      </trkpt>
      <trkpt lat="44.79406" lon="4.21589">
        <ele>1245.67</ele>
        <time>2022-10-04T11:27:00.690Z</time>
      </trkpt>
      <trkpt lat="44.79404" lon="4.21604">
        <ele>1245.58</ele>
        <time>2022-10-04T11:27:11.000Z</time>
      </trkpt>
      <trkpt lat="44.79408" lon="4.21623">
        <ele>1245.67</ele>
        <time>2022-10-04T11:27:20.868Z</time>
      </trkpt>
      <trkpt lat="44.79412" lon="4.21639">
        <ele>1245.75</ele>
        <time>2022-10-04T11:27:30.569Z</time>
      </trkpt>
      <trkpt lat="44.79415" lon="4.21652">
        <ele>1245.84</ele>
        <time>2022-10-04T11:27:40.000Z</time>
      </trkpt>
      <trkpt lat="44.79413" lon="4.2167">
        <ele>1245.93</ele>
        <time>2022-10-04T11:27:49.527Z</time>
      </trkpt>
      <trkpt lat="44.79407" lon="4.21685">
        <ele>1246.03</ele>
        <time>2022-10-04T11:28:00.000Z</time>
      </trkpt>
      <trkpt lat="44.79397" lon="4.21699">
        <ele>1246.04</ele>
        <time>2022-10-04T11:28:09.424Z</time>
      </trkpt>
      <trkpt lat="44.79386" lon="4.21707">
        <ele>1245.91</ele>
        <time>2022-10-04T11:28:18.885Z</time>
      </trkpt>
      <trkpt lat="44.79373" lon="4.21712">
        <ele>1245.58</ele>
        <time>2022-10-04T11:28:28.533Z</time>
      </trkpt>
      <trkpt lat="44.79361" lon="4.21715">
        <ele>1245.22</ele>
        <time>2022-10-04T11:28:37.870Z</time>
      </trkpt>
      <trkpt lat="44.7935" lon="4.21721">
        <ele>1245.01</ele>
        <time>2022-10-04T11:28:47.000Z</time>
      </trkpt>
      <trkpt lat="44.79336" lon="4.21725">
        <ele>1244.63</ele>
        <time>2022-10-04T11:28:56.311Z</time>
      </trkpt>
      <trkpt lat="44.79324" lon="4.21727">
        <ele>1244.26</ele>
        <time>2022-10-04T11:29:05.451Z</time>
      </trkpt>
      <trkpt lat="44.79312" lon="4.21726">
        <ele>1243.67</ele>
        <time>2022-10-04T11:29:16.000Z</time>
      </trkpt>
      <trkpt lat="44.79297" lon="4.2173">
        <ele>1243.22</ele>
        <time>2022-10-04T11:29:25.649Z</time>
      </trkpt>
      <trkpt lat="44.79287" lon="4.21731">
        <ele>1242.84</ele>
        <time>2022-10-04T11:29:35.000Z</time>
      </trkpt>
      <trkpt lat="44.79274" lon="4.21735">
        <ele>1242.44</ele>
        <time>2022-10-04T11:29:44.647Z</time>
      </trkpt>
      <trkpt lat="44.79264" lon="4.21742">
        <ele>1242.35</ele>
        <time>2022-10-04T11:29:54.000Z</time>
      </trkpt>
      <trkpt lat="44.79255" lon="4.21754">
        <ele>1242.45</ele>
        <time>2022-10-04T11:30:03.924Z</time>
      </trkpt>
      <trkpt lat="44.79248" lon="4.2177">
        <ele>1242.77</ele>
        <time>2022-10-04T11:30:13.524Z</time>
      </trkpt>
      <trkpt lat="44.79242" lon="4.21782">
        <ele>1242.99</ele>
        <time>2022-10-04T11:30:23.000Z</time>
      </trkpt>
      <trkpt lat="44.79233" lon="4.21799">
        <ele>1243.15</ele>
        <time>2022-10-04T11:30:32.556Z</time>
      </trkpt>
      <trkpt lat="44.79227" lon="4.21813">
        <ele>1243.29</ele>
        <time>2022-10-04T11:30:42.000Z</time>
      </trkpt>
      <trkpt lat="44.79218" lon="4.21829">
        <ele>1243.38</ele>
        <time>2022-10-04T11:30:51.830Z</time>
      </trkpt>
      <trkpt lat="44.79213" lon="4.21841">
        <ele>1243.62</ele>
        <time>2022-10-04T11:31:02.000Z</time>
      </trkpt>
      <trkpt lat="44.79204" lon="4.21856">
        <ele>1243.72</ele>
        <time>2022-10-04T11:31:11.026Z</time>
      </trkpt>
      <trkpt lat="44.79197" lon="4.2187">
        <ele>1243.8</ele>
        <time>2022-10-04T11:31:20.626Z</time>
      </trkpt>
      <trkpt lat="44.79192" lon="4.21883">
        <ele>1243.98</ele>
        <time>2022-10-04T11:31:30.000Z</time>
      </trkpt>
      <trkpt lat="44.79184" lon="4.21898">
        <ele>1244.08</ele>
        <time>2022-10-04T11:31:39.324Z</time>
      </trkpt>
      <trkpt lat="44.79176" lon="4.2191">
        <ele>1244.1</ele>
        <time>2022-10-04T11:31:48.590Z</time>
      </trkpt>
      <trkpt lat="44.79166" lon="4.21919">
        <ele>1244.05</ele>
        <time>2022-10-04T11:31:57.872Z</time>
      </trkpt>
      <trkpt lat="44.79156" lon="4.21929">
        <ele>1244.33</ele>
        <time>2022-10-04T11:32:07.216Z</time>
      </trkpt>
      <trkpt lat="44.79148" lon="4.21941">
        <ele>1244.86</ele>
        <time>2022-10-04T11:32:16.389Z</time>
      </trkpt>
      <trkpt lat="44.79142" lon="4.21951">
        <ele>1245.4</ele>
        <time>2022-10-04T11:32:25.625Z</time>
      </trkpt>
      <trkpt lat="44.79134" lon="4.2196">
        <ele>1245.91</ele>
        <time>2022-10-04T11:32:35.000Z</time>
      </trkpt>
      <trkpt lat="44.79127" lon="4.21971">
        <ele>1246.53</ele>
        <time>2022-10-04T11:32:44.344Z</time>
      </trkpt>
      <trkpt lat="44.79119" lon="4.21984">
        <ele>1247.28</ele>
        <time>2022-10-04T11:32:53.823Z</time>
      </trkpt>
      <trkpt lat="44.7911" lon="4.21994">
        <ele>1247.78</ele>
        <time>2022-10-04T11:33:02.883Z</time>
      </trkpt>
      <trkpt lat="44.79101" lon="4.22002">
        <ele>1248.16</ele>
        <time>2022-10-04T11:33:11.911Z</time>
      </trkpt>
      <trkpt lat="44.79093" lon="4.22012">
        <ele>1248.55</ele>
        <time>2022-10-04T11:33:21.031Z</time>
      </trkpt>
      <trkpt lat="44.79084" lon="4.22023">
        <ele>1248.94</ele>
        <time>2022-10-04T11:33:30.128Z</time>
      </trkpt>
      <trkpt lat="44.79079" lon="4.22036">
        <ele>1249.37</ele>
        <time>2022-10-04T11:33:39.267Z</time>
      </trkpt>
      <trkpt lat="44.79072" lon="4.22047">
        <ele>1249.64</ele>
        <time>2022-10-04T11:33:49.347Z</time>
      </trkpt>
      <trkpt lat="44.79069" lon="4.22059">
        <ele>1249.97</ele>
        <time>2022-10-04T11:34:05.466Z</time>
      </trkpt>
      <trkpt lat="44.79069" lon="4.22073">
        <ele>1250.28</ele>
        <time>2022-10-04T11:34:15.424Z</time>
      </trkpt>
      <trkpt lat="44.79066" lon="4.22086">
        <ele>1250.39</ele>
        <time>2022-10-04T11:34:24.704Z</time>
      </trkpt>
      <trkpt lat="44.79063" lon="4.22098">
        <ele>1250.39</ele>
        <time>2022-10-04T11:34:33.999Z</time>
      </trkpt>
      <trkpt lat="44.79061" lon="4.22113">
        <ele>1250.38</ele>
        <time>2022-10-04T11:34:43.205Z</time>
      </trkpt>
      <trkpt lat="44.79056" lon="4.22127">
        <ele>1250.11</ele>
        <time>2022-10-04T11:34:52.829Z</time>
      </trkpt>
      <trkpt lat="44.79052" lon="4.22139">
        <ele>1249.65</ele>
        <time>2022-10-04T11:35:02.999Z</time>
      </trkpt>
      <trkpt lat="44.79046" lon="4.22151">
        <ele>1248.76</ele>
        <time>2022-10-04T11:35:12.999Z</time>
      </trkpt>
      <trkpt lat="44.7904" lon="4.22166">
        <ele>1247.37</ele>
        <time>2022-10-04T11:35:22.686Z</time>
      </trkpt>
      <trkpt lat="44.79032" lon="4.22176">
        <ele>1245.81</ele>
        <time>2022-10-04T11:35:32.265Z</time>
      </trkpt>
      <trkpt lat="44.79026" lon="4.22188">
        <ele>1243.8</ele>
        <time>2022-10-04T11:35:50.521Z</time>
      </trkpt>
      <trkpt lat="44.79022" lon="4.22206">
        <ele>1240.81</ele>
        <time>2022-10-04T11:35:59.911Z</time>
      </trkpt>
      <trkpt lat="44.79019" lon="4.22222">
        <ele>1238.05</ele>
        <time>2022-10-04T11:36:09.112Z</time>
      </trkpt>
      <trkpt lat="44.79017" lon="4.22235">
        <ele>1235.56</ele>
        <time>2022-10-04T11:36:19.530Z</time>
      </trkpt>
      <trkpt lat="44.79016" lon="4.2225">
        <ele>1233.13</ele>
        <time>2022-10-04T11:36:28.609Z</time>
      </trkpt>
      <trkpt lat="44.79016" lon="4.22264">
        <ele>1230.75</ele>
        <time>2022-10-04T11:36:37.773Z</time>
      </trkpt>
      <trkpt lat="44.7901" lon="4.22273">
        <ele>1228.25</ele>
        <time>2022-10-04T11:36:51.999Z</time>
      </trkpt>
      <trkpt lat="44.79001" lon="4.2228">
        <ele>1226.07</ele>
        <time>2022-10-04T11:37:08.367Z</time>
      </trkpt>
      <trkpt lat="44.78994" lon="4.22288">
        <ele>1223.9</ele>
        <time>2022-10-04T11:37:19.251Z</time>
      </trkpt>
      <trkpt lat="44.78987" lon="4.22302">
        <ele>1220.77</ele>
        <time>2022-10-04T11:37:47.649Z</time>
      </trkpt>
      <trkpt lat="44.78994" lon="4.22315">
        <ele>1219.59</ele>
        <time>2022-10-04T11:37:57.608Z</time>
      </trkpt>
      <trkpt lat="44.79005" lon="4.22324">
        <ele>1219.38</ele>
        <time>2022-10-04T11:38:06.845Z</time>
      </trkpt>
      <trkpt lat="44.79012" lon="4.2234">
        <ele>1218.46</ele>
        <time>2022-10-04T11:38:16.623Z</time>
      </trkpt>
      <trkpt lat="44.79012" lon="4.22359">
        <ele>1217.01</ele>
        <time>2022-10-04T11:38:26.342Z</time>
      </trkpt>
      <trkpt lat="44.79008" lon="4.22372">
        <ele>1216.08</ele>
        <time>2022-10-04T11:38:49.610Z</time>
      </trkpt>
      <trkpt lat="44.79015" lon="4.22385">
        <ele>1216.03</ele>
        <time>2022-10-04T11:38:58.888Z</time>
      </trkpt>
      <trkpt lat="44.79019" lon="4.22397">
        <ele>1216.02</ele>
        <time>2022-10-04T11:39:07.999Z</time>
      </trkpt>
      <trkpt lat="44.79019" lon="4.22418">
        <ele>1216.47</ele>
        <time>2022-10-04T11:39:17.728Z</time>
      </trkpt>
      <trkpt lat="44.79015" lon="4.22434">
        <ele>1217.73</ele>
        <time>2022-10-04T11:39:27.999Z</time>
      </trkpt>
      <trkpt lat="44.79005" lon="4.22443">
        <ele>1218.63</ele>
        <time>2022-10-04T11:39:37.545Z</time>
      </trkpt>
      <trkpt lat="44.78994" lon="4.22446">
        <ele>1218.58</ele>
        <time>2022-10-04T11:39:47.083Z</time>
      </trkpt>
      <trkpt lat="44.78984" lon="4.22454">
        <ele>1219.11</ele>
        <time>2022-10-04T11:39:56.712Z</time>
      </trkpt>
      <trkpt lat="44.78978" lon="4.22467">
        <ele>1220.42</ele>
        <time>2022-10-04T11:40:06.292Z</time>
      </trkpt>
      <trkpt lat="44.78976" lon="4.22482">
        <ele>1221.91</ele>
        <time>2022-10-04T11:40:15.372Z</time>
      </trkpt>
      <trkpt lat="44.7898" lon="4.22494">
        <ele>1223.57</ele>
        <time>2022-10-04T11:40:25.872Z</time>
      </trkpt>
      <trkpt lat="44.78986" lon="4.22506">
        <ele>1225.13</ele>
        <time>2022-10-04T11:40:35.069Z</time>
        <extensions>
          <visugpx:TrkExtension xmlns:visugpx="https://www.visugpx.com/editgpx/">
            <visugpx:node>9</visugpx:node>
            </visugpx:TrkExtension>
        </extensions>
      </trkpt>
      <trkpt lat="44.7899" lon="4.22513">
        <ele>1229.8</ele>
      </trkpt>
      <trkpt lat="44.78998" lon="4.22515">
        <ele>1231.6</ele>
      </trkpt>
      <trkpt lat="44.79004" lon="4.22518">
        <ele>1232.8</ele>
      </trkpt>
      <trkpt lat="44.79007" lon="4.22524">
        <ele>1233.7</ele>
      </trkpt>
      <trkpt lat="44.79009" lon="4.22526">
        <ele>1234.1</ele>
      </trkpt>
      <trkpt lat="44.79013" lon="4.2253">
        <ele>1235</ele>
      </trkpt>
      <trkpt lat="44.79019" lon="4.22533">
        <ele>1236.1</ele>
      </trkpt>
      <trkpt lat="44.79022" lon="4.22534">
        <ele>1236.7</ele>
      </trkpt>
      <trkpt lat="44.79029" lon="4.22534">
        <ele>1237.7</ele>
      </trkpt>
      <trkpt lat="44.79034" lon="4.22535">
        <ele>1237.8</ele>
      </trkpt>
      <trkpt lat="44.79044" lon="4.22542">
        <ele>1238.5</ele>
      </trkpt>
      <trkpt lat="44.7905" lon="4.2255">
        <ele>1239.4</ele>
      </trkpt>
      <trkpt lat="44.79054" lon="4.22558">
        <ele>1240.2</ele>
      </trkpt>
      <trkpt lat="44.7906" lon="4.2257">
        <ele>1240.9</ele>
      </trkpt>
      <trkpt lat="44.79068" lon="4.22583">
        <ele>1241.5</ele>
      </trkpt>
      <trkpt lat="44.79078" lon="4.22602">
        <ele>1242.4</ele>
      </trkpt>
      <trkpt lat="44.79088" lon="4.22622">
        <ele>1243</ele>
      </trkpt>
      <trkpt lat="44.79096" lon="4.22641">
        <ele>1243</ele>
      </trkpt>
      <trkpt lat="44.791" lon="4.2265">
        <ele>1243</ele>
      </trkpt>
      <trkpt lat="44.79108" lon="4.22674">
        <ele>1243</ele>
      </trkpt>
      <trkpt lat="44.79114" lon="4.22693">
        <ele>1242.8</ele>
      </trkpt>
      <trkpt lat="44.79117" lon="4.22703">
        <ele>1242.6</ele>
      </trkpt>
      <trkpt lat="44.79119" lon="4.22711">
        <ele>1242.4</ele>
      </trkpt>
      <trkpt lat="44.79126" lon="4.22734">
        <ele>1242.4</ele>
      </trkpt>
      <trkpt lat="44.79136" lon="4.2277">
        <ele>1242.9</ele>
      </trkpt>
      <trkpt lat="44.79146" lon="4.22806">
        <ele>1242.7</ele>
      </trkpt>
      <trkpt lat="44.79148" lon="4.22818">
        <ele>1242.8</ele>
        <extensions>
          <visugpx:TrkExtension xmlns:visugpx="https://www.visugpx.com/editgpx/">
            <visugpx:node>10</visugpx:node>
            </visugpx:TrkExtension>
        </extensions>
      </trkpt>
      <trkpt lat="44.79152" lon="4.22834">
        <ele>1243</ele>
      </trkpt>
      <trkpt lat="44.79142" lon="4.22845">
        <ele>1243.5</ele>
      </trkpt>
      <trkpt lat="44.7911" lon="4.22872">
        <ele>1242.6</ele>
      </trkpt>
      <trkpt lat="44.79095" lon="4.22891">
        <ele>1241.9</ele>
      </trkpt>
      <trkpt lat="44.79087" lon="4.22906">
        <ele>1240.8</ele>
        <extensions>
          <visugpx:TrkExtension xmlns:visugpx="https://www.visugpx.com/editgpx/">
            <visugpx:node>11</visugpx:node>
            </visugpx:TrkExtension>
        </extensions>
      </trkpt>
      <trkpt lat="44.79086" lon="4.22908">
        <ele>1240.7</ele>
      </trkpt>
      <trkpt lat="44.79077" lon="4.22924">
        <ele>1239.2</ele>
      </trkpt>
      <trkpt lat="44.79068" lon="4.22932">
        <ele>1238</ele>
      </trkpt>
      <trkpt lat="44.79053" lon="4.22938">
        <ele>1236.3</ele>
      </trkpt>
      <trkpt lat="44.79036" lon="4.22941">
        <ele>1233.6</ele>
      </trkpt>
      <trkpt lat="44.79025" lon="4.2294">
        <ele>1232</ele>
      </trkpt>
      <trkpt lat="44.79013" lon="4.22937">
        <ele>1230.4</ele>
      </trkpt>
      <trkpt lat="44.79" lon="4.22933">
        <ele>1228.4</ele>
      </trkpt>
      <trkpt lat="44.78987" lon="4.22927">
        <ele>1225.7</ele>
      </trkpt>
      <trkpt lat="44.78969" lon="4.2292">
        <ele>1221.9</ele>
      </trkpt>
      <trkpt lat="44.78957" lon="4.22915">
        <ele>1220.9</ele>
      </trkpt>
      <trkpt lat="44.7895" lon="4.22907">
        <ele>1221.1</ele>
      </trkpt>
      <trkpt lat="44.78945" lon="4.22904">
        <ele>1221.4</ele>
      </trkpt>
      <trkpt lat="44.78941" lon="4.22907">
        <ele>1221.4</ele>
      </trkpt>
      <trkpt lat="44.78938" lon="4.22907">
        <ele>1221.7</ele>
      </trkpt>
      <trkpt lat="44.78934" lon="4.22906">
        <ele>1222.2</ele>
      </trkpt>
      <trkpt lat="44.78928" lon="4.22905">
        <ele>1222.9</ele>
      </trkpt>
      <trkpt lat="44.78923" lon="4.22904">
        <ele>1223.4</ele>
      </trkpt>
      <trkpt lat="44.78904" lon="4.22903">
        <ele>1224.9</ele>
      </trkpt>
      <trkpt lat="44.78897" lon="4.22903">
        <ele>1225.4</ele>
      </trkpt>
      <trkpt lat="44.78893" lon="4.22902">
        <ele>1225.7</ele>
      </trkpt>
      <trkpt lat="44.78892" lon="4.22901">
        <ele>1225.8</ele>
      </trkpt>
      <trkpt lat="44.78889" lon="4.22899">
        <ele>1226</ele>
      </trkpt>
      <trkpt lat="44.78888" lon="4.22897">
        <ele>1226.1</ele>
      </trkpt>
      <trkpt lat="44.78884" lon="4.22889">
        <ele>1226.4</ele>
      </trkpt>
      <trkpt lat="44.7888" lon="4.2289">
        <ele>1226.6</ele>
      </trkpt>
      <trkpt lat="44.78869" lon="4.22902">
        <ele>1227.4</ele>
      </trkpt>
      <trkpt lat="44.78861" lon="4.22913">
        <ele>1228</ele>
        <extensions>
          <visugpx:TrkExtension xmlns:visugpx="https://www.visugpx.com/editgpx/">
            <visugpx:node>12</visugpx:node>
            </visugpx:TrkExtension>
        </extensions>
      </trkpt>
      <trkpt lat="44.78861" lon="4.22919">
        <ele>1230.89</ele>
        <time>2022-10-04T11:50:02.546Z</time>
      </trkpt>
      <trkpt lat="44.78854" lon="4.22932">
        <ele>1231.47</ele>
        <time>2022-10-04T11:50:11.726Z</time>
      </trkpt>
      <trkpt lat="44.78846" lon="4.2294">
        <ele>1232.29</ele>
        <time>2022-10-04T11:50:21.999Z</time>
      </trkpt>
      <trkpt lat="44.78839" lon="4.22952">
        <ele>1232.62</ele>
        <time>2022-10-04T11:50:32.999Z</time>
      </trkpt>
      <trkpt lat="44.78833" lon="4.22968">
        <ele>1232.38</ele>
        <time>2022-10-04T11:50:42.999Z</time>
      </trkpt>
      <trkpt lat="44.78826" lon="4.22981">
        <ele>1232.52</ele>
        <time>2022-10-04T11:50:52.809Z</time>
      </trkpt>
      <trkpt lat="44.78817" lon="4.22992">
        <ele>1232.92</ele>
        <time>2022-10-04T11:51:02.828Z</time>
      </trkpt>
      <trkpt lat="44.78806" lon="4.23002">
        <ele>1233.54</ele>
        <time>2022-10-04T11:51:12.349Z</time>
      </trkpt>
      <trkpt lat="44.78797" lon="4.23019">
        <ele>1233.59</ele>
        <time>2022-10-04T11:51:21.709Z</time>
      </trkpt>
      <trkpt lat="44.78785" lon="4.23032">
        <ele>1233.77</ele>
        <time>2022-10-04T11:51:31.209Z</time>
      </trkpt>
      <trkpt lat="44.78775" lon="4.23043">
        <ele>1233.76</ele>
        <time>2022-10-04T11:51:40.725Z</time>
      </trkpt>
      <trkpt lat="44.78765" lon="4.23056">
        <ele>1233.55</ele>
        <time>2022-10-04T11:51:50.648Z</time>
      </trkpt>
      <trkpt lat="44.78755" lon="4.23065">
        <ele>1233.47</ele>
        <time>2022-10-04T11:51:59.902Z</time>
      </trkpt>
      <trkpt lat="44.78744" lon="4.23077">
        <ele>1233.43</ele>
        <time>2022-10-04T11:52:09.395Z</time>
      </trkpt>
      <trkpt lat="44.78735" lon="4.23085">
        <ele>1233.62</ele>
        <time>2022-10-04T11:52:18.999Z</time>
      </trkpt>
      <trkpt lat="44.78724" lon="4.23096">
        <ele>1233.98</ele>
        <time>2022-10-04T11:52:28.110Z</time>
      </trkpt>
      <trkpt lat="44.78714" lon="4.23111">
        <ele>1234.43</ele>
        <time>2022-10-04T11:52:37.610Z</time>
      </trkpt>
      <trkpt lat="44.78706" lon="4.23126">
        <ele>1234.93</ele>
        <time>2022-10-04T11:52:46.827Z</time>
      </trkpt>
      <trkpt lat="44.78698" lon="4.23141">
        <ele>1235.64</ele>
        <time>2022-10-04T11:52:56.925Z</time>
      </trkpt>
      <trkpt lat="44.7869" lon="4.23152">
        <ele>1236.31</ele>
        <time>2022-10-04T11:53:06.999Z</time>
      </trkpt>
      <trkpt lat="44.78678" lon="4.23159">
        <ele>1237.06</ele>
        <time>2022-10-04T11:53:16.403Z</time>
      </trkpt>
      <trkpt lat="44.78667" lon="4.23166">
        <ele>1237.9</ele>
        <time>2022-10-04T11:53:25.999Z</time>
      </trkpt>
      <trkpt lat="44.78656" lon="4.23167">
        <ele>1238.69</ele>
        <time>2022-10-04T11:53:35.010Z</time>
      </trkpt>
      <trkpt lat="44.78646" lon="4.23168">
        <ele>1239.56</ele>
        <time>2022-10-04T11:53:44.151Z</time>
      </trkpt>
      <trkpt lat="44.78633" lon="4.23173">
        <ele>1241.09</ele>
        <time>2022-10-04T11:53:53.350Z</time>
      </trkpt>
      <trkpt lat="44.78624" lon="4.2317">
        <ele>1241.77</ele>
        <time>2022-10-04T11:55:00.672Z</time>
      </trkpt>
      <trkpt lat="44.78613" lon="4.23179">
        <ele>1243.69</ele>
        <time>2022-10-04T11:55:10.690Z</time>
      </trkpt>
      <trkpt lat="44.78601" lon="4.23181">
        <ele>1245.09</ele>
        <time>2022-10-04T11:55:20.228Z</time>
      </trkpt>
      <trkpt lat="44.78588" lon="4.23181">
        <ele>1246.17</ele>
        <time>2022-10-04T11:55:29.248Z</time>
      </trkpt>
      <trkpt lat="44.78578" lon="4.23183">
        <ele>1247.02</ele>
        <time>2022-10-04T11:55:38.328Z</time>
      </trkpt>
      <trkpt lat="44.78567" lon="4.23188">
        <ele>1248.25</ele>
        <time>2022-10-04T11:55:47.387Z</time>
      </trkpt>
      <trkpt lat="44.78556" lon="4.23198">
        <ele>1249.92</ele>
        <time>2022-10-04T11:55:56.505Z</time>
      </trkpt>
      <trkpt lat="44.78548" lon="4.23207">
        <ele>1251.17</ele>
        <time>2022-10-04T11:56:07.044Z</time>
      </trkpt>
      <trkpt lat="44.78541" lon="4.23217">
        <ele>1252.63</ele>
        <time>2022-10-04T11:56:16.305Z</time>
      </trkpt>
      <trkpt lat="44.78533" lon="4.23229">
        <ele>1254.01</ele>
        <time>2022-10-04T11:56:27.000Z</time>
      </trkpt>
      <trkpt lat="44.78528" lon="4.23239">
        <ele>1255.22</ele>
        <time>2022-10-04T11:56:39.000Z</time>
      </trkpt>
      <trkpt lat="44.78521" lon="4.2325">
        <ele>1256.23</ele>
        <time>2022-10-04T11:56:48.832Z</time>
      </trkpt>
      <trkpt lat="44.78511" lon="4.23255">
        <ele>1256.5</ele>
        <time>2022-10-04T11:57:00.000Z</time>
      </trkpt>
      <trkpt lat="44.785" lon="4.23266">
        <ele>1257.51</ele>
        <time>2022-10-04T11:57:09.729Z</time>
      </trkpt>
      <trkpt lat="44.78494" lon="4.23279">
        <ele>1258.66</ele>
        <time>2022-10-04T11:57:18.888Z</time>
      </trkpt>
      <trkpt lat="44.78486" lon="4.23289">
        <ele>1259.55</ele>
        <time>2022-10-04T11:57:28.067Z</time>
      </trkpt>
      <trkpt lat="44.78479" lon="4.23301">
        <ele>1260.55</ele>
        <time>2022-10-04T11:57:37.204Z</time>
      </trkpt>
      <trkpt lat="44.78471" lon="4.23312">
        <ele>1261.32</ele>
        <time>2022-10-04T11:57:46.245Z</time>
      </trkpt>
      <trkpt lat="44.78463" lon="4.23322">
        <ele>1261.97</ele>
        <time>2022-10-04T11:57:55.382Z</time>
      </trkpt>
      <trkpt lat="44.78453" lon="4.2333">
        <ele>1262.27</ele>
        <time>2022-10-04T11:58:04.633Z</time>
      </trkpt>
      <trkpt lat="44.78446" lon="4.23342">
        <ele>1262.97</ele>
        <time>2022-10-04T11:58:13.693Z</time>
      </trkpt>
      <trkpt lat="44.78438" lon="4.23353">
        <ele>1263.46</ele>
        <time>2022-10-04T11:58:23.329Z</time>
      </trkpt>
      <trkpt lat="44.78428" lon="4.23364">
        <ele>1263.88</ele>
        <time>2022-10-04T11:58:32.808Z</time>
      </trkpt>
      <trkpt lat="44.78418" lon="4.23373">
        <ele>1264.15</ele>
        <time>2022-10-04T11:58:42.528Z</time>
      </trkpt>
      <trkpt lat="44.78409" lon="4.23383">
        <ele>1264.49</ele>
        <time>2022-10-04T11:58:51.786Z</time>
      </trkpt>
      <trkpt lat="44.78401" lon="4.23394">
        <ele>1264.67</ele>
        <time>2022-10-04T11:59:01.145Z</time>
      </trkpt>
      <trkpt lat="44.78393" lon="4.23404">
        <ele>1264.72</ele>
        <time>2022-10-04T11:59:11.000Z</time>
      </trkpt>
      <trkpt lat="44.7838" lon="4.23414">
        <ele>1264.48</ele>
        <time>2022-10-04T11:59:20.761Z</time>
      </trkpt>
      <trkpt lat="44.78368" lon="4.2342">
        <ele>1264.2</ele>
        <time>2022-10-04T11:59:30.270Z</time>
      </trkpt>
      <trkpt lat="44.78358" lon="4.23426">
        <ele>1264.02</ele>
        <time>2022-10-04T11:59:40.000Z</time>
      </trkpt>
      <trkpt lat="44.78345" lon="4.23432">
        <ele>1263.86</ele>
        <time>2022-10-04T11:59:49.726Z</time>
      </trkpt>
      <trkpt lat="44.78333" lon="4.23437">
        <ele>1263.89</ele>
        <time>2022-10-04T11:59:59.631Z</time>
      </trkpt>
      <trkpt lat="44.78321" lon="4.23442">
        <ele>1264.18</ele>
        <time>2022-10-04T12:00:08.966Z</time>
      </trkpt>
      <trkpt lat="44.7831" lon="4.23448">
        <ele>1264.72</ele>
        <time>2022-10-04T12:00:18.369Z</time>
      </trkpt>
      <trkpt lat="44.78299" lon="4.23452">
        <ele>1265.34</ele>
        <time>2022-10-04T12:00:27.508Z</time>
      </trkpt>
      <trkpt lat="44.78289" lon="4.23453">
        <ele>1266.02</ele>
        <time>2022-10-04T12:01:32.528Z</time>
      </trkpt>
      <trkpt lat="44.78276" lon="4.23458">
        <ele>1266.9</ele>
        <time>2022-10-04T12:01:42.728Z</time>
      </trkpt>
      <trkpt lat="44.78283" lon="4.23467">
        <ele>1266.41</ele>
        <time>2022-10-04T12:02:33.612Z</time>
      </trkpt>
      <trkpt lat="44.78297" lon="4.23477">
        <ele>1265.44</ele>
        <time>2022-10-04T12:02:44.000Z</time>
      </trkpt>
      <trkpt lat="44.7831" lon="4.23487">
        <ele>1264.61</ele>
        <time>2022-10-04T12:02:53.749Z</time>
      </trkpt>
      <trkpt lat="44.78321" lon="4.23494">
        <ele>1264.13</ele>
        <time>2022-10-04T12:03:04.000Z</time>
      </trkpt>
      <trkpt lat="44.78331" lon="4.23501">
        <ele>1263.97</ele>
        <time>2022-10-04T12:03:13.307Z</time>
      </trkpt>
      <trkpt lat="44.7834" lon="4.23509">
        <ele>1264.08</ele>
        <time>2022-10-04T12:03:22.766Z</time>
      </trkpt>
      <trkpt lat="44.7835" lon="4.23516">
        <ele>1264.42</ele>
        <time>2022-10-04T12:03:32.024Z</time>
      </trkpt>
      <trkpt lat="44.78362" lon="4.23523">
        <ele>1264.99</ele>
        <time>2022-10-04T12:03:41.502Z</time>
      </trkpt>
      <trkpt lat="44.78372" lon="4.23529">
        <ele>1265.66</ele>
        <time>2022-10-04T12:03:50.961Z</time>
      </trkpt>
      <trkpt lat="44.78383" lon="4.23533">
        <ele>1266.45</ele>
        <time>2022-10-04T12:03:59.981Z</time>
      </trkpt>
      <trkpt lat="44.78393" lon="4.23538">
        <ele>1267.23</ele>
        <time>2022-10-04T12:04:09.030Z</time>
      </trkpt>
      <trkpt lat="44.78403" lon="4.23544">
        <ele>1268.07</ele>
        <time>2022-10-04T12:04:18.450Z</time>
      </trkpt>
      <trkpt lat="44.78413" lon="4.23547">
        <ele>1268.86</ele>
        <time>2022-10-04T12:04:27.629Z</time>
      </trkpt>
      <trkpt lat="44.78423" lon="4.23554">
        <ele>1269.79</ele>
        <time>2022-10-04T12:04:36.948Z</time>
      </trkpt>
      <trkpt lat="44.78434" lon="4.23557">
        <ele>1270.74</ele>
        <time>2022-10-04T12:04:46.044Z</time>
      </trkpt>
      <trkpt lat="44.78444" lon="4.23564">
        <ele>1271.77</ele>
        <time>2022-10-04T12:04:55.123Z</time>
      </trkpt>
      <trkpt lat="44.78452" lon="4.23566">
        <ele>1272.61</ele>
        <time>2022-10-04T12:05:12.999Z</time>
      </trkpt>
      <trkpt lat="44.78454" lon="4.23578">
        <ele>1273.14</ele>
        <time>2022-10-04T12:05:31.553Z</time>
      </trkpt>
      <trkpt lat="44.78461" lon="4.23593">
        <ele>1274.16</ele>
        <time>2022-10-04T12:05:40.672Z</time>
      </trkpt>
      <trkpt lat="44.78466" lon="4.23608">
        <ele>1274.93</ele>
        <time>2022-10-04T12:05:50.269Z</time>
      </trkpt>
      <trkpt lat="44.7847" lon="4.23623">
        <ele>1275.56</ele>
        <time>2022-10-04T12:05:59.510Z</time>
      </trkpt>
      <trkpt lat="44.78474" lon="4.23637">
        <ele>1276.23</ele>
        <time>2022-10-04T12:06:08.568Z</time>
      </trkpt>
      <trkpt lat="44.78479" lon="4.23653">
        <ele>1276.97</ele>
        <time>2022-10-04T12:06:18.187Z</time>
      </trkpt>
      <trkpt lat="44.78482" lon="4.2367">
        <ele>1277.58</ele>
        <time>2022-10-04T12:06:27.527Z</time>
      </trkpt>
      <trkpt lat="44.78486" lon="4.23685">
        <ele>1278.25</ele>
        <time>2022-10-04T12:06:36.948Z</time>
      </trkpt>
      <trkpt lat="44.78493" lon="4.23699">
        <ele>1279.06</ele>
        <time>2022-10-04T12:06:46.999Z</time>
      </trkpt>
      <trkpt lat="44.78501" lon="4.23715">
        <ele>1279.95</ele>
        <time>2022-10-04T12:06:56.252Z</time>
      </trkpt>
      <trkpt lat="44.78509" lon="4.23728">
        <ele>1280.69</ele>
        <time>2022-10-04T12:07:05.609Z</time>
      </trkpt>
      <trkpt lat="44.78515" lon="4.23742">
        <ele>1281.28</ele>
        <time>2022-10-04T12:07:14.952Z</time>
      </trkpt>
      <trkpt lat="44.78521" lon="4.23757">
        <ele>1281.78</ele>
        <time>2022-10-04T12:07:24.288Z</time>
      </trkpt>
      <trkpt lat="44.78529" lon="4.23768">
        <ele>1282.45</ele>
        <time>2022-10-04T12:07:33.727Z</time>
      </trkpt>
      <trkpt lat="44.78538" lon="4.23779">
        <ele>1283.15</ele>
        <time>2022-10-04T12:07:43.245Z</time>
      </trkpt>
      <trkpt lat="44.78546" lon="4.23789">
        <ele>1283.73</ele>
        <time>2022-10-04T12:07:52.409Z</time>
      </trkpt>
      <trkpt lat="44.78554" lon="4.23799">
        <ele>1284.31</ele>
        <time>2022-10-04T12:08:01.683Z</time>
      </trkpt>
      <trkpt lat="44.78562" lon="4.23809">
        <ele>1284.71</ele>
        <time>2022-10-04T12:08:11.205Z</time>
      </trkpt>
      <trkpt lat="44.78571" lon="4.23819">
        <ele>1284.98</ele>
        <time>2022-10-04T12:08:20.452Z</time>
      </trkpt>
      <trkpt lat="44.78579" lon="4.23826">
        <ele>1285.24</ele>
        <time>2022-10-04T12:08:29.733Z</time>
      </trkpt>
      <trkpt lat="44.7859" lon="4.23828">
        <ele>1285.98</ele>
        <time>2022-10-04T12:08:39.249Z</time>
      </trkpt>
      <trkpt lat="44.786" lon="4.23826">
        <ele>1287</ele>
        <time>2022-10-04T12:08:48.731Z</time>
      </trkpt>
      <trkpt lat="44.78611" lon="4.23823">
        <ele>1288.05</ele>
        <time>2022-10-04T12:08:58.028Z</time>
      </trkpt>
      <trkpt lat="44.78621" lon="4.23826">
        <ele>1288.71</ele>
        <time>2022-10-04T12:09:07.314Z</time>
      </trkpt>
      <trkpt lat="44.78625" lon="4.23838">
        <ele>1288.2</ele>
        <time>2022-10-04T12:09:18.308Z</time>
      </trkpt>
      <trkpt lat="44.78627" lon="4.23851">
        <ele>1287.19</ele>
        <time>2022-10-04T12:09:27.343Z</time>
      </trkpt>
      <trkpt lat="44.78633" lon="4.23864">
        <ele>1286.49</ele>
        <time>2022-10-04T12:09:37.999Z</time>
      </trkpt>
      <trkpt lat="44.7864" lon="4.23878">
        <ele>1285.87</ele>
        <time>2022-10-04T12:09:47.999Z</time>
      </trkpt>
      <trkpt lat="44.78648" lon="4.23892">
        <ele>1285.42</ele>
        <time>2022-10-04T12:09:57.587Z</time>
      </trkpt>
      <trkpt lat="44.78657" lon="4.23902">
        <ele>1285.75</ele>
        <time>2022-10-04T12:10:06.849Z</time>
      </trkpt>
      <trkpt lat="44.78667" lon="4.2391">
        <ele>1286.56</ele>
        <time>2022-10-04T12:10:16.406Z</time>
      </trkpt>
      <trkpt lat="44.78675" lon="4.23923">
        <ele>1286.81</ele>
        <time>2022-10-04T12:10:25.465Z</time>
      </trkpt>
      <trkpt lat="44.7868" lon="4.23938">
        <ele>1286.72</ele>
        <time>2022-10-04T12:10:34.623Z</time>
      </trkpt>
      <trkpt lat="44.78685" lon="4.23954">
        <ele>1286.41</ele>
        <time>2022-10-04T12:10:44.191Z</time>
      </trkpt>
      <trkpt lat="44.78688" lon="4.2397">
        <ele>1285.84</ele>
        <time>2022-10-04T12:10:54.999Z</time>
      </trkpt>
      <trkpt lat="44.78694" lon="4.23987">
        <ele>1285.56</ele>
        <time>2022-10-04T12:11:04.549Z</time>
      </trkpt>
      <trkpt lat="44.78698" lon="4.24001">
        <ele>1284.93</ele>
        <time>2022-10-04T12:11:14.999Z</time>
      </trkpt>
      <trkpt lat="44.78706" lon="4.24017">
        <ele>1284.61</ele>
        <time>2022-10-04T12:11:24.669Z</time>
      </trkpt>
      <trkpt lat="44.78715" lon="4.2403">
        <ele>1284.17</ele>
        <time>2022-10-04T12:11:36.000Z</time>
      </trkpt>
      <trkpt lat="44.78721" lon="4.2404">
        <ele>1283.48</ele>
        <time>2022-10-04T12:11:50.386Z</time>
      </trkpt>
      <trkpt lat="44.78732" lon="4.24051">
        <ele>1282.57</ele>
        <time>2022-10-04T12:12:01.000Z</time>
      </trkpt>
      <trkpt lat="44.78744" lon="4.24057">
        <ele>1281.98</ele>
        <time>2022-10-04T12:12:10.771Z</time>
      </trkpt>
      <trkpt lat="44.78754" lon="4.24062">
        <ele>1281.37</ele>
        <time>2022-10-04T12:12:20.000Z</time>
      </trkpt>
      <trkpt lat="44.78766" lon="4.24068">
        <ele>1280.3</ele>
        <time>2022-10-04T12:12:29.270Z</time>
      </trkpt>
      <trkpt lat="44.78778" lon="4.24075">
        <ele>1278.76</ele>
        <time>2022-10-04T12:12:38.687Z</time>
      </trkpt>
      <trkpt lat="44.78789" lon="4.24078">
        <ele>1277.47</ele>
        <time>2022-10-04T12:12:47.809Z</time>
      </trkpt>
      <trkpt lat="44.78799" lon="4.24078">
        <ele>1276.71</ele>
        <time>2022-10-04T12:12:56.864Z</time>
      </trkpt>
      <trkpt lat="44.78809" lon="4.24078">
        <ele>1275.93</ele>
        <time>2022-10-04T12:13:07.000Z</time>
      </trkpt>
      <trkpt lat="44.7882" lon="4.24074">
        <ele>1276</ele>
        <time>2022-10-04T12:13:16.523Z</time>
      </trkpt>
      <trkpt lat="44.7883" lon="4.2407">
        <ele>1276.42</ele>
        <time>2022-10-04T12:13:26.211Z</time>
      </trkpt>
      <trkpt lat="44.78838" lon="4.24058">
        <ele>1278.67</ele>
        <time>2022-10-04T12:13:35.372Z</time>
      </trkpt>
      <trkpt lat="44.78846" lon="4.24046">
        <ele>1280.7</ele>
        <time>2022-10-04T12:13:44.865Z</time>
      </trkpt>
      <trkpt lat="44.78856" lon="4.2404">
        <ele>1281.15</ele>
        <time>2022-10-04T12:13:54.188Z</time>
      </trkpt>
      <trkpt lat="44.78867" lon="4.24041">
        <ele>1280.02</ele>
        <time>2022-10-04T12:14:03.216Z</time>
      </trkpt>
      <trkpt lat="44.78879" lon="4.24043">
        <ele>1278.17</ele>
        <time>2022-10-04T12:14:12.449Z</time>
      </trkpt>
      <trkpt lat="44.7889" lon="4.24045">
        <ele>1276.57</ele>
        <time>2022-10-04T12:14:22.000Z</time>
      </trkpt>
      <trkpt lat="44.78903" lon="4.2404">
        <ele>1276.12</ele>
        <time>2022-10-04T12:14:31.473Z</time>
      </trkpt>
      <trkpt lat="44.78913" lon="4.24035">
        <ele>1275.78</ele>
        <time>2022-10-04T12:14:40.506Z</time>
      </trkpt>
      <trkpt lat="44.78923" lon="4.24031">
        <ele>1275.47</ele>
        <time>2022-10-04T12:14:49.704Z</time>
      </trkpt>
      <trkpt lat="44.78933" lon="4.24023">
        <ele>1275.51</ele>
        <time>2022-10-04T12:15:00.000Z</time>
      </trkpt>
      <trkpt lat="44.78946" lon="4.24016">
        <ele>1275.05</ele>
        <time>2022-10-04T12:15:09.591Z</time>
      </trkpt>
      <trkpt lat="44.78958" lon="4.24011">
        <ele>1274.37</ele>
        <time>2022-10-04T12:15:20.000Z</time>
      </trkpt>
      <trkpt lat="44.78973" lon="4.24014">
        <ele>1272.12</ele>
        <time>2022-10-04T12:15:29.529Z</time>
      </trkpt>
      <trkpt lat="44.78985" lon="4.24015">
        <ele>1270.74</ele>
        <time>2022-10-04T12:15:40.000Z</time>
      </trkpt>
      <trkpt lat="44.78999" lon="4.24018">
        <ele>1269.09</ele>
        <time>2022-10-04T12:15:49.468Z</time>
      </trkpt>
      <trkpt lat="44.79011" lon="4.24019">
        <ele>1268.05</ele>
        <time>2022-10-04T12:16:00.000Z</time>
      </trkpt>
      <trkpt lat="44.79025" lon="4.24019">
        <ele>1267.23</ele>
        <time>2022-10-04T12:16:09.545Z</time>
      </trkpt>
      <trkpt lat="44.79035" lon="4.24022">
        <ele>1266.55</ele>
        <time>2022-10-04T12:16:19.000Z</time>
      </trkpt>
      <trkpt lat="44.79046" lon="4.24033">
        <ele>1265.34</ele>
        <time>2022-10-04T12:16:28.304Z</time>
      </trkpt>
      <trkpt lat="44.79053" lon="4.24045">
        <ele>1264.56</ele>
        <time>2022-10-04T12:17:36.728Z</time>
      </trkpt>
      <trkpt lat="44.79058" lon="4.24059">
        <ele>1263.86</ele>
        <time>2022-10-04T12:17:46.000Z</time>
      </trkpt>
      <trkpt lat="44.79027" lon="4.24052">
        <ele>1262.4</ele>
        <time>2022-10-04T12:21:53.650Z</time>
      </trkpt>
      <trkpt lat="44.79007" lon="4.24059">
        <ele>1262.7</ele>
        <time>2022-10-04T12:22:03.392Z</time>
      </trkpt>
      <trkpt lat="44.78982" lon="4.24063">
        <ele>1262.4</ele>
        <time>2022-10-04T12:23:10.592Z</time>
      </trkpt>
      <trkpt lat="44.78962" lon="4.24078">
        <ele>1261</ele>
        <time>2022-10-04T12:23:19.999Z</time>
      </trkpt>
      <trkpt lat="44.78949" lon="4.241">
        <ele>1258.7</ele>
        <time>2022-10-04T12:23:29.511Z</time>
      </trkpt>
      <trkpt lat="44.78932" lon="4.2412">
        <ele>1256.6</ele>
        <time>2022-10-04T12:26:25.588Z</time>
      </trkpt>
      <trkpt lat="44.78916" lon="4.24143">
        <ele>1252.9</ele>
        <time>2022-10-04T12:26:35.593Z</time>
      </trkpt>
      <trkpt lat="44.789" lon="4.24162">
        <ele>1249.1</ele>
        <time>2022-10-04T12:26:46.890Z</time>
      </trkpt>
      <trkpt lat="44.78895" lon="4.24173">
        <ele>1246.6</ele>
        <time>2022-10-04T12:27:14.688Z</time>
      </trkpt>
      <trkpt lat="44.78887" lon="4.24183">
        <ele>1244.4</ele>
      </trkpt>
      <trkpt lat="44.78877" lon="4.24196">
        <ele>1240.6</ele>
        <time>2022-10-04T12:27:24.193Z</time>
      </trkpt>
      <trkpt lat="44.78867" lon="4.24201">
        <ele>1238.9</ele>
        <time>2022-10-04T12:27:42.705Z</time>
      </trkpt>
      <trkpt lat="44.78857" lon="4.24202">
        <ele>1239.4</ele>
        <time>2022-10-04T12:27:52.023Z</time>
      </trkpt>
      <trkpt lat="44.78854" lon="4.24208">
        <ele>1238.2</ele>
        <time>2022-10-04T12:28:05.243Z</time>
      </trkpt>
      <trkpt lat="44.78853" lon="4.2422">
        <ele>1239</ele>
        <time>2022-10-04T12:28:16.552Z</time>
      </trkpt>
      <trkpt lat="44.78849" lon="4.24233">
        <ele>1236.35</ele>
        <time>2022-10-04T12:28:45.627Z</time>
      </trkpt>
      <trkpt lat="44.78849" lon="4.24247">
        <ele>1232.78</ele>
        <time>2022-10-04T12:29:03.646Z</time>
      </trkpt>
      <trkpt lat="44.78845" lon="4.24261">
        <ele>1229.94</ele>
        <time>2022-10-04T12:29:12.768Z</time>
      </trkpt>
      <trkpt lat="44.78843" lon="4.24275">
        <ele>1226.65</ele>
        <time>2022-10-04T12:29:23.000Z</time>
      </trkpt>
      <trkpt lat="44.78841" lon="4.24287">
        <ele>1223.53</ele>
        <time>2022-10-04T12:29:40.373Z</time>
      </trkpt>
      <trkpt lat="44.7884" lon="4.243">
        <ele>1220.23</ele>
        <time>2022-10-04T12:29:55.000Z</time>
      </trkpt>
      <trkpt lat="44.78838" lon="4.24321">
        <ele>1214.53</ele>
        <time>2022-10-04T12:30:04.632Z</time>
      </trkpt>
      <trkpt lat="44.78833" lon="4.24332">
        <ele>1211.34</ele>
        <time>2022-10-04T12:30:15.549Z</time>
      </trkpt>
      <trkpt lat="44.7883" lon="4.24348">
        <ele>1206.63</ele>
        <time>2022-10-04T12:30:24.609Z</time>
      </trkpt>
      <trkpt lat="44.78827" lon="4.24362">
        <ele>1202.3</ele>
        <time>2022-10-04T12:30:44.803Z</time>
      </trkpt>
      <trkpt lat="44.78823" lon="4.24374">
        <ele>1198.42</ele>
        <time>2022-10-04T12:30:55.741Z</time>
      </trkpt>
      <trkpt lat="44.78819" lon="4.24386">
        <ele>1194.47</ele>
        <time>2022-10-04T12:31:06.752Z</time>
      </trkpt>
      <trkpt lat="44.78813" lon="4.24397">
        <ele>1190.7</ele>
        <time>2022-10-04T12:31:24.000Z</time>
      </trkpt>
      <trkpt lat="44.78808" lon="4.24415">
        <ele>1185.25</ele>
        <time>2022-10-04T12:31:56.686Z</time>
      </trkpt>
      <trkpt lat="44.78802" lon="4.24429">
        <ele>1181.07</ele>
        <time>2022-10-04T12:32:05.905Z</time>
      </trkpt>
      <trkpt lat="44.78796" lon="4.2444">
        <ele>1178</ele>
        <time>2022-10-04T12:32:15.387Z</time>
      </trkpt>
      <trkpt lat="44.7879" lon="4.24451">
        <ele>1175.3</ele>
        <time>2022-10-04T12:32:24.526Z</time>
      </trkpt>
      <trkpt lat="44.7879" lon="4.24464">
        <ele>1171.49</ele>
        <time>2022-10-04T12:32:37.756Z</time>
      </trkpt>
      <trkpt lat="44.78789" lon="4.24477">
        <ele>1167.72</ele>
        <time>2022-10-04T12:33:01.372Z</time>
      </trkpt>
      <trkpt lat="44.78785" lon="4.24501">
        <ele>1161.05</ele>
        <time>2022-10-04T12:33:10.490Z</time>
      </trkpt>
      <trkpt lat="44.78776" lon="4.24522">
        <ele>1155.71</ele>
        <time>2022-10-04T12:33:20.328Z</time>
      </trkpt>
      <trkpt lat="44.78767" lon="4.24534">
        <ele>1152.75</ele>
        <time>2022-10-04T12:33:29.846Z</time>
      </trkpt>
      <trkpt lat="44.78762" lon="4.24546">
        <ele>1149.52</ele>
        <time>2022-10-04T12:33:39.000Z</time>
      </trkpt>
      <trkpt lat="44.78771" lon="4.24546">
        <ele>1149.24</ele>
        <time>2022-10-04T12:34:08.710Z</time>
      </trkpt>
      <trkpt lat="44.78781" lon="4.24545">
        <ele>1148.84</ele>
        <time>2022-10-04T12:34:19.000Z</time>
      </trkpt>
      <trkpt lat="44.7879" lon="4.24539">
        <ele>1150</ele>
        <time>2022-10-04T12:34:31.269Z</time>
      </trkpt>
      <trkpt lat="44.78798" lon="4.24527">
        <ele>1152.76</ele>
        <time>2022-10-04T12:34:40.270Z</time>
      </trkpt>
      <trkpt lat="44.78804" lon="4.24516">
        <ele>1155.73</ele>
        <time>2022-10-04T12:35:02.785Z</time>
      </trkpt>
      <trkpt lat="44.78813" lon="4.24522">
        <ele>1154.1</ele>
        <time>2022-10-04T12:35:20.805Z</time>
      </trkpt>
      <trkpt lat="44.78826" lon="4.24538">
        <ele>1151.54</ele>
        <time>2022-10-04T12:35:30.245Z</time>
      </trkpt>
      <trkpt lat="44.78833" lon="4.24548">
        <ele>1150.74</ele>
        <time>2022-10-04T12:35:39.464Z</time>
      </trkpt>
      <trkpt lat="44.78834" lon="4.24561">
        <ele>1147.89</ele>
        <time>2022-10-04T12:35:52.323Z</time>
      </trkpt>
      <trkpt lat="44.78833" lon="4.24579">
        <ele>1142.99</ele>
        <time>2022-10-04T12:36:01.473Z</time>
      </trkpt>
      <trkpt lat="44.7883" lon="4.24593">
        <ele>1138.52</ele>
        <time>2022-10-04T12:36:11.999Z</time>
      </trkpt>
      <trkpt lat="44.78835" lon="4.24606">
        <ele>1136.76</ele>
        <time>2022-10-04T12:36:28.067Z</time>
      </trkpt>
      <trkpt lat="44.7884" lon="4.24626">
        <ele>1133.66</ele>
        <time>2022-10-04T12:36:37.999Z</time>
      </trkpt>
      <trkpt lat="44.78848" lon="4.24639">
        <ele>1133.64</ele>
        <time>2022-10-04T12:36:47.999Z</time>
      </trkpt>
      <trkpt lat="44.78855" lon="4.24657">
        <ele>1132.85</ele>
        <time>2022-10-04T12:36:57.002Z</time>
      </trkpt>
      <trkpt lat="44.78862" lon="4.24672">
        <ele>1132.57</ele>
        <time>2022-10-04T12:37:06.142Z</time>
      </trkpt>
      <trkpt lat="44.78868" lon="4.24685">
        <ele>1132.89</ele>
        <time>2022-10-04T12:37:15.333Z</time>
      </trkpt>
      <trkpt lat="44.78872" lon="4.24699">
        <ele>1131.77</ele>
        <time>2022-10-04T12:37:24.451Z</time>
      </trkpt>
      <trkpt lat="44.78872" lon="4.24715">
        <ele>1128.37</ele>
        <time>2022-10-04T12:37:34.999Z</time>
      </trkpt>
      <trkpt lat="44.78872" lon="4.24732">
        <ele>1124.58</ele>
        <time>2022-10-04T12:37:44.070Z</time>
      </trkpt>
      <trkpt lat="44.78871" lon="4.24746">
        <ele>1121.3</ele>
        <time>2022-10-04T12:37:57.827Z</time>
      </trkpt>
      <trkpt lat="44.78869" lon="4.24759">
        <ele>1117.11</ele>
        <time>2022-10-04T12:38:09.999Z</time>
      </trkpt>
      <trkpt lat="44.78872" lon="4.24778">
        <ele>1114.02</ele>
        <time>2022-10-04T12:38:19.625Z</time>
      </trkpt>
      <trkpt lat="44.78872" lon="4.24793">
        <ele>1110.45</ele>
        <time>2022-10-04T12:38:28.999Z</time>
      </trkpt>
      <trkpt lat="44.7887" lon="4.24805">
        <ele>1107.06</ele>
        <time>2022-10-04T12:38:40.910Z</time>
      </trkpt>
      <trkpt lat="44.78866" lon="4.24817">
        <ele>1102.81</ele>
        <time>2022-10-04T12:38:53.330Z</time>
      </trkpt>
      <trkpt lat="44.78864" lon="4.24836">
        <ele>1098.17</ele>
        <time>2022-10-04T12:39:02.873Z</time>
      </trkpt>
      <trkpt lat="44.78861" lon="4.24848">
        <ele>1094.89</ele>
        <time>2022-10-04T12:39:13.669Z</time>
      </trkpt>
      <trkpt lat="44.78863" lon="4.24866">
        <ele>1091.81</ele>
        <time>2022-10-04T12:39:49.225Z</time>
      </trkpt>
      <trkpt lat="44.78867" lon="4.24878">
        <ele>1090.21</ele>
        <time>2022-10-04T12:40:02.631Z</time>
      </trkpt>
      <trkpt lat="44.78867" lon="4.24891">
        <ele>1087.66</ele>
        <time>2022-10-04T12:40:19.890Z</time>
      </trkpt>
      <trkpt lat="44.78863" lon="4.2491">
        <ele>1082.89</ele>
        <time>2022-10-04T12:40:28.999Z</time>
      </trkpt>
      <trkpt lat="44.7886" lon="4.24928">
        <ele>1077.92</ele>
        <time>2022-10-04T12:40:38.365Z</time>
      </trkpt>
      <trkpt lat="44.78852" lon="4.2494">
        <ele>1073.6</ele>
        <time>2022-10-04T12:40:47.624Z</time>
      </trkpt>
      <trkpt lat="44.78844" lon="4.24947">
        <ele>1070.04</ele>
        <time>2022-10-04T12:40:57.783Z</time>
      </trkpt>
      <trkpt lat="44.78846" lon="4.24972">
        <ele>1063.77</ele>
        <time>2022-10-04T12:42:00.547Z</time>
      </trkpt>
      <trkpt lat="44.78852" lon="4.24983">
        <ele>1062.02</ele>
        <time>2022-10-04T12:42:09.999Z</time>
      </trkpt>
      <trkpt lat="44.78855" lon="4.24996">
        <ele>1058.91</ele>
        <time>2022-10-04T12:42:39.393Z</time>
      </trkpt>
      <trkpt lat="44.7886" lon="4.25012">
        <ele>1054.75</ele>
        <time>2022-10-04T12:42:48.568Z</time>
      </trkpt>
      <trkpt lat="44.78865" lon="4.25023">
        <ele>1052.24</ele>
        <time>2022-10-04T12:43:00.000Z</time>
      </trkpt>
      <trkpt lat="44.78862" lon="4.25037">
        <ele>1047.3</ele>
        <time>2022-10-04T12:43:09.788Z</time>
      </trkpt>
      <trkpt lat="44.78864" lon="4.25064">
        <ele>1038.61</ele>
        <time>2022-10-04T12:44:07.269Z</time>
      </trkpt>
      <trkpt lat="44.78865" lon="4.25079">
        <ele>1033.8</ele>
        <time>2022-10-04T12:44:16.828Z</time>
      </trkpt>
      <trkpt lat="44.78863" lon="4.25097">
        <ele>1027.5</ele>
        <time>2022-10-04T12:44:26.207Z</time>
      </trkpt>
      <trkpt lat="44.78861" lon="4.25109">
        <ele>1022.97</ele>
        <time>2022-10-04T12:44:36.368Z</time>
      </trkpt>
      <trkpt lat="44.78885" lon="4.25113">
        <ele>1023.42</ele>
        <time>2022-10-04T12:45:51.865Z</time>
      </trkpt>
      <trkpt lat="44.78893" lon="4.25123">
        <ele>1020.51</ele>
        <time>2022-10-04T12:46:02.000Z</time>
      </trkpt>
      <trkpt lat="44.78902" lon="4.25133">
        <ele>1017.48</ele>
        <time>2022-10-04T12:46:12.000Z</time>
      </trkpt>
      <trkpt lat="44.78912" lon="4.25148">
        <ele>1013.27</ele>
        <time>2022-10-04T12:46:22.000Z</time>
      </trkpt>
      <trkpt lat="44.78919" lon="4.25158">
        <ele>1011.25</ele>
        <time>2022-10-04T12:46:31.689Z</time>
      </trkpt>
      <trkpt lat="44.78923" lon="4.2517">
        <ele>1007.43</ele>
        <time>2022-10-04T12:46:40.892Z</time>
      </trkpt>
      <trkpt lat="44.78916" lon="4.2518">
        <ele>1001.38</ele>
        <time>2022-10-04T12:47:07.609Z</time>
      </trkpt>
      <trkpt lat="44.78909" lon="4.25191">
        <ele>995.41</ele>
        <time>2022-10-04T12:47:42.584Z</time>
      </trkpt>
      <trkpt lat="44.78908" lon="4.25206">
        <ele>989.03</ele>
        <time>2022-10-04T12:47:51.644Z</time>
      </trkpt>
      <trkpt lat="44.78904" lon="4.25219">
        <ele>983.53</ele>
        <time>2022-10-04T12:48:01.910Z</time>
      </trkpt>
      <trkpt lat="44.78894" lon="4.25236">
        <ele>976.09</ele>
        <time>2022-10-04T12:48:36.000Z</time>
      </trkpt>
      <trkpt lat="44.7889" lon="4.25255">
        <ele>969.42</ele>
        <time>2022-10-04T12:49:19.000Z</time>
      </trkpt>
      <trkpt lat="44.78889" lon="4.25268">
        <ele>965.41</ele>
        <time>2022-10-04T12:49:38.572Z</time>
      </trkpt>
      <trkpt lat="44.7889" lon="4.25297">
        <ele>957.53</ele>
        <time>2022-10-04T12:50:55.491Z</time>
      </trkpt>
      <trkpt lat="44.78889" lon="4.25312">
        <ele>953.78</ele>
        <time>2022-10-04T12:51:07.748Z</time>
      </trkpt>
      <trkpt lat="44.78883" lon="4.25326">
        <ele>949.49</ele>
        <time>2022-10-04T12:51:16.848Z</time>
      </trkpt>
      <trkpt lat="44.78881" lon="4.2534">
        <ele>945.91</ele>
        <time>2022-10-04T12:51:38.563Z</time>
      </trkpt>
      <trkpt lat="44.78875" lon="4.25353">
        <ele>941.78</ele>
        <time>2022-10-04T12:51:47.999Z</time>
      </trkpt>
      <trkpt lat="44.78872" lon="4.25365">
        <ele>938.4</ele>
        <time>2022-10-04T12:52:01.563Z</time>
      </trkpt>
      <trkpt lat="44.78866" lon="4.25375">
        <ele>934.88</ele>
        <time>2022-10-04T12:52:14.892Z</time>
      </trkpt>
      <trkpt lat="44.7886" lon="4.25384">
        <ele>931.41</ele>
        <time>2022-10-04T12:52:27.999Z</time>
      </trkpt>
      <trkpt lat="44.7886" lon="4.25397">
        <ele>929.06</ele>
        <time>2022-10-04T12:53:14.999Z</time>
      </trkpt>
      <trkpt lat="44.78865" lon="4.25408">
        <ele>928.99</ele>
        <time>2022-10-04T12:53:30.586Z</time>
      </trkpt>
      <trkpt lat="44.7887" lon="4.2542">
        <ele>929.53</ele>
        <time>2022-10-04T12:53:40.664Z</time>
      </trkpt>
      <trkpt lat="44.78867" lon="4.25437">
        <ele>928.41</ele>
        <time>2022-10-04T12:53:50.999Z</time>
      </trkpt>
      <trkpt lat="44.78862" lon="4.25454">
        <ele>926.95</ele>
        <time>2022-10-04T12:54:00.492Z</time>
      </trkpt>
      <trkpt lat="44.78857" lon="4.25466">
        <ele>925.71</ele>
        <time>2022-10-04T12:54:09.999Z</time>
      </trkpt>
      <trkpt lat="44.78856" lon="4.25479">
        <ele>925.77</ele>
        <time>2022-10-04T12:54:26.488Z</time>
      </trkpt>
      <trkpt lat="44.78856" lon="4.25492">
        <ele>926.23</ele>
        <time>2022-10-04T12:54:36.999Z</time>
      </trkpt>
      <trkpt lat="44.78861" lon="4.25506">
        <ele>928.23</ele>
        <time>2022-10-04T12:54:46.044Z</time>
      </trkpt>
      <trkpt lat="44.78865" lon="4.25518">
        <ele>930.1</ele>
        <time>2022-10-04T12:54:56.345Z</time>
      </trkpt>
      <trkpt lat="44.78871" lon="4.25531">
        <ele>932.49</ele>
        <time>2022-10-04T12:55:05.445Z</time>
      </trkpt>
      <trkpt lat="44.78877" lon="4.25544">
        <ele>935.63</ele>
        <time>2022-10-04T12:55:14.804Z</time>
      </trkpt>
      <trkpt lat="44.78878" lon="4.25561">
        <ele>935.14</ele>
        <time>2022-10-04T12:55:24.223Z</time>
      </trkpt>
      <trkpt lat="44.78877" lon="4.25576">
        <ele>933.51</ele>
        <time>2022-10-04T12:55:33.251Z</time>
      </trkpt>
      <trkpt lat="44.78877" lon="4.25591">
        <ele>931.97</ele>
        <time>2022-10-04T12:55:42.391Z</time>
      </trkpt>
      <trkpt lat="44.78881" lon="4.25603">
        <ele>933.1</ele>
        <time>2022-10-04T12:55:51.472Z</time>
      </trkpt>
      <trkpt lat="44.78883" lon="4.25617">
        <ele>932.71</ele>
        <time>2022-10-04T12:56:00.755Z</time>
      </trkpt>
      <trkpt lat="44.78887" lon="4.25632">
        <ele>933.17</ele>
        <time>2022-10-04T12:56:10.447Z</time>
      </trkpt>
      <trkpt lat="44.78889" lon="4.25647">
        <ele>932.05</ele>
        <time>2022-10-04T12:56:19.645Z</time>
      </trkpt>
      <trkpt lat="44.78889" lon="4.25663">
        <ele>928.85</ele>
        <time>2022-10-04T12:56:29.207Z</time>
      </trkpt>
      <trkpt lat="44.78887" lon="4.25678">
        <ele>925.19</ele>
        <time>2022-10-04T12:56:38.926Z</time>
      </trkpt>
      <trkpt lat="44.78887" lon="4.25694">
        <ele>921.3</ele>
        <time>2022-10-04T12:56:48.684Z</time>
      </trkpt>
      <trkpt lat="44.78887" lon="4.2571">
        <ele>918.38</ele>
        <time>2022-10-04T12:56:58.542Z</time>
      </trkpt>
      <trkpt lat="44.78888" lon="4.25724">
        <ele>915.97</ele>
        <time>2022-10-04T12:57:07.911Z</time>
      </trkpt>
      <trkpt lat="44.78893" lon="4.25737">
        <ele>916.1</ele>
        <time>2022-10-04T12:57:17.429Z</time>
      </trkpt>
      <trkpt lat="44.789" lon="4.25747">
        <ele>917.65</ele>
        <time>2022-10-04T12:57:26.928Z</time>
      </trkpt>
      <trkpt lat="44.7891" lon="4.25745">
        <ele>921.81</ele>
        <time>2022-10-04T12:57:35.949Z</time>
      </trkpt>
      <trkpt lat="44.78919" lon="4.2574">
        <ele>926.2</ele>
        <time>2022-10-04T12:57:45.410Z</time>
      </trkpt>
      <trkpt lat="44.78927" lon="4.25734">
        <ele>930.16</ele>
        <time>2022-10-04T12:57:54.807Z</time>
      </trkpt>
      <trkpt lat="44.78937" lon="4.25735">
        <ele>932.33</ele>
        <time>2022-10-04T12:58:04.999Z</time>
      </trkpt>
      <trkpt lat="44.78948" lon="4.25736">
        <ele>934.14</ele>
        <time>2022-10-04T12:58:14.000Z</time>
      </trkpt>
      <trkpt lat="44.7896" lon="4.25742">
        <ele>934.38</ele>
        <time>2022-10-04T12:58:25.000Z</time>
      </trkpt>
      <trkpt lat="44.7897" lon="4.25749">
        <ele>934.07</ele>
        <time>2022-10-04T12:58:35.000Z</time>
      </trkpt>
      <trkpt lat="44.7898" lon="4.25756">
        <ele>933.52</ele>
        <time>2022-10-04T12:58:44.290Z</time>
      </trkpt>
      <trkpt lat="44.78991" lon="4.25762">
        <ele>933.76</ele>
        <time>2022-10-04T12:58:53.592Z</time>
      </trkpt>
      <trkpt lat="44.79002" lon="4.25771">
        <ele>933.46</ele>
        <time>2022-10-04T12:59:03.395Z</time>
      </trkpt>
      <trkpt lat="44.79011" lon="4.25778">
        <ele>933.45</ele>
        <time>2022-10-04T12:59:13.000Z</time>
      </trkpt>
      <trkpt lat="44.7902" lon="4.25786">
        <ele>933.45</ele>
        <time>2022-10-04T12:59:24.267Z</time>
      </trkpt>
      <trkpt lat="44.79029" lon="4.25802">
        <ele>931.14</ele>
        <time>2022-10-04T12:59:35.000Z</time>
      </trkpt>
      <trkpt lat="44.79041" lon="4.25814">
        <ele>931.11</ele>
        <time>2022-10-04T12:59:44.726Z</time>
      </trkpt>
      <trkpt lat="44.7905" lon="4.25825">
        <ele>930.86</ele>
        <time>2022-10-04T12:59:54.344Z</time>
      </trkpt>
      <trkpt lat="44.79059" lon="4.25831">
        <ele>931.71</ele>
        <time>2022-10-04T13:00:04.000Z</time>
      </trkpt>
      <trkpt lat="44.7907" lon="4.25842">
        <ele>931.59</ele>
        <time>2022-10-04T13:00:15.000Z</time>
      </trkpt>
      <trkpt lat="44.79078" lon="4.25849">
        <ele>931.25</ele>
        <time>2022-10-04T13:00:25.550Z</time>
      </trkpt>
      <trkpt lat="44.79084" lon="4.25859">
        <ele>928.96</ele>
        <time>2022-10-04T13:00:36.430Z</time>
      </trkpt>
      <trkpt lat="44.7909" lon="4.25869">
        <ele>926.67</ele>
        <time>2022-10-04T13:00:45.588Z</time>
      </trkpt>
      <trkpt lat="44.79099" lon="4.25876">
        <ele>926.71</ele>
        <time>2022-10-04T13:00:54.605Z</time>
      </trkpt>
      <trkpt lat="44.79109" lon="4.25886">
        <ele>925.56</ele>
        <time>2022-10-04T13:01:03.624Z</time>
      </trkpt>
      <trkpt lat="44.79116" lon="4.25895">
        <ele>924.77</ele>
        <time>2022-10-04T13:01:39.513Z</time>
      </trkpt>
      <trkpt lat="44.79107" lon="4.25911">
        <ele>916.91</ele>
        <time>2022-10-04T13:01:49.213Z</time>
      </trkpt>
      <trkpt lat="44.79101" lon="4.25921">
        <ele>913.3</ele>
        <time>2022-10-04T13:02:06.807Z</time>
      </trkpt>
      <trkpt lat="44.79092" lon="4.25931">
        <ele>910.41</ele>
        <time>2022-10-04T13:02:17.000Z</time>
      </trkpt>
      <trkpt lat="44.79081" lon="4.25941">
        <ele>908.76</ele>
        <time>2022-10-04T13:02:26.707Z</time>
      </trkpt>
      <trkpt lat="44.79072" lon="4.2595">
        <ele>909.23</ele>
        <time>2022-10-04T13:02:35.767Z</time>
      </trkpt>
      <trkpt lat="44.79064" lon="4.25957">
        <ele>911.09</ele>
        <time>2022-10-04T13:02:45.169Z</time>
      </trkpt>
      <trkpt lat="44.79063" lon="4.25971">
        <ele>913.58</ele>
        <time>2022-10-04T13:02:55.000Z</time>
      </trkpt>
      <trkpt lat="44.79074" lon="4.25975">
        <ele>912.53</ele>
        <time>2022-10-04T13:03:05.000Z</time>
      </trkpt>
      <trkpt lat="44.79063" lon="4.25978">
        <ele>914.77</ele>
        <time>2022-10-04T13:03:38.000Z</time>
      </trkpt>
      <trkpt lat="44.79052" lon="4.25976">
        <ele>917.75</ele>
        <time>2022-10-04T13:03:47.250Z</time>
      </trkpt>
      <trkpt lat="44.79039" lon="4.25991">
        <ele>926.41</ele>
        <time>2022-10-04T13:04:50.000Z</time>
      </trkpt>
      <trkpt lat="44.79029" lon="4.25996">
        <ele>932.38</ele>
        <time>2022-10-04T13:05:11.586Z</time>
      </trkpt>
      <trkpt lat="44.79017" lon="4.25997">
        <ele>938.04</ele>
        <time>2022-10-04T13:05:22.000Z</time>
      </trkpt>
      <trkpt lat="44.79008" lon="4.26002">
        <ele>942.22</ele>
        <time>2022-10-04T13:05:34.432Z</time>
      </trkpt>
      <trkpt lat="44.78999" lon="4.26003">
        <ele>944.82</ele>
        <time>2022-10-04T13:05:47.351Z</time>
      </trkpt>
      <trkpt lat="44.7899" lon="4.26005">
        <ele>946.92</ele>
        <time>2022-10-04T13:06:01.709Z</time>
      </trkpt>
      <trkpt lat="44.78981" lon="4.26012">
        <ele>949.15</ele>
        <time>2022-10-04T13:06:13.406Z</time>
      </trkpt>
      <trkpt lat="44.78972" lon="4.26018">
        <ele>950.86</ele>
        <time>2022-10-04T13:06:26.426Z</time>
      </trkpt>
      <trkpt lat="44.78981" lon="4.26025">
        <ele>951.23</ele>
        <time>2022-10-04T13:07:05.226Z</time>
      </trkpt>
      <trkpt lat="44.78981" lon="4.26038">
        <ele>952.72</ele>
        <time>2022-10-04T13:07:29.999Z</time>
      </trkpt>
      <trkpt lat="44.78975" lon="4.26047">
        <ele>954.56</ele>
        <time>2022-10-04T13:07:40.825Z</time>
      </trkpt>
      <trkpt lat="44.78977" lon="4.2606">
        <ele>955.94</ele>
        <time>2022-10-04T13:08:01.524Z</time>
      </trkpt>
      <trkpt lat="44.78974" lon="4.26074">
        <ele>958.58</ele>
        <time>2022-10-04T13:08:11.764Z</time>
      </trkpt>
      <trkpt lat="44.78971" lon="4.26087">
        <ele>961.69</ele>
        <time>2022-10-04T13:08:32.999Z</time>
      </trkpt>
      <trkpt lat="44.78976" lon="4.26099">
        <ele>963.64</ele>
        <time>2022-10-04T13:08:50.310Z</time>
      </trkpt>
      <trkpt lat="44.78976" lon="4.26114">
        <ele>968.17</ele>
        <time>2022-10-04T13:09:07.609Z</time>
      </trkpt>
      <trkpt lat="44.78975" lon="4.26128">
        <ele>972.49</ele>
        <time>2022-10-04T13:09:23.527Z</time>
      </trkpt>
      <trkpt lat="44.78971" lon="4.2614">
        <ele>976.88</ele>
        <time>2022-10-04T13:09:35.245Z</time>
      </trkpt>
      <trkpt lat="44.78977" lon="4.2616">
        <ele>981.41</ele>
        <time>2022-10-04T13:10:19.689Z</time>
      </trkpt>
      <trkpt lat="44.78982" lon="4.26172">
        <ele>983.77</ele>
        <time>2022-10-04T13:10:36.886Z</time>
      </trkpt>
      <trkpt lat="44.78988" lon="4.26182">
        <ele>985.07</ele>
        <time>2022-10-04T13:10:47.367Z</time>
      </trkpt>
      <trkpt lat="44.78993" lon="4.26195">
        <ele>987.31</ele>
        <time>2022-10-04T13:10:57.411Z</time>
      </trkpt>
      <trkpt lat="44.78994" lon="4.26208">
        <ele>990.47</ele>
        <time>2022-10-04T13:11:07.999Z</time>
      </trkpt>
      <trkpt lat="44.78997" lon="4.26221">
        <ele>993.32</ele>
        <time>2022-10-04T13:11:17.610Z</time>
      </trkpt>
      <trkpt lat="44.79003" lon="4.26232">
        <ele>994.23</ele>
        <time>2022-10-04T13:11:30.772Z</time>
      </trkpt>
      <trkpt lat="44.79005" lon="4.26238">
        <ele>995.1</ele>
        <time>2022-10-04T13:12:00.999Z</time>
        <extensions>
          <visugpx:TrkExtension xmlns:visugpx="https://www.visugpx.com/editgpx/">
            <visugpx:node>13</visugpx:node>
            </visugpx:TrkExtension>
        </extensions>
      </trkpt>
      <trkpt lat="44.79" lon="4.26249">
        <ele>1011.9</ele>
      </trkpt>
      <trkpt lat="44.79006" lon="4.26254">
        <ele>1010</ele>
      </trkpt>
      <trkpt lat="44.7901" lon="4.26264">
        <ele>1010.3</ele>
      </trkpt>
      <trkpt lat="44.7901" lon="4.26273">
        <ele>1012.5</ele>
      </trkpt>
      <trkpt lat="44.7901" lon="4.26288">
        <ele>1015.3</ele>
      </trkpt>
      <trkpt lat="44.79011" lon="4.26297">
        <ele>1016.2</ele>
      </trkpt>
      <trkpt lat="44.79019" lon="4.26332">
        <ele>1018.5</ele>
      </trkpt>
      <trkpt lat="44.79023" lon="4.26352">
        <ele>1021.1</ele>
      </trkpt>
      <trkpt lat="44.79033" lon="4.26374">
        <ele>1024.3</ele>
      </trkpt>
      <trkpt lat="44.79046" lon="4.26399">
        <ele>1032</ele>
      </trkpt>
      <trkpt lat="44.79054" lon="4.26426">
        <ele>1037.9</ele>
      </trkpt>
      <trkpt lat="44.79058" lon="4.26454">
        <ele>1042.3</ele>
      </trkpt>
      <trkpt lat="44.79063" lon="4.2648">
        <ele>1042.1</ele>
      </trkpt>
      <trkpt lat="44.79066" lon="4.26501">
        <ele>1042.5</ele>
      </trkpt>
      <trkpt lat="44.79071" lon="4.26516">
        <ele>1045</ele>
      </trkpt>
      <trkpt lat="44.79077" lon="4.26526">
        <ele>1046.6</ele>
      </trkpt>
      <trkpt lat="44.79086" lon="4.26535">
        <ele>1045.5</ele>
      </trkpt>
      <trkpt lat="44.7909" lon="4.26542">
        <ele>1044.7</ele>
      </trkpt>
      <trkpt lat="44.79091" lon="4.26548">
        <ele>1046</ele>
      </trkpt>
      <trkpt lat="44.79091" lon="4.26555">
        <ele>1048.5</ele>
      </trkpt>
      <trkpt lat="44.7909" lon="4.26563">
        <ele>1048.8</ele>
      </trkpt>
      <trkpt lat="44.79089" lon="4.26571">
        <ele>1048.9</ele>
      </trkpt>
      <trkpt lat="44.79092" lon="4.26592">
        <ele>1045.1</ele>
      </trkpt>
      <trkpt lat="44.79094" lon="4.26613">
        <ele>1044.2</ele>
      </trkpt>
      <trkpt lat="44.79097" lon="4.26634">
        <ele>1044.6</ele>
      </trkpt>
      <trkpt lat="44.791" lon="4.26651">
        <ele>1045.8</ele>
      </trkpt>
      <trkpt lat="44.79104" lon="4.26661">
        <ele>1044.9</ele>
      </trkpt>
      <trkpt lat="44.79107" lon="4.26673">
        <ele>1044.4</ele>
      </trkpt>
      <trkpt lat="44.79111" lon="4.26684">
        <ele>1042.6</ele>
      </trkpt>
      <trkpt lat="44.79112" lon="4.26692">
        <ele>1043.1</ele>
      </trkpt>
      <trkpt lat="44.79112" lon="4.26704">
        <ele>1042</ele>
      </trkpt>
      <trkpt lat="44.79111" lon="4.26716">
        <ele>1041</ele>
      </trkpt>
      <trkpt lat="44.79112" lon="4.26727">
        <ele>1038.5</ele>
      </trkpt>
      <trkpt lat="44.79115" lon="4.26732">
        <ele>1035.4</ele>
      </trkpt>
      <trkpt lat="44.79119" lon="4.26735">
        <ele>1032</ele>
      </trkpt>
      <trkpt lat="44.79127" lon="4.26738">
        <ele>1025.8</ele>
      </trkpt>
      <trkpt lat="44.79126" lon="4.26745">
        <ele>1025.5</ele>
      </trkpt>
      <trkpt lat="44.79119" lon="4.26748">
        <ele>1029.9</ele>
      </trkpt>
      <trkpt lat="44.79114" lon="4.26752">
        <ele>1032.6</ele>
      </trkpt>
      <trkpt lat="44.79113" lon="4.26762">
        <ele>1031.2</ele>
      </trkpt>
      <trkpt lat="44.79112" lon="4.2677">
        <ele>1030.1</ele>
      </trkpt>
      <trkpt lat="44.79114" lon="4.26787">
        <ele>1027.4</ele>
      </trkpt>
      <trkpt lat="44.7912" lon="4.26792">
        <ele>1024.4</ele>
      </trkpt>
      <trkpt lat="44.79126" lon="4.26785">
        <ele>1020.6</ele>
      </trkpt>
      <trkpt lat="44.79131" lon="4.26776">
        <ele>1017.1</ele>
      </trkpt>
      <trkpt lat="44.79136" lon="4.26772">
        <ele>1014.6</ele>
      </trkpt>
      <trkpt lat="44.79141" lon="4.26773">
        <ele>1011.2</ele>
      </trkpt>
      <trkpt lat="44.79143" lon="4.26781">
        <ele>1009.7</ele>
      </trkpt>
      <trkpt lat="44.79144" lon="4.26793">
        <ele>1011.5</ele>
      </trkpt>
      <trkpt lat="44.79147" lon="4.26804">
        <ele>1012</ele>
      </trkpt>
      <trkpt lat="44.7915" lon="4.26813">
        <ele>1007.4</ele>
      </trkpt>
      <trkpt lat="44.79151" lon="4.2682">
        <ele>1003.9</ele>
      </trkpt>
      <trkpt lat="44.79156" lon="4.26828">
        <ele>997.3</ele>
      </trkpt>
      <trkpt lat="44.79163" lon="4.26833">
        <ele>990.5</ele>
      </trkpt>
      <trkpt lat="44.79176" lon="4.26832">
        <ele>984.4</ele>
      </trkpt>
      <trkpt lat="44.79183" lon="4.26832">
        <ele>981.2</ele>
        <extensions>
          <visugpx:TrkExtension xmlns:visugpx="https://www.visugpx.com/editgpx/">
            <visugpx:node>14</visugpx:node>
            </visugpx:TrkExtension>
        </extensions>
      </trkpt>
      <trkpt lat="44.79176" lon="4.26832">
        <ele>984.4</ele>
      </trkpt>
      <trkpt lat="44.79163" lon="4.26833">
        <ele>990.5</ele>
      </trkpt>
      <trkpt lat="44.79156" lon="4.26828">
        <ele>997.3</ele>
      </trkpt>
      <trkpt lat="44.79151" lon="4.2682">
        <ele>1003.9</ele>
      </trkpt>
      <trkpt lat="44.7915" lon="4.26813">
        <ele>1007.4</ele>
      </trkpt>
      <trkpt lat="44.79147" lon="4.26804">
        <ele>1012</ele>
      </trkpt>
      <trkpt lat="44.79144" lon="4.26793">
        <ele>1011.5</ele>
      </trkpt>
      <trkpt lat="44.79143" lon="4.26781">
        <ele>1009.7</ele>
      </trkpt>
      <trkpt lat="44.79141" lon="4.26773">
        <ele>1011.2</ele>
      </trkpt>
      <trkpt lat="44.79136" lon="4.26772">
        <ele>1014.6</ele>
      </trkpt>
      <trkpt lat="44.79131" lon="4.26776">
        <ele>1017.1</ele>
      </trkpt>
      <trkpt lat="44.79126" lon="4.26785">
        <ele>1020.6</ele>
      </trkpt>
      <trkpt lat="44.7912" lon="4.26792">
        <ele>1024.4</ele>
      </trkpt>
      <trkpt lat="44.79114" lon="4.26787">
        <ele>1027.4</ele>
      </trkpt>
      <trkpt lat="44.79112" lon="4.2677">
        <ele>1030.1</ele>
      </trkpt>
      <trkpt lat="44.79113" lon="4.26762">
        <ele>1031.2</ele>
      </trkpt>
      <trkpt lat="44.79114" lon="4.26752">
        <ele>1032.6</ele>
      </trkpt>
      <trkpt lat="44.79119" lon="4.26748">
        <ele>1029.9</ele>
      </trkpt>
      <trkpt lat="44.79126" lon="4.26745">
        <ele>1025.5</ele>
      </trkpt>
      <trkpt lat="44.79127" lon="4.26738">
        <ele>1025.8</ele>
      </trkpt>
      <trkpt lat="44.79119" lon="4.26735">
        <ele>1032</ele>
      </trkpt>
      <trkpt lat="44.79115" lon="4.26732">
        <ele>1035.4</ele>
      </trkpt>
      <trkpt lat="44.79112" lon="4.26727">
        <ele>1038.5</ele>
      </trkpt>
      <trkpt lat="44.79111" lon="4.26716">
        <ele>1041</ele>
      </trkpt>
      <trkpt lat="44.79112" lon="4.26704">
        <ele>1042</ele>
      </trkpt>
      <trkpt lat="44.79112" lon="4.26692">
        <ele>1043.1</ele>
      </trkpt>
      <trkpt lat="44.79111" lon="4.26684">
        <ele>1042.6</ele>
      </trkpt>
      <trkpt lat="44.79107" lon="4.26673">
        <ele>1044.4</ele>
      </trkpt>
      <trkpt lat="44.79104" lon="4.26661">
        <ele>1044.9</ele>
      </trkpt>
      <trkpt lat="44.791" lon="4.26651">
        <ele>1045.8</ele>
      </trkpt>
      <trkpt lat="44.79097" lon="4.26634">
        <ele>1044.6</ele>
      </trkpt>
      <trkpt lat="44.79094" lon="4.26613">
        <ele>1044.2</ele>
      </trkpt>
      <trkpt lat="44.79092" lon="4.26592">
        <ele>1045.1</ele>
      </trkpt>
      <trkpt lat="44.79089" lon="4.26571">
        <ele>1048.9</ele>
      </trkpt>
      <trkpt lat="44.7909" lon="4.26563">
        <ele>1048.8</ele>
      </trkpt>
      <trkpt lat="44.79091" lon="4.26555">
        <ele>1048.5</ele>
      </trkpt>
      <trkpt lat="44.79091" lon="4.26548">
        <ele>1046</ele>
      </trkpt>
      <trkpt lat="44.7909" lon="4.26542">
        <ele>1044.7</ele>
      </trkpt>
      <trkpt lat="44.79086" lon="4.26535">
        <ele>1045.5</ele>
      </trkpt>
      <trkpt lat="44.79077" lon="4.26526">
        <ele>1046.6</ele>
      </trkpt>
      <trkpt lat="44.79071" lon="4.26516">
        <ele>1045</ele>
      </trkpt>
      <trkpt lat="44.79066" lon="4.26501">
        <ele>1042.5</ele>
      </trkpt>
      <trkpt lat="44.79063" lon="4.2648">
        <ele>1042.1</ele>
      </trkpt>
      <trkpt lat="44.79058" lon="4.26454">
        <ele>1042.3</ele>
      </trkpt>
      <trkpt lat="44.79054" lon="4.26426">
        <ele>1037.9</ele>
      </trkpt>
      <trkpt lat="44.79046" lon="4.26399">
        <ele>1032</ele>
      </trkpt>
      <trkpt lat="44.79033" lon="4.26374">
        <ele>1024.3</ele>
      </trkpt>
      <trkpt lat="44.79023" lon="4.26352">
        <ele>1021.1</ele>
      </trkpt>
      <trkpt lat="44.79019" lon="4.26332">
        <ele>1018.5</ele>
      </trkpt>
      <trkpt lat="44.79011" lon="4.26297">
        <ele>1016.2</ele>
      </trkpt>
      <trkpt lat="44.7901" lon="4.26288">
        <ele>1015.3</ele>
      </trkpt>
      <trkpt lat="44.7901" lon="4.26273">
        <ele>1012.5</ele>
      </trkpt>
      <trkpt lat="44.7901" lon="4.26264">
        <ele>1010.3</ele>
      </trkpt>
      <trkpt lat="44.79006" lon="4.26254">
        <ele>1010</ele>
      </trkpt>
      <trkpt lat="44.79" lon="4.26249">
        <ele>1011.9</ele>
      </trkpt>
      <trkpt lat="44.78995" lon="4.2623">
        <ele>1010.6</ele>
        <extensions>
          <visugpx:TrkExtension xmlns:visugpx="https://www.visugpx.com/editgpx/">
            <visugpx:node>15</visugpx:node>
            </visugpx:TrkExtension>
        </extensions>
      </trkpt>
    </trkseg>
  </trk>
</gpx>